     2              OBSERVATION DATA    GPS                 RINEX VERSION / TYPE
teqc 1998Mar9 19980311 23:29:27UTC                          PGM / RUN BY / DATE
                                                            COMMENT
Original Marker Name: unknown                               COMMENT
Campaign Name: Cholame 1989                                 COMMENT
4-Character Station Name: L623                              COMMENT
6-Character Antenna Code: TI4100                            COMMENT
Vertical Measurement Point: PAE                             COMMENT
Vertical Offset to Rinex Ref. Point: 0.0000                 COMMENT
Radial Measurement Point: PAE                               COMMENT
Radial Offset to Rinex Ref. Point: 0.0842                   COMMENT
Antenna Height from Field Measurement: 0.9450 m             COMMENT
Original XYZ: 0.0000 0.0000 0.0000                          COMMENT
New XYZ position is based on association with SCEC monument COMMENT
E1F1B5X0+0011. Position of that monument is believed to be  COMMENT
valid to within 1 m horizontally; vertical accuracy         COMMENT
should be no worse than 3-times this value.                 COMMENT
                                                            COMMENT
Revised Rinex header created by UCSD GPS archive for        COMMENT
GSAC on 15-Apr-1999 (1999:105) 18:33:51 GMT                 COMMENT
For assistance contact dagnew@ucsd.edu or hjohnson@ucsd.edu COMMENT
                                                            COMMENT
L623                                                        MARKER NAME
unknown UNIV CALIF LOS ANGELES                              OBSERVER / AGENCY
UNKNOWN TI 4100 2.1                                         REC # / TYPE / VERS
UNKNOWN TI 4100                                             ANT # / TYPE
 -2619587.0000 -4484239.0000  3690875.0000                  APPROX POSITION XYZ
        0.9412        0.0000        0.0000                  ANTENNA: DELTA H/E/N
     1     1     0                                          WAVELENGTH FACT L1/2
     4    P1    P2    L1    L2                              # / TYPES OF OBSERV
     0                                                      INTERVAL
  1989    11    12    10    13   29.000000                  TIME OF FIRST OBS
  1989    11    12    17     0   59.000000                  TIME OF LAST OBS
     0                                                      # OF SATELLITES
                                                            END OF HEADER
 89 11 12 10 13 29.2200000  0  3G 2G 6G11
  17563473.032    17563472.535     2843237.867 8   -652287.707 9
  16587084.163    16587086.128     1699912.857 9  -3332613.911 7
  18424428.719    18424431.222      948973.622 9  -3791025.926 9
 89 11 12 10 13 59.2200000  0  3G 2G 6G11
  17578193.215    17578195.066     2920588.300 9   -592014.614 9
  16576647.665    16576647.781     1645065.235 9  -3375352.316 8
  18403589.818    18403592.321      839463.015 9  -3876358.865 9
 89 11 12 10 14 29.0800000  0  3G 2G 6G11
  17592859.375    17592862.025     2997659.783 9   -531959.031 9
  16566278.631    16566280.182     1590577.112 9  -3417810.573 8
  18382878.175    18382881.155      730624.436 9  -3961168.118 9
 89 11 12 10 14 59.0800000  0  3G 2G 6G11
  17607606.532    17607605.839     3075173.781 8   -471558.492 8
  16555880.692    16555880.883     1535938.989 9  -3460385.731 9
  18362101.258    18362103.856      621440.271 9  -4046246.667 9
 89 11 12 10 15 29.0800000  0  3G 2G 6G11
  17622374.682    17622373.489     3152768.163 9   -411095.337 9
  16545504.035    16545505.439     1481407.666 9  -3502877.667 8
  18341356.123    18341358.998      512424.274 9  -4131194.156 9
 89 11 12 10 15 59.0800000  0  3G 2G 6G11
  17637151.940    17637157.860     3230441.795 8   -350570.537 9
  16535147.376    16535149.349     1426984.503 9  -3545285.330 8
  18320643.617    18320647.036      403579.418 9  -4216008.327 9
 89 11 12 10 16 29.0800000  0  4G 2G 6G11G 9
  17651951.377    17651951.555     3308193.545 9   -289984.769 8
  16524811.986    16524811.981     1372670.634 9  -3587607.805 7
  18299964.310    18299966.959      294908.473 5  -4300686.976 5
                                  -1053951.153 1   1366936.000 1
 89 11 12 10 16 59.0800000  0  4G 2G 6G11G 9
  17666756.585    17666763.839     3386022.432 8   -229338.913 9
  16514497.309    16514498.528     1318467.599 9  -3629843.919 8
  18279318.530    18279321.288      186414.913 9  -4385227.396 8
                                  -1165678.826 1   1594936.000 1
 89 11 12 10 17 29.0800000  0  4G 2G 6G11G 9
  17681588.905    17681589.844     3463927.885 1   -168633.389 1
  16504201.918    16504204.564     1264376.640 1  -3671992.707 1
  18258708.411    18258709.344       78101.726 9  -4469627.246 8
                                  -1410829.046 1   1822936.000 1
 89 11 12 10 17 59.0800000  0  4G 2G 6G11G 9
  17696418.275    17696425.596     3541908.296 1   -107869.459 1
  16493927.972    16493935.440     1210399.103 1  -3714053.130 1
  18238131.392    18238132.188      -30028.459 9  -4553884.504 9
                                  -1490880.029 1   2050936.000 1
 89 11 12 10 18 29.0800000  0  4G 2G 6G11G 9
  17711281.228    17711275.071     3619962.674 1    -47047.867 1
  16483686.315    16483682.604     1156535.870 1  -3756024.448 1
  18217589.210    18217592.266     -137973.122 9  -4637997.222 8
                                  -1470540.547 1   2278936.000 1
 89 11 12 10 18 59.0800000  0  4G 2G 6G11G 9
  17726146.626    17726145.672     3698089.630 9     13830.250 9
  16473454.947    16473456.745     1102788.192 9  -3797905.755 8
  18197084.684    18197086.178     -245729.246 9  -4721963.028 8
                                  -1453840.519 1   2506936.000 1
 89 11 12 10 19 29.0800000  0  4G 2G 6G11G 9
  17741025.259    17741024.243     3776288.419 9     74764.329 7
  16463250.266    16463250.515     1049157.715 9  -3839695.731 9
  18176615.789    18176617.884     -353293.586 9  -4805779.378 7
                                  -2100362.286 9   2734936.000 1
 89 11 12 10 19 59.0800000  0  4G 2G 6G11G 9
  17755922.735    17755919.097     3854557.736 8    135753.439 8
  16453066.572    16453068.521      995645.766 9  -3881393.350 9
  18156183.510    18156185.985     -460662.795 8  -4889443.683 8
  19250252.431    19250255.110    -2185830.954 9   2821444.931 8
 89 11 12 10 20 29.0800000  0  4G 2G 6G11G 9
  17770829.817    17770828.968     3932897.024 9    196796.972 9
  16442906.812    16442907.423      942253.711 9  -3922997.522 8
  18135789.746    18135792.835     -567834.045 9  -4972953.730 9
  19233981.690    19233982.697    -2271339.143 9   2754815.182 8
 89 11 12 10 20 59.0800000  0  4G 2G 6G11G 9
  17785748.392    17785749.671     4011305.089 8    257894.143 8
  16432769.898    16432769.877      888982.916 9  -3964507.232 8
  18115434.133    18115436.623     -674804.331 9  -5056307.187 8
  19217702.079    19217703.765    -2356887.219 9   2688154.371 8
 89 11 12 10 21 29.0800000  0  4G 2G 6G11G 9
  17800682.465    17800681.426     4089780.941 9    319044.111 7
  16422654.628    16422656.716      835834.417 9  -4005921.638 8
  18095117.075    18095119.883     -781571.062 9  -5139502.026 8
  19201415.967    19201417.010    -2442474.747 8   2621462.816 7
 89 11 12 10 21 59.0800000  0  4G 2G 6G11G 9
  17815629.333    17815627.096     4168323.311 8    380245.946 9
  16412566.193    16412566.454      782809.919 8  -4047239.399 8
  18074838.984    18074842.857     -888131.308 9  -5222535.960 9
  19185120.728    19185124.562    -2528100.894 8   2554741.169 7
 89 11 12 10 22 29.0800000  0  4G 2G 6G11G 9
  17830582.883    17830587.095     4246931.415 7    441498.920 8
  16402499.552    16402500.801      729910.438 9  -4088459.776 9
  18054601.786    18054603.629     -994482.102 9  -5305406.693 8
  19168818.890    19168820.049    -2613765.593 8   2487989.516 7
 89 11 12 10 22 59.0800000  0  4G 2G 6G11G 9
  17845558.439    17845554.141     4325604.124 9    502802.314 7
  16392456.321    16392457.011      677137.562 9  -4129581.482 9
  18034403.496    18034406.345    -1100620.182 9  -5388111.687 8
  19152510.474    19152513.422    -2699467.660 8   2421208.721 7
 89 11 12 10 23 29.0800000  0  4G 2G 6G11G 9
  17860542.869    17860538.381     4404340.475 9    564155.351 8
  16382438.862    16382439.728      624492.709 9  -4170603.449 7
  18014247.856    18014249.963    -1206542.922 9  -5470648.854 9
  19136194.800    19136195.007    -2785206.688 8   2354399.118 7
 89 11 12 10 23 59.0800000  0  4G 2G 6G11G 9
  17875534.308    17875533.593     4483140.347 7    625557.744 8
  16372445.810    16372447.568      571977.334 9  -4211524.524 8
  17994132.244    17994135.705    -1312246.953 9  -5553015.605 9
  19119872.518    19119874.026    -2870981.984 7   2287561.263 7
 89 11 12 10 24 59.0800000  0  4G 2G 6G11G 9
  17905562.269    17905561.306     4640922.842 8    748505.110 7
  16352533.335    16352534.120      467339.738 9  -4293060.283 8
  17954030.231    17954032.530    -1522989.345 9  -5717230.433 8
  19087208.596    19087209.085    -3042639.737 8   2153802.047 8
 89 11 12 10 25 29.0800000  0  4G 2G 6G11G 9
  17920590.151    17920590.884     4719904.935 8    810049.504 8
  16342615.259    16342616.617      415220.999 9  -4333672.283 7
  17934043.384    17934045.049    -1628021.191 9  -5799073.431 9
  19070865.216    19070866.796    -3128520.417 8   2086882.069 8
 89 11 12 10 25 59.0800000  0  4G 2G 6G11G 9
  17935631.496    17935633.981     4798945.853 9    871639.799 8
  16332722.922    16332724.080      363237.549 9  -4374178.862 8
  17914099.614    17914102.233    -1732822.803 9  -5880736.987 8
  19054515.678    19054517.250    -3214434.712 6   2019935.929 9
 89 11 12 10 26 29.0800000  0  4G 2G 6G11G 9
  17950679.965    17950685.819     4878044.561 8    933275.134 9
  16322856.660    16322858.247      311390.710 9  -4414578.983 8
  17894201.441    17894203.839    -1837391.249 9  -5962218.860 8
  19038158.002    19038162.005    -3300382.043 6   1952964.070 9
 89 11 12 10 26 59.0800000  0  4G 2G 6G11G 9
  17965746.274    17965749.407     4957201.025 9    994955.397 9
  16313017.302    16313018.661      259682.229 9  -4454871.303 9
  17874347.692    17874350.809    -1941723.469 9  -6043516.683 8
  19021799.025    19021801.511    -3386361.540 7   1885967.170 9
 89 11 12 10 27 29.0800000  0  4G 2G 6G11G 9
  17980820.973    17980820.925     5036413.639 9   1056679.532 8
  16303203.999    16303205.146      208113.751 9  -4495054.536 8
  17854538.008    17854540.297    -2045816.245 9  -6124627.934 9
  19005431.545    19005434.584    -3472372.284 7   1818945.847 8
 89 11 12 10 27 59.0800000  0  4G 2G 6G11G 9
  17995903.864    17995905.589     5115681.825 8   1118446.935 9
  16293417.773    16293419.507      156686.462 9  -4535127.733 8
  17834776.597    17834778.828    -2149666.998 9  -6205550.579 8
  18989059.121    18989060.188    -3558413.832 8   1751900.511 8
 89 11 12 10 28 29.0800000  0  4G 2G 6G11G 9
  18011000.468    18011000.106     5195004.415 9   1180256.683 9
  16283659.113    16283658.894      105401.537 9  -4575090.009 9
  17815060.932    17815065.157    -2253273.482 9  -6286282.888 8
  18972679.137    18972681.661    -3644485.743 9   1684831.506 8
 89 11 12 10 28 59.0800000  0  4G 2G 6G11G 9
  18026104.736    18026105.362     5274380.832 9   1242108.381 9
  16273925.934    16273928.005       54260.457 9  -4614940.192 8
  17795391.725    17795395.456    -2356632.575 9  -6366822.411 8
  18956295.504    18956296.360    -3730587.353 8   1617739.343 9
 89 11 12 10 29 29.0800000  0  4G 2G 6G11G 9
  18041219.257    18041218.928     5353809.797 9   1304001.064 8
  16264222.691    16264223.266        3264.978 9  -4654676.917 7
  17775771.314    17775774.461    -2459741.265 9  -6447166.830 8
  18939905.227    18939905.863    -3816717.843 9   1550624.675 9
 89 11 12 10 29 59.0800000  0  4G 2G 6G11G 9
  18056344.102    18056345.070     5433290.324 9   1365933.880 9
  16254547.317    16254547.928      -47583.646 9  -4694299.218 8
  17756197.888    17756200.746    -2562596.986 9  -6527314.132 8
  18923509.785    18923511.947    -3902876.535 9   1483488.066 9
 89 11 12 10 30 29.0800000  0  4G 2G 6G11G 9
  18071478.245    18071479.145     5512821.575 9   1427906.288 8
  16244898.574    16244899.655      -98283.736 9  -4733805.771 8
  17736673.776    17736678.018    -2665196.586 9  -6607261.858 7
  18907107.891    18907111.281    -3989062.620 8   1416330.111 8
 89 11 12 10 30 59.0800000  0  4G 2G 6G11G 9
  18086621.611    18086622.550     5592402.653 9   1489917.461 9
  16235279.553    16235280.370     -148833.854 9  -4773195.467 8
  17717199.712    17717202.610    -2767537.156 9  -6687007.737 8
  18890703.469    18890704.370    -4075275.534 8   1349151.264 9
 89 11 12 10 31 29.0800000  0  4G 2G 6G11G 9
  18101773.687    18101776.572     5672032.488 9   1551966.616 9
  16225688.464    16225689.681     -199232.460 9  -4812467.106 8
  17697774.922    17697776.841    -2869615.947 9  -6766549.634 8
  18874291.877    18874293.746    -4161514.287 9   1281952.265 8
 89 11 12 10 31 59.0800000  0  4G 2G 6G11G 9
  18116937.736    18116938.577     5751710.855 9   1614053.656 9
  16216127.397    16216128.700     -249478.188 9  -4851619.609 8
  17678399.639    17678402.815    -2971430.223 9  -6845885.409 8
  18857877.037    18857878.434    -4247778.288 9   1214733.579 8
 89 11 12 10 32 29.0800000  0  4G 2G 6G11G 9
  18132109.701    18132110.465     5831437.050 9   1676177.970 9
  16206595.090    16206595.196     -299568.748 9  -4890651.221 8
  17659076.684    17659079.485    -3072976.641 9  -6925012.440 8
  18841456.572    18841459.104    -4334066.038 9   1147496.382 9
 89 11 12 10 32 59.0800000  0  4G 2G 6G11G 9
  18147288.820    18147289.994     5911209.288 9   1738338.071 9
  16197093.248    16197094.540     -349503.465 9  -4929561.375 8
  17639805.430    17639806.883    -3174253.102 9  -7003929.157 8
  18825032.934    18825034.425    -4420377.790 9   1080240.478 8
 89 11 12 10 33 29.0800000  0  4G 2G 6G11G 9
  18162478.382    18162478.058     5991026.741 9   1800533.411 8
  16187620.635    16187620.978     -399281.070 9  -4968349.129 8
  17620584.330    17620585.762    -3275256.938 9  -7082633.441 8
  18808603.499    18808603.409    -4506712.860 9   1012966.413 7
 89 11 12 10 33 59.0800000  0  4G 2G 6G11G 9
  18177677.062    18177676.146     6070889.062 9   1862763.796 9
  16178178.914    16178179.948     -448899.075 9  -5007012.490 8
  17601416.190    17601418.615    -3375984.628 9  -7161122.538 7
  18792170.127    18792170.171    -4593069.771 8    945675.338 7
 89 11 12 10 34 29.0800000  0  4G 2G 6G11G 9
  18192881.318    18192881.260     6150795.727 8   1925028.673 8
  16168768.172    16168767.619     -498356.039 8  -5045550.377 8
  17582301.491    17582303.989    -3476433.493 8  -7239394.343 8
  18775732.515    18775733.419    -4679447.636 9    878367.946 8
 89 11 12 10 34 59.0800000  0  4G 2G 6G11G 9
  18208093.396    18208095.995     6230746.035 8   1987327.523 8
  16159387.873    16159386.664     -547650.041 9  -5083961.288 8
  17563240.279    17563243.166    -3576600.372 9  -7317446.439 8
  18759292.170    18759292.726    -4765845.403 9    811045.016 8
 89 11 12 10 35 29.0800000  0  4G 2G 6G11G 9
  18223316.580    18223317.674     6310738.513 9   2049659.359 9
  16150038.020    16150038.427     -596779.723 9  -5122244.149 8
  17544232.903    17544236.096    -3676482.607 9  -7395276.748 9
  18742846.394    18742848.522    -4852262.230 9    743707.237 7
 89 11 12 10 35 59.0800000  0  4G 2G 6G11G 9
  18238550.112    18238547.488     6390772.669 7   2112023.673 8
  16140720.643    16140721.613     -645743.130 9  -5160397.457 8
  17525280.446    17525282.804    -3776077.335 9  -7472883.017 9
  18726399.228    18726400.488    -4938696.973 8    676355.524 8
 89 11 12 10 36 29.0800000  0  4G 2G 6G11G 9
  18253784.006    18253785.452     6470848.335 6   2174420.151 8
  16131435.633    16131436.007     -694538.840 9  -5198420.084 8
  17506384.100    17506386.532    -3875381.859 9  -7550263.131 8
  18709946.735    18709948.950    -5025149.166 8    608990.204 7
 89 11 12 10 36 59.0800000  0  4G 2G 6G11G 9
  18269031.025    18269031.097     6550964.498 9   2236848.276 8
  16122180.969    16122182.193     -743164.774 9  -5236310.409 8
  17487542.865    17487545.457    -3974392.725 9  -7627414.430 9
  18693493.934    18693493.454    -5111617.470 7    541612.360 7
 89 11 12 10 37 29.0800000  0  4G 2G 6G11G 9
  18284283.225    18284283.707     6631120.477 6   2299307.451 8
  16112961.592    16112961.291     -791619.600 9  -5274067.412 9
  17468758.512    17468760.305    -4073107.922 9  -7704335.352 9
  18677035.200    18677035.875    -5198100.992 8    474222.625 7
 89 11 12 10 37 59.0800000  0  4G 2G 6G11G 9
  18299542.544    18299545.771     6711315.341 6   2361796.933 7
  16103773.484    16103775.278     -839901.605 9  -5311689.763 8
  17450029.427    17450032.754    -4171524.078 9  -7781023.251 7
  18660576.514    18660577.189    -5284599.078 8    406821.542 7
 89 11 12 10 38 29.0800000  0  4G 2G 6G11G 9
  18314812.923    18314813.891     6791548.059 9   2424315.866 8
  16094618.983    16094619.399     -888009.304 9  -5349176.262 8
  17431358.725    17431362.007    -4269639.014 9  -7857476.435 8
  18644113.387    18644114.850    -5371110.852 8    339409.788 7
 89 11 12 10 38 59.0800000  0  4G 2G 6G11G 9
  18330087.659    18330088.184     6871817.487 9   2486863.486 9
  16085497.891    16085497.116     -935941.418 9  -5386525.950 7
  17412746.834    17412749.198    -4367450.087 9  -7933692.837 9
  18627647.153    18627649.523    -5457635.603 7    271987.927 8
 89 11 12 10 39 29.0800000  0  4G 2G 6G11G 9
  18345368.328    18345369.033     6952123.083 9   2549439.296 8
  16076410.790    16076411.203     -983695.874 9  -5423737.223 8
  17394192.006    17394194.461    -4464954.330 9  -8009670.166 9
  18611181.601    18611181.867    -5544172.397 8    204556.722 8
 89 11 12 10 39 59.0800000  0  4G 2G 6G11G 9
  18360656.427    18360658.065     7032464.619 8   2612042.980 8
  16067356.796    16067357.646    -1031270.851 9  -5460808.619 8
  17375696.687    17375697.781    -4562148.649 9  -8085405.973 8
  18594711.344    18594712.583    -5630719.854 8    137117.189 8
 89 11 12 10 40 29.0800000  0  4G 2G 6G11G 9
  18375949.440    18375953.286     7112841.678 9   2674674.352 7
  16058337.273    16058340.225    -1078664.805 9  -5497738.966 7
  17357260.146    17357262.389    -4659030.788 9  -8160898.547 8
  18578238.609    18578241.235    -5717277.206 8     69669.941 8
 89 11 12 10 40 59.0800000  0  4G 2G 6G11G 9
  18391253.819    18391255.688     7193252.815 9   2737332.426 8
  16049355.016    16049355.867    -1125876.151 9  -5534527.005 8
  17338883.932    17338886.300    -4755598.023 9  -8236145.715 8
  18561767.037    18561768.561    -5803843.492 8      2215.703 8
 89 11 12 10 41 29.0800000  0  4G 2G 6G11G 9
  18406562.311    18406563.374     7273697.614 9   2800016.633 8
  16040404.936    16040406.383    -1172902.849 9  -5571171.195 8
  17320567.783    17320572.070    -4851847.167 9  -8311145.045 8
  18545293.413    18545294.181    -5890417.631 8    -65244.656 8
 89 11 12 10 41 59.0800000  0  4G 2G 6G11G 9
  18421877.128    18421878.921     7354175.437 9   2862726.631 9
  16031491.695    16031492.279    -1219743.362 8  -5607670.284 8
  17302313.536    17302316.247    -4947775.912 9  -8385894.712 8
  18528817.846    18528817.641    -5976998.648 8   -132710.347 8
 89 11 12 10 42 29.0800000  0  4G 2G 6G11G 9
  18437197.427    18437199.521     7434685.383 9   2925461.579 9
  16022614.509    16022614.948    -1266395.815 9  -5644022.844 7
  17284120.270    17284123.518    -5043381.200 8  -8460392.306 8
  18512342.071    18512340.400    -6063585.515 8   -200180.589 8
 89 11 12 10 42 59.0800000  0  4G 2G 6G11G 9
  18452524.598    18452524.760     7515226.663 9   2988221.004 9
  16013772.718    16013772.903    -1312858.776 9  -5680227.738 8
  17265989.023    17265991.822    -5138660.591 8  -8534635.959 7
  18495862.591    18495863.518    -6150177.346 9   -267654.710 9
 89 11 12 10 43 29.0800000  0  4G 2G 6G11G 9
  18467856.918    18467857.323     7595798.747 9   3051004.442 9
  16004966.899    16004967.499    -1359130.050 9  -5716283.274 8
  17247921.645    17247923.062    -5233611.268 9  -8608623.496 8
  18479383.271    18479384.823    -6236772.640 9   -335131.537 9
 89 11 12 10 43 59.0800000  0  4G 2G 6G11G 9
  18483194.709    18483195.577     7676401.385 9   3113811.662 9
  15996198.831    15996199.376    -1405207.991 9  -5752188.163 8
  17229916.477    17229918.139    -5328230.444 9  -8682352.727 8
  18462904.424    18462905.695    -6323370.445 9   -402610.338 8
 89 11 12 10 44 29.0800000  0  4G 2G 6G11G 9
  18498538.510    18498540.590     7757033.894 9   3176642.148 9
  15987467.336    15987468.810    -1451090.984 9  -5787941.141 8
  17211973.221    17211976.381    -5422515.641 9  -8755821.685 9
  18446425.543    18446426.019    -6409969.891 9   -470090.423 8
 89 11 12 10 44 59.0800000  0  4G 2G 6G11G 9
  18513887.936    18513890.077     7837695.211 9   3239495.077 9
  15978773.024    15978774.146    -1496777.142 9  -5823540.727 8
  17194096.326    17194098.447    -5516464.238 9  -8829028.351 8
  18429944.813    18429947.421    -6496569.937 9   -537570.955 8
 89 11 12 10 45 29.0800000  0  4G 2G 6G11G 9
  18529242.822    18529244.091     7918384.355 9   3302369.686 9
  15970118.134    15970119.791    -1542264.957 9  -5858985.779 8
  17176282.699    17176285.295    -5610073.717 9  -8901970.792 9
  18413466.559    18413466.399    -6583169.579 8   -605051.174 9
 89 11 12 10 45 59.0800000  0  4G 2G 6G11G 9
  18544601.992    18544604.194     7999101.395 9   3365266.027 9
  15961500.110    15961500.326    -1587552.426 9  -5894274.719 8
  17158534.704    17158537.525    -5703341.271 9  -8974646.785 7
  18396987.368    18396988.404    -6669767.451 9   -672530.016 8
 89 11 12 10 46 29.0800000  0  4G 2G 6G11G 9
  18559966.731    18559968.978     8079845.105 9   3428183.139 9
  15952921.289    15952921.716    -1632638.015 9  -5929406.334 8
  17140850.962    17140853.982    -5796264.630 9  -9047054.604 7
  18380507.990    18380510.520    -6756362.835 9   -740006.908 9
 89 11 12 10 46 59.0800000  0  4G 2G 6G11G 9
  18575337.378    18575339.452     8160615.193 9   3491120.857 9
  15944379.981    15944380.309    -1677519.524 5  -5964378.924 4
  17123234.884    17123237.645    -5888840.574 9  -9119191.674 9
  18364030.204    18364031.942    -6842953.992 9   -807480.515 8
 89 11 12 10 47 29.0800000  0  4G 2G 6G11G 9
  18590712.940    18590713.917     8241410.990 8   3554078.545 8
  15935879.585    15935878.239    -1722195.348 7  -5999191.244 5
  17105684.952    17105687.500    -5981066.585 9  -9191056.079 9
  18347552.952    18347555.261    -6929540.183 9   -874950.254 9
 89 11 12 10 47 59.0800000  0  4G 2G 6G11G 9
  18606091.064    18606093.914     8322231.851 9   3617055.755 9
  15927416.554    15927416.389    -1766663.644 6  -6033841.868 5
  17088201.867    17088205.211    -6072940.164 9  -9262645.867 9
  18331078.066    18331079.400    -7016120.346 9   -942415.287 9
 89 11 12 10 48 29.0800000  0  4G 2G 6G11G 9
  18621476.041    18621479.069     8403077.038 8   3680052.017 9
  15918993.888    15918995.289    -1810922.525 7  -6068329.298 5
  17070785.756    17070789.159    -6164458.835 9  -9333959.098 9
  18314604.297    18314605.345    -7102692.974 9  -1009874.461 8
 89 11 12 10 48 59.0800000  0  4G 2G 6G11G 9
  18636865.912    18636866.971     8483946.082 8   3743066.824 9
  15910612.178    15910613.281    -1854970.157 8  -6102652.118 5
  17053439.561    17053441.375    -6255619.889 9  -9404993.666 8
  18298130.886    18298132.400    -7189257.219 9  -1077327.087 8
 89 11 12 10 49 29.0800000  0  4G 2G 6G11G 9
  18652259.807    18652261.348     8564838.228 8   3806099.585 9
  15902270.606    15902271.869    -1898804.923 7  -6136809.071 6
  17036160.705    17036163.934    -6346420.993 9  -9475747.760 9
  18281660.894    18281662.138    -7275811.705 9  -1144772.117 9
 89 11 12 10 49 59.0800000  0  4G 2G 6G11G 9
  18667656.277    18667658.212     8645753.254 6   3869150.161 9
  15893969.219    15893970.881    -1942424.733 9  -6170798.530 8
  17018950.472    17018953.086    -6436859.120 9  -9546219.019 9
  18265192.442    18265192.230    -7362355.157 9  -1212208.531 8
 89 11 12 10 50 29.0800000  0  4G 2G 6G11G 9
  18683057.937    18683059.453     8726690.744 4   3932218.119 9
  15885710.998    15885712.336    -1985827.680 9  -6204618.998 8
  17001809.644    17001813.551    -6526931.584 9  -9616405.326 9
  18248725.561    18248726.670    -7448886.367 8  -1279635.419 8
 89 11 12 10 50 59.0800000  0  4G 2G 6G11G 9
  18698463.359    18698467.227     8807649.677 8   3995303.031 7
  15877493.499    15877493.530    -2029011.873 8  -6238269.021 8
  16984740.361    16984742.704    -6616636.105 9  -9686304.936 8
  18232261.383    18232262.479    -7535403.989 9  -1347051.708 8
 89 11 12 10 51 29.0800000  0  4G 2G 6G11G 9
  18713874.271    18713876.348     8888629.551 8   4058404.189 7
  15869317.473    15869317.994    -2071975.381 9  -6271747.063 8
  16967740.541    16967742.184    -6705970.006 9  -9755915.759 7
  18215798.636    18215802.634    -7621906.912 9  -1414456.561 7
 89 11 12 10 51 59.0800000  0  4G 2G 6G11G 9
  18729287.903    18729289.436     8969630.204 9   4121521.608 7
  15861184.153    15861185.085    -2114716.431 9  -6305051.775 9
  16950811.718    16950814.996    -6794930.953 9  -9825235.979 8
  18199342.213    18199343.490    -7708393.743 8  -1481848.851 8
 89 11 12 10 52 29.0800000  0  4G 2G 6G11G 9
  18744705.720    18744706.739     9050651.193 9   4184654.789 8
  15853093.427    15853093.716    -2157233.037 9  -6338181.589 8
  16933953.561    16933956.846    -6883516.527 8  -9894263.664 9
  18182887.258    18182887.524    -7794863.181 8  -1549227.587 7
 89 11 12 10 52 59.0800000  0  4G 2G 6G11G 9
  18760126.501    18760129.952     9131691.507 8   4247803.039 8
  15845046.095    15845046.188    -2199523.526 9  -6371135.217 8
  16917168.983    16917172.781    -6971723.817 9  -9962996.591 8
  18166436.620    18166437.992    -7881314.127 9  -1616591.936 7
 89 11 12 10 53 29.0800000  0  4G 2G 6G11G 9
  18775552.382    18775555.003     9212750.806 8   4310966.015 8
  15837042.249    15837042.832    -2241585.876 9  -6403911.068 8
  16900456.717    16900458.894    -7059550.649 9 -10031433.079 8
  18149989.421    18149989.308    -7967745.496 8  -1683941.062 8
 89 11 12 10 53 59.0800000  0  4G 2G 6G11G 9
  18790981.818    18790984.139     9293828.743 9   4374143.591 8
  15829081.836    15829081.361    -2283418.206 9  -6436507.686 9
  16883816.124    16883818.446    -7146994.351 9 -10099571.032 8
  18133545.690    18133546.550    -8054155.491 8  -1751273.493 7
 89 11 12 10 54 29.0800000  0  4G 2G 6G11G 9
  18806412.586    18806414.128     9374924.227 9   4437334.806 7
  15821165.472    15821165.554    -2325018.807 9  -6468923.734 9
  16867248.758    16867251.874    -7234052.699 8 -10167408.692 9
  18117108.693    18117108.732    -8140543.209 8  -1818588.550 8
 89 11 12 10 54 59.0800000  0  4G 2G 6G11G 9
  18821848.773    18821849.750     9456037.347 9   4500539.825 6
  15813293.125    15813293.436    -2366385.516 9  -6501157.522 8
  16850757.211    16850759.293    -7320723.071 9 -10234944.027 9
  18100673.528    18100672.713    -8226907.264 9  -1885885.196 8
 89 11 12 10 55 29.0800000  0  4G 2G 6G11G 9
  18837286.690    18837289.717     9537166.972 9   4563757.756 5
  15805466.074    15805466.253    -2407516.764 9  -6533207.849 8
  16834338.661    16834341.050    -7407003.213 9 -10302175.290 8
  18084242.349    18084242.985    -8313246.411 9  -1953162.448 8
 89 11 12 10 55 59.0800000  0  4G 2G 6G11G 9
  18852728.798    18852730.191     9618313.484 9   4626988.808 6
  15797683.898    15797683.999    -2448410.218 9  -6565072.876 8
  16817994.700    16817995.731    -7492890.401 9 -10369100.364 8
  18067818.073    18067818.068    -8399558.918 9  -2020418.926 7
 89 11 12 10 56 29.0800000  0  4G 2G 6G11G 9
  18868173.433    18868174.478     9699475.675 9   4690232.096 7
  15789948.062    15789947.956    -2489064.064 9  -6596751.200 9
  16801724.943    16801728.717    -7578382.535 9 -10435717.612 8
  18051399.406    18051400.690    -8485843.743 9  -2087653.827 7
 89 11 12 10 56 59.0800000  0  4G 2G 6G11G 9
  18883620.615    18883622.690     9780653.101 9   4753487.171 8
  15782257.109    15782258.341    -2529476.349 9  -6628241.305 7
  16785532.835    16785535.708    -7663477.216 9 -10502025.117 8
  18034985.367    18034986.577    -8572099.253 9  -2154865.896 7
 89 11 12 10 57 29.0800000  0  4G 2G 6G11G 9
  18899071.342    18899073.476     9861845.029 9   4816753.560 7
  15774612.969    15774614.769    -2569645.378 9  -6659541.847 8
  16769415.977    16769418.991    -7748172.166 9 -10568021.173 9
  18018576.559    18018577.945    -8658324.416 9  -2222054.327 9
 89 11 12 10 57 59.0800000  0  4G 2G 6G11G 9
  18914524.349    18914526.740     9943051.631 9   4880031.381 8
  15767017.366    15767017.373    -2609569.236 9  -6690651.344 8
  16753374.782    16753378.207    -7832464.933 9 -10633703.829 8
  18002174.957    18002175.206    -8744517.751 9  -2289217.937 7
 89 11 12 10 58 29.0800000  0  4G 2G 6G11G 9
  18929979.964    18929982.926    10024272.184 9   4943320.050 9
  15759466.213    15759466.911    -2649245.845 9  -6721568.175 8
  16737411.099    16737414.949    -7916353.249 9 -10699071.330 8
  17985778.513    17985779.725    -8830677.966 9  -2356355.748 8
 89 11 12 10 58 59.0800000  0  4G 2G 6G11G 9
  18945438.628    18945440.523    10105506.238 9   5006619.242 9
  15751963.673    15751964.000    -2688673.159 9  -6752290.753 8
  16721526.098    16721528.251    -7999834.484 9 -10764121.624 8
  17969389.193    17969390.564    -8916803.361 9  -2423466.439 8
 89 11 12 10 59 29.0800000  0  4G 2G 6G11G 9
  18960899.357    18960902.147    10186753.140 8   5069928.419 9
  15744508.794    15744509.450    -2727849.490 9  -6782817.754 8
  16705718.621    16705719.517    -8082906.587 9 -10828853.123 7
  17953007.675    17953009.015    -9002892.577 9  -2490548.925 8
 89 11 12 10 59 59.0800000  0  4G 2G 6G11G 9
  18976362.372    18976364.647    10268012.565 9   5133247.396 9
  15737101.664    15737102.574    -2766772.686 9  -6813147.524 9
  16689988.223    16689990.673    -8165566.863 9 -10893263.717 8
  17936631.904    17936633.743    -9088944.315 9  -2557602.193 8
 89 11 12 11  0 29.0800000  0  4G 2G 6G11G 9
  18991828.990    18991830.355    10349284.138 8   5196575.828 9
  15729743.935    15729743.936    -2805440.843 9  -6843278.561 8
  16674336.882    16674339.770    -8247813.185 9 -10957351.742 9
  17920264.942    17920264.710    -9174956.935 9  -2624624.965 9
 89 11 12 11  0 59.0800000  0  4G 2G 6G11G 9
  19007296.537    19007297.788    10430567.478 9   5259913.412 9
  15722434.519    15722434.998    -2843851.993 8  -6873209.316 7
  16658765.112    16658767.442    -8329643.444 9 -11021115.550 8
  17903903.938    17903905.491    -9260928.998 9  -2691616.167 8
 89 11 12 11  1 29.0800000  0  4G 2G 6G11G 9
  19022764.840    19022766.918    10511862.250 8   5323259.909 9
  15715173.967    15715173.549    -2882003.772 8  -6902937.967 8
  16643273.417    16643275.904    -8411054.857 9 -11084553.012 8
  17887552.135    17887553.318    -9346858.913 9  -2758574.523 9
 89 11 12 11  1 59.0800000  0  4G 2G 6G11G 9
  19038237.407    19038240.225    10593167.599 8   5386614.661 9
  15707964.508    15707965.369    -2919894.596 8  -6932463.279 8
  16627861.736    16627862.864    -8492045.494 9 -11147662.603 8
  17871208.619    17871210.659    -9432745.249 8  -2825498.878 9
 89 11 12 11  2 29.0800000  0  4G 2G 6G11G 9
  19053711.493    19053713.996    10674483.020 8   5449977.278 9
  15700803.462    15700804.285    -2957522.684 9  -6961783.859 8
  16612529.537    16612531.154    -8572613.407 9 -11210442.785 9
  17854874.440    17854874.938    -9518586.791 9  -2892388.338 9
 89 11 12 11  2 59.0800000  0  4G 2G 6G11G 9
  19069186.713    19069189.895    10755808.800 9   5513347.960 9
  15693693.267    15693694.509    -2994885.819 9  -6990897.986 8
  16597279.070    16597280.953    -8652756.088 9 -11272891.597 8
  17838547.373    17838549.186    -9604381.798 8  -2959241.582 9
 89 11 12 11  3 29.0800000  0  4G 2G 6G11G 9
  19084665.110    19084668.886    10837144.299 8   5576726.229 9
  15686633.679    15686634.906    -3031981.994 9  -7019804.088 9
  16582109.812    16582112.388    -8732471.426 9 -11335007.431 7
  17822229.909    17822232.229    -9690128.646 8  -3026057.288 8
 89 11 12 11  3 59.0800000  0  4G 2G 6G11G 9
  19100144.244    19100146.787    10918489.067 7   5640111.692 9
  15679626.612    15679627.157    -3068809.073 9  -7048500.508 8
  16567022.839    16567023.916    -8811756.868 9 -11396788.297 8
  17805921.690    17805924.098    -9775825.822 9  -3092834.265 8
 89 11 12 11  4 29.0800000  0  4G 2G 6G11G 9
  19115626.218    19115627.512    10999842.819 8   5703504.145 8
  15672670.111    15672670.080    -3105365.243 9  -7076985.840 7
  16552016.497    16552018.613    -8890610.377 9 -11458232.582 8
  17789624.653    17789625.527    -9861471.840 9  -3159571.385 8
 89 11 12 11  4 59.0800000  0  4G 2G 6G11G 9
  19131107.220    19131110.982    11081205.405 7   5766903.486 8
  15665765.808    15665765.415    -3141648.264 8  -7105258.315 7
  16537093.768    16537096.127    -8969029.387 9 -11519338.282 9
  17773336.583    17773338.724    -9947064.911 9  -3226267.241 9
 89 11 12 11  5 29.0800000  0  4G 2G 6G11G 9
  19146592.640    19146595.485    11162576.121 7   5830309.153 8
  15658913.020    15658913.556    -3177656.540 9  -7133316.712 8
  16522254.808    16522256.190    -9047012.606 9 -11580104.409 8
  17757059.827    17757059.791   -10032603.821 9  -3292920.897 7
 89 11 12 11  5 59.0800000  0  4G 2G 6G11G 9
  19162078.932    19162080.120    11243954.204 7   5893720.610 7
  15652113.201    15652114.768    -3213388.197 9  -7161159.562 8
  16507497.846    16507499.928    -9124557.942 9 -11640529.324 8
  17740792.674    17740793.513   -10118087.238 9  -3359531.349 8
 89 11 12 11  6 29.0800000  0  4G 2G 6G11G 9
  19177566.391    19177566.820    11325339.540 7   5957137.684 7
  15645367.633    15645368.073    -3248840.968 8  -7188785.091 8
  16492825.006    16492826.884    -9201662.751 8 -11700610.987 8
  17724536.038    17724538.279   -10203513.264 9  -3426097.064 8
 89 11 12 11  6 59.0800000  0  4G 2G 6G11G 9
  19193053.236    19193055.754    11406731.367 4   6020559.825 6
  15638673.377    15638676.317    -3284012.872 8  -7216191.772 8
  16478236.784    16478238.061    -9278325.241 9 -11760347.972 7
  17708292.178    17708293.117   -10288880.238 8  -3492616.749 7
 89 11 12 11  7 29.0800000  0  4G 2G 6G11G 9
  19208542.655    19208545.992    11488129.971 4   6083987.261 6
  15632034.607    15632035.736    -3318901.770 8  -7243377.924 8
  16463733.380    16463735.284    -9354543.032 9 -11819738.437 8
  17692057.870    17692060.027   -10374186.375 9  -3559089.024 8
 89 11 12 11  7 59.0800000  0  4G 2G 6G11G 9
  19224035.418    19224036.182    11569534.433 5   6147419.259 3
  15625450.115    15625450.575    -3353505.716 9  -7270342.033 7
  16449314.372    16449317.576    -9430314.032 9 -11878780.773 8
  17675837.690    17675838.455   -10459430.093 9  -3625512.693 8
 89 11 12 11  8 29.0800000  0  4G 2G 6G11G 9
  19239527.027    19239530.757    11650945.274 2   6210856.254 4
  15618919.499    15618920.570    -3387822.431 8  -7297082.320 8
  16434981.019    16434983.624    -9505635.970 9 -11937473.159 8
  17659627.719    17659629.776   -10544609.676 8  -3691886.383 8
 89 11 12 11  8 59.0800000  0  4G 2G 6G11G 9
  19255018.472    19255027.229    11732361.630 1   6274297.517 2
  15612444.535    15612445.024    -3421850.404 9  -7323597.601 9
  16420733.700    16420734.853    -9580507.200 9 -11995814.359 8
  17643432.373    17643432.491   -10629723.694 8  -3758208.941 8
 89 11 12 11  9 29.0800000  0  4G 2G 6G11G 9
                                 -20149496.780 1   6485837.800 1
  15606024.125    15606024.646    -3455587.485 8  -7349886.228 9
  16406572.746    16406574.885    -9654925.565 9 -12053802.686 7
  17627247.086    17627246.619   -10714770.458 9  -3824479.131 8
 89 11 12 11  9 59.0800000  0  4G 2G 6G11G 9
                                 -20324272.406 1   6713837.800 1
  15599660.567    15599661.155    -3489031.439 9  -7375946.458 7
  16392498.050    16392499.279    -9728889.070 9 -12111436.561 8
  17611077.098    17611077.652   -10799748.160 9  -3890695.521 7
 89 11 12 11 10 29.0800000  0  4G 2G 6G11G 9
                                 -20346563.207 1   6941837.800 1
  15593353.021    15593353.139    -3522180.158 8  -7401776.625 8
  16378509.088    16378512.491    -9802395.589 9 -12168714.359 8
  17594918.561    17594920.364   -10884654.978 9  -3956856.663 9
 89 11 12 11 10 59.0800000  0  4G 2G 6G11G 9
                                 -20515171.904 1   7169837.800 1
  15587100.696    15587102.465    -3555031.837 9  -7427375.334 8
  16364609.308    16364611.925    -9875443.229 9 -12225634.569 9
  17578776.313    17578776.901   -10969489.401 9  -4022961.396 7
 89 11 12 11 11 29.0800000  0  4G 2G 6G11G 9
                                 -20729409.160 1   7397837.800 1
  15580907.071    15580907.277    -3587584.331 9  -7452740.917 8
  16350796.985    16350797.817    -9948030.146 9 -12282195.776 8
  17562647.139    17562647.236   -11054249.755 9  -4089008.403 8
 89 11 12 11 11 59.0800000  0  4G 2G 6G11G 9
                                 -20898705.708 1   7625837.800 1
  15574768.678    15574769.558    -3619835.908 9  -7477872.005 8
  16337071.913    16337074.767   -10020154.602 9 -12338396.634 7
  17546531.626    17546532.709   -11138934.215 9  -4154996.290 8
 89 11 12 11 12 29.0800000  0  4G 2G 6G11G 9
                                 -20824834.245 1   7853837.800 1
  15568689.525    15568690.076    -3651784.520 9  -7502767.014 7
  16323434.803    16323437.831   -10091814.399 9 -12394235.427 8
  17530430.755    17530432.061   -11223541.372 9  -4220923.922 9
 89 11 12 11 12 59.0800000  0  4G 2G 6G11G 9
                                 -20753213.366 1   8081837.800 1
  15562668.056    15562667.917    -3683428.130 9  -7527424.370 9
  16309885.778    16309889.853   -10163007.885 9 -12449710.853 8
  17514346.539    17514346.961   -11308069.210 9  -4286789.762 9
 89 11 12 11 13 29.0800000  0  4G 2G 6G11G 9
                                 -21549964.439 1   8309837.800 1
  15556704.460    15556705.224    -3714764.428 8  -7551842.266 8
  16296428.583    16296430.958   -10233732.878 9 -12504821.211 8
  17498276.921    17498277.643   -11392515.869 9  -4352592.326 7
 89 11 12 11 13 59.0800000  0  4G 2G 6G11G 9
                                 -21747738.312 1   8537837.800 1
  15550800.053    15550800.551    -3745791.651 9  -7576019.325 8
  16283059.936    16283061.456   -10303987.664 9 -12559565.183 8
  17482223.072    17482223.651   -11476879.629 8  -4418330.301 9
 89 11 12 11 14 29.0800000  0  4G 2G 6G11G 9
                                 -21674576.227 1   8765837.800 1
  15544955.622    15544956.431    -3776507.630 9  -7599953.844 7
  16269780.785    16269783.465   -10373770.549 9 -12613941.453 8
  17466184.854    17466185.905   -11561158.786 9  -4484002.343 9
 89 11 12 11 14 59.0800000  0  4G 2G 6G11G 9
                                 -21605448.419 1   8993837.800 1
  15539170.671    15539170.604    -3806910.307 9  -7623644.244 9
  16256591.100    16256594.673   -10443079.210 9 -12667948.181 9
  17450163.592    17450164.614   -11645351.393 9  -4549606.950 8
 89 11 12 11 15 29.0800000  0  4G 2G 6G11G 9
                                 -21538617.913 1   9221837.800 1
  15533444.987    15533444.651    -3836997.843 9  -7647089.077 8
  16243493.233    16243495.291   -10511912.334 9 -12721584.366 8
  17434159.016    17434159.202   -11729456.027 9  -4615143.001 8
 89 11 12 11 15 59.0800000  0  4G 2G 6G11G 9
                                 -22380447.914 1   9449837.800 1
  15527779.397    15527780.406    -3866768.208 9  -7670286.755 8
  16230485.564    16230487.573   -10580267.929 9 -12774848.441 9
  17418171.485    17418172.329   -11813470.597 9  -4680608.875 8
 89 11 12 11 16 29.0800000  0  4G 2G 6G11G 9
                                 -22587086.952 1   9677837.800 1
  15522176.287    15522175.019    -3896219.363 9  -7693235.701 8
  16217569.161    16217570.355   -10648144.249 9 -12827739.060 8
  17402201.664    17402202.609   -11897393.371 9  -4746003.236 8
 89 11 12 11 16 59.0800000  0  4G 2G 6G11G 9
                                 -22514434.790 1   9905837.800 1
  15516631.738    15516632.851    -3925349.221 8  -7715934.300 9
  16204743.757    16204745.923   -10715539.495 9 -12880254.820 9
  17386248.576    17386249.980   -11981222.367 9  -4811324.502 9
 89 11 12 11 17 29.0800000  0  4G 2G 6G11G 9
                                 -22957180.039 1  10133837.800 1
  15511151.068    15511150.820    -3954155.781 9  -7738380.971 8
  16192011.186    16192012.897   -10782451.916 9 -12932394.348 8
  17370314.691    17370315.574   -12064955.724 8  -4876571.228 9
 89 11 12 11 17 59.0800000  0  4G 2G 6G11G 9
                                 -22881263.072 1  10361837.800 1
  15505730.229    15505730.755    -3982636.646 9  -7760573.850 8
  16179370.550    16179373.047   -10848879.412 9 -12984156.022 9
  17354400.012    17354401.009   -12148591.382 9  -4941741.876 9
 89 11 12 11 18 29.0800000  0  4G 2G 6G11G 9
                                 -23326455.689 1  10589837.800 1
  15500373.034    15500373.266    -4010790.226 9  -7782511.704 8
  16166822.539    16166824.708   -10914820.739 9 -13035538.859 9
  17338502.739    17338503.303   -12232127.793 9  -5006835.165 9
 89 11 12 11 18 59.0800000  0  4G 2G 6G11G 9
                                 -23455259.890 1  10817837.800 1
  15495078.266    15495079.593    -4038614.335 9  -7804192.817 8
  16154366.491    16154368.907   -10980274.095 9 -13086541.455 8
  17322625.700    17322627.873   -12315563.025 8  -5071849.610 8
 89 11 12 11 19 29.0800000  0  4G 2G 6G11G 9
                                 -23377230.113 1  11045837.800 1
  15489846.975    15489846.826    -4066107.040 9  -7825615.708 8
  16142005.124    16142005.630   -11045237.906 9 -13137162.586 8
  17306768.507    17306770.181   -12398895.020 9  -5136783.581 8
 89 11 12 11 19 59.0800000  0  4G 2G 6G11G 9
                                 -23817560.256 1  11273837.800 1
  15484678.572    15484678.890    -4093266.228 9  -7846778.713 8
  16129735.806    16129737.572   -11109710.500 9 -13187400.956 9
  17290930.330    17290932.282   -12482122.004 9  -5201635.774 9
 89 11 12 11 20 29.0800000  0  4G 2G 6G11G 9
                                 -23989697.129 1  11501837.800 1
  15479573.831    15479574.401    -4120090.129 8  -7867680.446 8
  16117561.700    16117563.250   -11173690.232 9 -13237255.295 7
  17275112.724    17275114.556   -12565242.091 9  -5266404.648 9
 89 11 12 11 20 59.0800000  0  4G 2G 6G11G 9
                                 -23915249.916 1  11729837.800 1
  15474534.228    15474535.155    -4146576.367 9  -7888319.076 7
  16105480.282    16105481.511   -11237175.421 9 -13286724.258 8
  17259318.076    17259317.123   -12648253.288 9  -5331088.668 8
 89 11 12 11 21 29.0800000  0  4G 2G 6G11G 9
                                 -24395692.753 1  11957837.800 1
  15469558.094    15469557.967    -4172723.062 9  -7908693.125 8
  16093493.393    16093495.425   -11300164.493 9 -13335806.619 8
  17243542.357    17243543.017   -12731153.506 8  -5395686.233 8
 89 11 12 11 21 59.0800000  0  4G 2G 6G11G 9
                                 -24547815.692 1  12185837.800 1
  15464646.587    15464648.470    -4198528.345 9  -7928801.145 8
  16081602.444    16081602.272   -11362656.013 9 -13384501.285 7
  17227787.174    17227788.951   -12813941.142 9  -5460196.063 9
 89 11 12 11 22 29.0800000  0  4G 2G 6G11G 9
                                 -24472570.216 1  12413837.800 1
  15459803.028    15459802.924    -4223989.990 9  -7948641.383 8
  16069804.807    16069807.847   -11424648.173 9 -13432806.862 8
  17212056.040    17212055.531   -12896613.949 9  -5524616.404 8
 89 11 12 11 22 59.0800000  0  4G 2G 6G11G 9
                                 -24895542.157 1  12641837.800 1
  15455024.245    15455023.219    -4249106.188 9  -7968212.443 8
  16058103.808    16058105.122   -11486139.678 9 -13480722.307 8
  17196346.153    17196345.920   -12979169.978 9  -5588945.769 8
 89 11 12 11 23 29.0800000  0  4G 2G 6G11G 9
                                 -24820951.348 1  12869837.800 1
  15450308.621    15450309.719    -4273874.852 9  -7987512.702 8
  16046497.269    16046499.330   -11547128.970 9 -13528246.418 8
  17180658.657    17180660.198   -13061607.398 9  -5653182.691 8
 89 11 12 11 23 59.0800000  0  4G 2G 6G11G 9
                                 -25261979.482 1  13097837.800 1
  15445661.843    15445663.350    -4298293.706 9  -8006540.382 8
  16034986.885    16034990.746   -11607614.343 9 -13575377.849 8
  17164994.698    17164995.333   -13143923.783 9  -5717325.319 9
 89 11 12 11 24 29.0800000  0  4G 2G 6G11G 9
                                 -25187459.800 1  13325837.800 1
  15441081.193    15441083.412    -4322361.074 9  -8025294.161 8
  16023573.315    16023575.690   -11667594.573 9 -13622115.674 8
  17149353.286    17149354.919   -13226117.576 9  -5781372.427 7
 89 11 12 11 24 59.0800000  0  4G 2G 6G11G 9
                                 -25642060.258 1  13553837.800 1
  15436569.565    15436571.325    -4346075.107 8  -8043772.636 8
  16012255.466    16012258.646   -11727068.660 9 -13668459.101 7
  17133736.453    17133737.128   -13308186.615 9  -5845322.310 8
 89 11 12 11 25 29.0800000  0  4G 2G 6G11G 9
                                 -25566855.055 1  13781837.800 1
  15432125.067    15432124.634    -4369433.630 8  -8061974.092 8
  16001035.015    16001037.090   -11786034.699 9 -13714406.658 8
  17118143.375    17118143.400   -13390129.264 8  -5909173.711 9
 89 11 12 11 25 59.0800000  0  4G 2G 6G11G 9
                                 -25991454.364 1  14009837.800 1
  15427748.338    15427750.301    -4392434.397 9  -8079896.748 8
  15989910.789    15989911.988   -11844490.785 9 -13759956.825 7
  17102574.249    17102574.478   -13471942.722 9  -5972924.411 8
 89 11 12 11 26 29.0800000  0  4G 2G 6G11G 9
                                 -26127081.460 1  14237837.800 1
  15423440.251    15423440.169    -4415075.658 9  -8097539.291 8
  15978884.286    15978887.189   -11902436.279 9 -13805109.152 8
  17087030.574    17087030.732   -13553625.244 9  -6036573.127 7
 89 11 12 11 26 59.0800000  0  4G 2G 6G11G 9
                                 -26331701.661 1  14465837.800 1
  15419199.550    15419200.482    -4437354.781 8  -8114899.646 7
  15967955.422    15967958.636   -11959869.175 9 -13849862.044 7
  17071511.775    17071512.954   -13635174.339 9  -6100117.872 7
 89 11 12 11 27 29.0800000  0  4G 2G 6G11G 9
                                 -26257045.620 1  14693837.800 1
  15415029.779    15415029.760    -4459270.316 9  -8131976.689 9
  15957124.327    15957127.057   -12016788.516 9 -13894214.765 8
  17056020.060    17056020.877   -13716588.204 9  -6163557.228 8
 89 11 12 11 27 59.0800000  0  4G 2G 6G11G 9
                                 -26681218.658 1  14921837.800 1
  15410929.622    15410930.212    -4480820.617 9  -8148769.129 8
  15946389.633    15946390.322   -12073193.319 3 -13938166.548 2
  17040554.071    17040553.620   -13797865.355 8  -6226890.056 7
 89 11 12 11 28 29.0800000  0  4G 2G 6G11G 9
                                 -26604663.639 1  15149837.800 1
  15406897.906    15406899.032    -4502003.171 9  -8165275.001 8
  15935758.194    15935757.282   -12129081.592 3 -13981715.824 1
  17025113.703    17025113.487   -13879002.959 9  -6290114.140 8
 89 11 12 11 28 59.0800000  0  4G 2G 6G11G 9
                                 -27041175.275 1  15377837.800 1
  15402937.647    15402938.956    -4522816.084 9  -8181492.864 8
  15925218.430    15925222.217   -12184452.173 2 -14024861.722 3
  17009700.258    17009700.680   -13959999.067 9  -6353227.972 8
 89 11 12 11 29 29.0800000  0  4G 2G 6G11G 9
                                 -27235624.622 1  15605837.800 1
  15399047.601    15399047.727    -4543257.433 9  -8197421.190 8
  15914780.985    15914782.382   -12239303.988 9 -14067603.394 8
  16994314.099    16994316.451   -14040851.587 9  -6416229.925 8
 89 11 12 11 29 59.0800000  0  4G 2G 6G11G 9
                                 -27406334.818 1  15833837.800 1
  15395229.609    15395230.282    -4563325.415 9  -8213058.577 7
  15904441.515    15904444.003   -12293635.796 5 -14109939.845 5
  16978956.304    16978957.286   -14121558.547 9  -6479118.444 8
 89 11 12 11 30 29.0800000  0  4G 2G 6G11G 9
                                 -27332485.560 1  16061837.800 1
  15391481.621    15391481.367    -4583017.969 9  -8228403.436 8
  15894202.411    15894204.637   -12347446.299 5 -14151870.077 4
  16963626.112    16963627.008   -14202117.782 9  -6541891.872 8
 89 11 12 11 30 59.0800000  0  4G 2G 6G11G 9
                                 -27781575.551 1  16289837.800 1
  15387806.312    15387806.926    -4602333.161 9  -8243454.230 8
  15884062.426    15884063.136   -12400734.720 6 -14193393.516 6
  16948325.567    16948325.726   -14282527.181 9  -6604548.542 8
 89 11 12 11 31 29.0800000  0  4G 2G 6G11G 9
                                 -27909993.802 1  16517837.800 1
  15384202.572    15384202.544    -4621269.128 9  -8258209.533 8
  15874021.185    15874023.040   -12453499.637 9 -14234509.031 7
  16933052.760    16933054.034   -14362784.473 9  -6667086.666 8
 89 11 12 11 31 59.0800000  0  4G 2G 6G11G 9
                                 -28075755.382 1  16745837.800 1
  15380671.563    15380671.763    -4639823.716 9  -8272667.663 7
  15864078.683    15864080.774   -12505739.831 6 -14275215.649 6
  16917809.097    16917811.579   -14442887.468 9  -6729504.565 7
 89 11 12 11 32 29.0800000  0  4G 2G 6G11G 9
                                 -28221595.167 1  16973837.800 1
  15377213.154    15377214.598    -4657995.169 9  -8286827.244 7
  15854239.239    15854240.901   -12557454.090 9 -14315512.456 9
  16902597.087    16902597.116   -14522834.115 9  -6791800.643 8
 89 11 12 11 32 59.0800000  0  4G 2G 6G11G 9
                                 -28404804.596 1  17201837.800 1
  15373828.533    15373828.237    -4675781.242 9  -8300686.517 7
  15844498.160    15844499.416   -12608641.206 6 -14355398.510 5
  16887412.669    16887413.305   -14602621.689 9  -6853972.773 8
 89 11 12 11 33 29.0800000  0  4G 2G 6G11G 9
                                 -28588840.041 1  17429837.800 1
  15370517.788    15370518.276    -4693180.267 9  -8314244.208 8
  15834857.753    15834861.066   -12659300.230 9 -14394873.059 8
  16872260.874    16872262.029   -14682248.517 9  -6916019.635 8
 89 11 12 11 33 59.0800000  0  4G 2G 6G11G 9
                                 -28812926.983 1  17657837.800 1
  15367281.375    15367281.742    -4710190.519 9  -8327498.938 6
  15825317.650    15825321.253   -12709430.374 5 -14433935.499 6
  16857138.537    16857138.738   -14761712.558 9  -6977939.646 9
 89 11 12 11 34 29.0800000  0  4G 2G 6G11G 9
                                 -28947664.558 1  17885837.800 1
  15364119.217    15364119.939    -4726809.923 8  -8340449.118 8
  15815879.080    15815882.810   -12759030.414 8 -14472584.865 8
  16842048.243    16842049.890   -14841011.349 9  -7039730.911 9
 89 11 12 11 34 59.0800000  0  4G 2G 6G11G 9
                                 -29108056.952 1  18113837.800 1
  15361030.846    15361030.987    -4743036.483 8  -8353093.193 8
  15806542.284    15806544.242   -12808099.277 7 -14510820.329 7
  16826990.970    16826991.440   -14920142.872 9  -7101391.818 8
 89 11 12 11 35 29.0800000  0  4G 2G 6G11G 9
                                 -29352945.419 1  18341837.800 1
  15358018.175    15358017.863    -4758868.382 9  -8365429.741 8
  15797306.253    15797309.004   -12856636.117 9 -14548641.223 8
  16811964.946    16811965.343   -14999104.675 9  -7162920.478 9
 89 11 12 11 35 59.0800000  0  4G 2G 6G11G 9
                                 -29470738.455 1  18569837.800 1
  15355080.105    15355082.240    -4774303.594 9  -8377457.180 8
  15788172.014    15788173.432   -12904639.928 9 -14586046.778 8
  16796970.983    16796972.801   -15077894.538 9  -7224315.164 7
 89 11 12 11 36 29.0800000  0  4G 2G 6G11G 9
                                 -29671319.549 1  18797837.800 1
  15352219.694    15352220.375    -4789340.164 8  -8389174.012 8
  15779138.305    15779140.665   -12952109.526 9 -14623036.072 8
  16782011.047    16782011.445   -15156510.053 9  -7285574.012 8
 89 11 12 11 36 59.0800000  0  4G 2G 6G11G 9
                                 -29597713.460 1  19025837.800 1
  15349434.166    15349436.116    -4803976.291 8  -8400578.785 8
  15770206.520    15770208.509   -12999043.947 9 -14659608.339 8
  16767084.939    16767084.546   -15234948.922 9  -7346695.209 8
 89 11 12 11 37 29.0800000  0  4G 2G 6G11G 9
                                 -30063347.215 1  19253837.800 1
  15346725.312    15346726.297    -4818209.726 8  -8411669.798 7
  15761377.542    15761379.327   -13045442.223 9 -14695762.829 7
  16752192.544    16752193.379   -15313208.562 9  -7407676.744 8
 89 11 12 11 37 59.0800000  0  4G 2G 6G11G 9
                                 -30178877.979 1  19481837.800 1
  15344093.438    15344094.414    -4832039.499 9  -8422446.221 7
  15752650.317    15752652.604   -13091304.436 9 -14731499.603 8
  16737334.087    16737336.091   -15391287.724 8  -7468517.610 9
 89 11 12 11 38 29.0800000  0  4G 2G 6G11G 9
                                 -30376985.563 3  19709837.800 1
  15341540.602    15341540.507    -4845463.465 9  -8432906.437 8
  15744025.215    15744027.225   -13136629.251 9 -14766817.603 8
  16722511.702    16722512.348   -15469183.779 9  -7529215.801 8
 89 11 12 11 38 59.0800000  0  4G 2G 6G11G 9
                                 -30767897.830 1  19937837.800 1
  15339061.848    15339063.816    -4858479.613 8  -8443048.899 7
  15735502.197    15735505.475   -13181415.778 8 -14801716.194 8
  16707724.066    16707724.598   -15546894.218 9  -7589769.388 8
 89 11 12 11 39 29.0800000  0  4G 2G 6G11G 9
                                 -30946101.857 1  20165837.800 1
  15336663.978    15336664.597    -4871086.010 8  -8452872.085 8
  15727082.992    15727084.850   -13225662.576 9 -14836194.202 8
  16692971.531    16692972.300   -15624416.658 9  -7650176.476 9
 89 11 12 11 39 59.0800000  0  4G 2G 6G11G 9
                                 -31098650.855 1  20393837.800 1
  15334342.417    15334344.226    -4883280.737 8  -8462374.468 9
  15718765.108    15718767.623   -13269369.202 9 -14870251.281 8
  16678256.223    16678258.065   -15701748.807 8  -7710435.266 8
 89 11 12 11 40 29.0800000  0  4G 2G 6G11G 9
                                 -31020563.250 1  20621837.800 1
  15332102.075    15332102.869    -4895062.496 9  -8471555.058 8
  15710552.239    15710553.281   -13312535.404 9 -14903887.277 8
  16663576.680    16663576.891   -15778888.779 9  -7770544.317 8
 89 11 12 11 40 59.0800000  0  4G 2G 6G11G 9
                                 -31494883.590 1  20849837.800 1
  15329938.991    15329939.437    -4906429.168 8  -8480412.204 8
  15702438.836    15702443.306   -13355160.272 8 -14937101.456 8
  16648933.069    16648936.046   -15855833.816 9  -7830501.475 8
 89 11 12 11 41 29.0800000  0  4G 2G 6G11G 9
                                 -31642617.919 1  21077837.800 1
  15327853.377    15327855.917    -4917378.756 8  -8488944.347 8
  15694431.293    15694434.553   -13397242.651 8 -14969892.901 8
  16634329.348    16634330.684   -15932581.501 9  -7890304.860 8
 89 11 12 11 41 59.0800000  0  4G 2G 6G11G 9
                                 -31737285.162 1  21305837.800 1
  15325851.654    15325851.679    -4927909.558 9  -8497150.174 8
  15686526.741    15686530.551   -13438782.279 9 -15002261.435 8
  16619763.358    16619763.120   -16009129.528 9  -7949952.658 8
 89 11 12 11 42 29.0800000  0  4G 2G 6G11G 9
                                 -31659288.664 1  21533837.800 1
  15323926.999    15323927.653    -4938019.968 9  -8505028.421 8
  15678726.173    15678727.357   -13479778.370 9 -15034206.414 8
  16605233.890    16605236.524   -16085475.771 9  -8009443.225 8
 89 11 12 11 42 59.0800000  0  4G 2G 6G11G 9
                                 -32145067.140 1  21761837.800 1
  15322083.701    15322083.971    -4947708.151 9  -8512577.672 8
  15671028.726    15671030.295   -13520230.301 9 -15065727.415 8
  16590745.606    16590745.369   -16161618.023 9  -8068774.855 7
 89 11 12 11 43 29.0800000  0  4G 2G 6G11G 9
                                 -32070361.950 1  21989837.800 1
  15320320.661    15320321.985    -4956972.327 9  -8519796.494 7
  15663433.902    15663436.143   -13560137.477 9 -15096823.902 8
  16576296.093    16576296.157   -16237553.511 9  -8127945.351 8
 89 11 12 11 43 59.0800000  0  4G 2G 6G11G 9
                                 -31999223.448 1  22217837.800 1
  15318638.104    15318639.175    -4965810.866 9  -8526683.657 8
  15655943.348    15655945.832   -13599499.493 8 -15127495.567 8
  16561885.758    16561887.036   -16313280.330 9  -8186953.242 8
 89 11 12 11 44 29.0800000  0  4G 2G 6G11G 9
                                 -32589305.709 1  22445837.800 1
  15317037.000    15317038.451    -4974221.925 9  -8533237.737 8
  15648558.235    15648558.483   -13638315.512 8 -15157741.799 8
  16547515.553    16547514.792   -16388795.746 9  -8245796.409 9
 89 11 12 11 44 59.0800000  0  4G 2G 6G11G 9
                                 -32518067.558 1  22673837.800 1
  15315518.582    15315519.486    -4982203.509 8  -8539457.149 8
  15641275.718    15641276.886   -13676584.840 9 -15187562.052 8
  16533186.173    16533185.770   -16464097.332 9  -8304472.953 8
 89 11 12 11 45 29.0800000  0  4G 2G 6G11G 9
                                 -32953543.218 1  22901837.800 1
  15314081.985    15314081.939    -4989753.972 7  -8545340.630 7
  15634096.695    15634098.084   -13714306.700 9 -15216955.689 8
  16518897.079    16518897.371   -16539182.661 9  -8362981.004 8
 89 11 12 11 45 59.0800000  0  4G 2G 6G11G 9
                                 -33060982.658 1  23129837.800 1
  15312727.279    15312727.766    -4996871.852 8  -8550887.043 8
  15627022.911    15627023.963   -13751481.307 8 -15245922.894 7
  16504650.455    16504651.309   -16614049.503 8  -8421318.787 8
 89 11 12 11 46 29.0800000  0  4G13G 6G11G 9
                                 -33469684.663 1  23357837.800 1
  15311455.614    15311454.989    -5003554.978 8  -8556094.678 8
  15620052.777    15620055.246   -13788107.622 9 -15274462.875 8
  16490445.850    16490446.132   -16688695.165 9  -8479484.216 8
 89 11 12 11 46 59.0800000  0  4G13G 6G11G 9
                                 -33634973.222 1  23585837.800 1
  15310267.283    15310267.822    -5009801.715 7  -8560962.247 8
  15613187.480    15613189.434   -13824185.213 9 -15302575.268 8
  16476284.971    16476285.373   -16763117.218 9  -8537475.420 9
 89 11 12 11 47 29.0800000  0  4G13G 6G11G 9
                                 -33799803.445 1  23813837.800 1
  15309161.327    15309161.768    -5015610.693 9  -8565488.736 9
  15606425.483    15606428.495   -13859713.959 8 -15330259.999 7
  16462164.756    16462165.377   -16837313.289 9  -8595290.542 8
 89 11 12 11 47 59.0800000  0  4G13G 6G11G 9
                                 -33909644.649 9  24041837.800 1
  15308139.353    15308140.562    -5020980.103 8  -8569672.694 7
  15599769.300    15599772.113   -13894693.364 8 -15357516.650 8
  16448090.757    16448090.676   -16911281.263 9  -8652927.910 8
 89 11 12 11 48 29.0800000  0  4G13G 6G11G 9
  18216366.844    18216369.336   -34018997.260 9  43105432.053 8
  15307203.085    15307203.038    -5025908.222 8  -8573512.771 7
  15593217.997    15593220.593   -13929122.927 9 -15384344.872 8
  16434058.200    16434059.160   -16985018.456 9  -8710385.461 8
 89 11 12 11 48 59.0800000  0  4G13G 6G11G 9
  18195603.586    18195605.744   -34128107.462 9  43020411.108 8
  15306349.577    15306349.551    -5030393.597 8  -8577007.892 8
  15586770.805    15586772.269   -13963002.495 9 -15410744.515 8
  16420070.246    16420071.059   -17058522.525 9  -8767661.342 8
 89 11 12 11 49 29.0800000  0  4G13G 6G11G 9
  18174887.152    18174888.855   -34236973.384 9  42935580.524 9
  15305579.002    15305580.797    -5034434.601 9  -8580156.720 8
  15580428.954    15580431.799   -13996331.854 8 -15436715.437 8
  16406127.659    16406128.666   -17131791.046 9  -8824753.692 8
 89 11 12 11 49 59.0800000  0  4G13G 6G11G 9
  18154216.800    18154219.573   -34345592.706 9  42850942.098 8
  15304895.162    15304895.201    -5038029.305 9  -8582957.804 8
  15574192.222    15574193.502   -14029110.272 9 -15462257.053 8
  16392231.483    16392230.736   -17204821.476 9  -8881660.513 8
 89 11 12 11 50 29.0800000  0  4G13G 6G11G 9
  18133594.932    18133597.357   -34453963.064 9  42766497.676 7
  15304294.906    15304296.837    -5041176.212 8  -8585409.934 7
  15568059.126    15568061.004   -14061337.522 9 -15487369.189 8
  16378378.404    16378380.017   -17277611.380 9  -8938379.922 8
 89 11 12 11 50 59.0800000  0  4G13G 6G11G 9
  18113020.839    18113023.346   -34562081.794 8  42682249.342 8
  15303782.992    15303783.739    -5043873.813 9  -8587511.967 8
  15562031.251    15562033.304   -14093013.518 8 -15512051.765 7
  16364573.132    16364573.867   -17350158.155 9  -8994909.863 8
 89 11 12 11 51 29.0800000  0  4G13G 6G11G 9
  18092494.674    18092497.628   -34669946.264 9  42598199.137 8
  15303356.460    15303356.080    -5046120.148 8  -8589262.346 7
  15556107.166    15556109.950   -14124137.484 8 -15536304.188 9
  16350815.878    16350815.878   -17422458.987 9  -9051248.160 8
 89 11 12 11 51 59.0800000  0  4G13G 6G11G 9
  18072018.225    18072019.836   -34777554.108 9  42514348.899 8
  15303015.971    15303016.602    -5047913.991 9  -8590660.162 7
  15550290.586    15550292.753   -14154709.641 9 -15560126.631 8
  16337103.966    16337104.316   -17494511.836 9  -9107393.233 9
 89 11 12 11 52 29.0800000  0  4G13G 6G11G 9
  18051590.269    18051592.899   -34884902.877 9  42430700.500 8
  15302758.728    15302760.843    -5049253.353 8  -8591703.816 7
  15544577.799    15544578.763   -14184729.539 9 -15583518.748 9
  16323440.860    16323441.486   -17566313.851 9  -9163342.836 9
 89 11 12 11 52 59.0800000  0  4G13G 6G11G 9
  18031212.381    18031214.192   -34991990.829 9  42347255.339 7
  15302591.958    15302591.796    -5050136.933 8  -8592392.317 8
  15538969.840    15538973.189   -14214196.968 8 -15606480.373 9
  16309823.520    16309826.489   -17637862.851 9  -9219095.284 9
 89 11 12 11 53 29.0800000  0  4G13G 6G11G 9
  18010884.631    18010886.899   -35098815.032 9  42264015.677 7
  15302509.461    15302510.794    -5050563.179 9  -8592724.466 8
  15533467.896    15533470.662   -14243112.128 8 -15629011.652 7
  16296259.181    16296259.887   -17709156.216 9  -9274648.545 9
 89 11 12 11 53 59.0800000  0  4G13G 6G11G 9
  17990606.509    17990610.199   -35205373.861 9  42180982.817 8
  15302516.214    15302516.564    -5050531.233 9  -8592699.586 7
  15528069.985    15528073.346   -14271475.365 9 -15651112.846 8
  16282741.448    16282742.284   -17780192.186 9  -9330001.254 8
 89 11 12 11 54 29.0800000  0  4G13G 6G11G 9
  17970380.325    17970383.438   -35311663.791 9  42098159.500 8
  15302609.169    15302610.470    -5050038.289 9  -8592315.475 7
  15522778.783    15522781.085   -14299285.585 9 -15672783.135 8
  16269272.317    16269274.245   -17850966.890 9  -9385150.362 8
 89 11 12 11 54 59.0800000  0  4G13G 6G11G 9
  17950205.344    17950208.050   -35417683.402 9  42015546.831 8
  15302791.553    15302791.994    -5049083.633 7  -8591571.587 7
  15517592.062    15517592.951   -14326543.335 8 -15694022.926 8
  16255854.209    16255856.390   -17921478.549 9  -9440094.494 9
 89 11 12 11 55 29.0800000  0  4G13G 6G11G 9
  17930083.112    17930085.499   -35523430.462 9  41933146.539 9
  15303060.254    15303063.563    -5047665.876 9  -8590466.846 8
  15512509.618    15512511.933   -14353248.770 8 -15714832.344 8
  16242488.081    16242487.642   -17991724.722 9  -9494831.748 8
 89 11 12 11 55 59.0800000  0  4G13G 6G11G 9
  17910012.153    17910014.207   -35628902.325 9  41850960.679 8
  15303419.103    15303421.573    -5045783.379 9  -8588999.973 7
  15507532.642    15507535.340   -14379401.536 8 -15735211.128 8
  16229171.121    16229170.869   -18061702.886 9  -9549360.194 8
 89 11 12 11 56 29.0800000  0  4G13G 6G11G 9
  17889994.979    17889996.599   -35734096.592 9  41768991.117 8
  15303867.160    15303868.271    -5043434.534 8  -8587169.703 8
  15502662.012    15502662.860   -14405001.600 8 -15755159.200 7
  16215906.733    16215906.773   -18131410.149 9  -9603677.531 9
 89 11 12 11 56 59.0800000  0  4G13G 6G11G 9
  17870029.180    17870031.914   -35839010.779 9  41687239.809 8
  15304402.102    15304404.517    -5040617.695 8  -8584974.773 8
  15497894.571    15497896.502   -14430048.360 9 -15774676.144 8
  16202694.279    16202695.754   -18200844.038 9  -9657781.845 8
 89 11 12 11 57 29.0800000  0  4G13G 6G11G 9
  17850118.973    17850120.198   -35943642.863 9  41605708.331 7
  15305029.185    15305028.281    -5037331.575 8  -8582414.162 8
  15493235.237    15493235.434   -14454542.496 8 -15793762.454 7
  16189532.675    16189534.351   -18270001.915 9  -9711671.095 7
 89 11 12 11 57 59.0800000  0  4G13G 6G11G 9
  17830261.846    17830265.008   -36047990.732 9  41524398.307 8
  15305743.464    15305743.802    -5033574.676 8  -8579486.714 8
  15488677.629    15488678.920   -14478484.083 9 -15812418.231 8
  16176425.532    16176426.469   -18338881.290 9  -9765343.318 8
 89 11 12 11 58 29.0800000  0  4G13G 6G11G 9
  17810460.621    17810461.940   -36152051.141 9  41443312.278 8
  15306547.481    15306547.950    -5029345.544 9  -8576191.288 8
  15484227.117    15484230.472   -14501872.862 8 -15830643.249 8
  16163372.008    16163374.279   -18407479.540 9  -9818796.489 8
 89 11 12 11 58 59.0800000  0  4G13G 6G11G 9
  17790713.132    17790714.368   -36255822.618 9  41362451.405 8
  15307442.883    15307443.397    -5024642.990 9  -8572526.945 8
  15479881.317    15479884.370   -14524709.184 8 -15848437.761 8
  16150373.396    16150373.371   -18475794.478 9  -9872028.906 8
 89 11 12 11 59 29.0800000  0  4G13G 6G11G 9
  17771021.728    17771023.889   -36359302.630 9  41281817.641 9
  15308428.513    15308428.613    -5019465.374 8  -8568492.455 7
  15475641.858    15475643.814   -14546992.905 8 -15865801.700 7
  16137426.534    16137427.007   -18543822.956 9  -9925038.102 8
 89 11 12 11 59 59.0800000  0  4G13G 6G11G 9
  17751386.206    17751388.515   -36462488.950 9  41201412.724 9
  15309504.576    15309504.992    -5013811.484 9  -8564086.833 8
  15471505.865    15471508.889   -14568724.488 9 -15882735.391 8
  16124536.259    16124538.138   -18611562.710 9  -9977822.303 9
 89 11 12 12  0 29.0800000  0  4G13G 6G11G 9
  17731805.974    17731808.850   -36565379.509 9  41121238.258 8
  15310671.208    15310671.836    -5007680.069 9  -8559309.111 8
  15467475.975    15467478.721   -14589904.077 8 -15899238.948 8
  16111701.593    16111702.181   -18679011.245 8 -10030379.599 8
 89 11 12 12  0 59.0800000  0  4G13G 6G11G 9
  17712283.595    17712285.097   -36667972.184 9  41041295.920 8
  15311928.645    15311930.382    -5001069.526 9  -8554158.047 7
  15463550.461    15463553.153   -14610531.633 8 -15915312.376 7
  16098922.288    16098923.334   -18746165.835 9 -10082707.853 8
 89 11 12 12  1 29.0800000  0  4G13G 6G11G 9
  17692818.056    17692819.428   -36770264.928 9  40961587.294 8
  15313278.162    15313278.429    -4993978.766 8  -8548632.776 8
  15459729.781    15459732.891   -14630607.613 8 -15930955.976 7
  16086199.026    16086200.554   -18813024.087 9 -10134805.188 8
 89 11 12 12  1 59.0800000  0  4G13G 6G11G 9
  17673410.112    17673411.071   -36872254.764 9  40882114.709 8
  15314718.519    15314720.587    -4986406.170 9  -8542732.059 8
  15456015.255    15456016.675   -14650131.703 9 -15946169.541 8
  16073534.144    16073534.080   -18879583.187 9 -10186669.405 8
 89 11 12 12  2 29.0800000  0  4G13G 6G11G 9
  17654060.323    17654061.674   -36973939.621 9  40802879.756 7
  15316250.807    15316253.242    -4978350.524 8  -8536454.943 8
  15452404.836    15452404.634   -14669104.538 8 -15960953.543 8
  16060925.979    16060925.065   -18945840.265 9 -10238298.295 8
 89 11 12 12  2 59.0800000  0  4G13G 6G11G 9
  17634768.909    17634770.351   -37075317.174 9  40723884.268 8
  15317876.689    15317878.577    -4969810.322 9  -8529800.237 8
  15448898.463    15448899.457   -14687526.237 8 -15975308.122 8
  16048375.616    16048374.853   -19011792.865 9 -10289689.916 8
 89 11 12 12  3 29.0800000  0  4G13G 6G11G 9
  17615535.102    17615537.769   -37176385.719 9  40645129.544 8
  15319593.733    15319596.103    -4960784.573 8  -8522767.190 7
  15445498.276    15445499.900   -14705397.560 8 -15989233.804 7
  16035883.148    16035884.818   -19077438.585 9 -10340842.414 8
 89 11 12 12  3 59.0800000  0  4G13G 6G11G 9
  17596362.215    17596364.160   -37277143.072 9  40566617.342 8
  15321405.491    15321405.868    -4951272.109 9  -8515354.882 8
  15442202.969    15442202.899   -14722718.529 8 -16002730.670 7
  16023450.124    16023451.365   -19142775.005 9 -10391753.917 8
 89 11 12 12  4 29.0800000  0  4G13G 6G11G 9
  17577248.269    17577250.855   -37377586.966 9  40488349.380 9
  15323308.276    15323309.415    -4941272.042 8  -8507562.632 8
  15439010.395    15439012.519   -14739489.960 9 -16015799.310 7
  16011076.799    16011076.698   -19207799.543 9 -10442422.363 8
 89 11 12 12  4 59.0800000  0  4G13G 6G11G 9
  17558194.836    17558196.024   -37477715.489 9  40410327.151 9
  15325303.380    15325304.235    -4930782.772 9  -8499389.183 8
  15435922.630    15435924.759   -14755712.130 8 -16028439.941 7
  15998762.036    15998763.662   -19272509.581 9 -10492845.770 8
 89 11 12 12  5 29.0800000  0  4G13G 6G11G 9
  17539201.667    17539202.926   -37577525.941 9  40332552.779 8
  15327392.971    15327393.643    -4919803.072 9  -8490833.581 9
  15432940.522    15432942.861   -14771385.457 8 -16040652.899 8
  15986508.716    15986508.591   -19336902.117 8 -10543021.763 8
 89 11 12 12  5 59.0800000  0  4G13G 6G11G 9
  17520267.801    17520270.517   -37677017.032 8  40255027.268 8
  15329576.158    15329576.909    -4908331.889 8  -8481894.997 8
  15430062.225    15430065.087   -14786510.170 8 -16052438.387 7
  15974316.258    15974316.307   -19400974.966 8 -10592948.653 8
 89 11 12 12  6 29.0800000  0  4G13G 6G11G 9
  17501397.110    17501400.581   -37776185.853 9  40177752.858 8
  15331853.054    15331852.305    -4896367.706 8  -8472572.270 7
  15427288.819    15427289.937   -14801085.949 9 -16063796.133 7
  15962184.668    15962185.049   -19464725.083 9 -10642624.045 8
 89 11 12 12  6 59.0800000  0  4G13G 6G11G 9
  17482588.040    17482589.485   -37875030.231 9  40100731.290 8
  15334223.246    15334224.820    -4883909.592 9  -8462864.645 8
  15424618.873    15424622.497   -14815114.097 8 -16074727.156 8
  15950114.973    15950115.724   -19528149.932 9 -10692045.997 8
 89 11 12 12  7 29.0800000  0  4G13G 6G11G 9
  17463841.141    17463842.545   -37973547.918 9  40023964.250 8
  15336688.163    15336688.677    -4870956.338 9  -8452771.204 8
  15422054.376    15422056.584   -14828594.800 9 -16085231.582 8
  15938107.730    15938109.149   -19591247.026 9 -10741212.559 8
 89 11 12 12  7 59.0800000  0  4G13G 6G11G 9
  17445156.149    17445158.081   -38071737.409 9  39947452.970 8
  15339247.599    15339248.690    -4857506.935 9  -8442291.157 8
  15419593.820    15419595.101   -14841528.653 7 -16095309.884 8
  15926164.769    15926165.520   -19654013.736 9 -10790121.669 8
 89 11 12 12  8 29.0800000  0  4G13G 6G11G 9
  17426534.280    17426536.129   -38169596.498 8  39871199.140 8
  15341902.269    15341904.428    -4843560.536 9  -8431423.841 9
  15417235.577    15417237.078   -14853916.746 8 -16104962.934 7
  15914283.793    15914284.742   -19716447.790 9 -10838771.580 8
 89 11 12 12  8 59.0800000  0  4G13G 6G11G 9
  17407975.392    17407977.827   -38267122.916 9  39795204.529 8
  15344652.248    15344651.725    -4829115.640 9  -8420168.081 7
  15414981.498    15414984.210   -14865759.285 7 -16114190.880 8
  15902466.904    15902467.140   -19778546.009 9 -10887159.794 9
 89 11 12 12  9 29.0800000  0  4G13G 6G11G 9
  17389480.343    17389482.327   -38364314.812 9  39719470.586 8
  15347495.730    15347495.397    -4814171.223 9  -8408523.089 8
  15412832.175    15412834.716   -14877056.417 8 -16122993.832 7
  15890714.100    15890714.726   -19840305.887 9 -10935284.369 7
 89 11 12 12  9 59.0800000  0  4G13G 6G11G 9
  17371048.598    17371050.928   -38461170.063 9  39643998.963 7
  15350433.683    15350434.365    -4798726.328 9  -8396488.102 8
  15410785.124    15410787.933   -14887808.948 9 -16131372.414 8
  15879026.433    15879026.491   -19901725.232 9 -10983143.585 8
 89 11 12 12 10 29.0800000  0  4G13G 6G11G 9
  17352682.859    17352684.983   -38557686.245 9  39568791.541 8
  15353468.503    15353469.673    -4782779.978 9  -8384062.393 8
  15408844.248    15408844.894   -14898017.954 9 -16139327.480 7
  15867403.663    15867404.132   -19962801.059 9 -11030735.127 8
 89 11 12 12 10 59.0800000  0  4G13G 6G11G 9
  17334380.807    17334383.051   -38653861.680 9  39493849.639 8
  15356598.409    15356600.703    -4766331.101 9  -8371245.089 8
  15407003.972    15407006.023   -14907683.989 8 -16146859.453 8
  15855847.665    15855848.210   -20023530.717 9 -11078056.937 8
 89 11 12 12 11 29.0800000  0  4G13G 6G11G 9
  17316144.401    17316146.824   -38749694.525 9  39419174.727 9
  15359824.577    15359826.164    -4749378.573 9  -8358035.329 9
  15405268.012    15405269.513   -14916807.505 9 -16153968.680 8
  15844357.523    15844357.759   -20083911.631 9 -11125106.994 8
 89 11 12 12 11 59.0800000  0  4G13G 6G11G 9
  17297974.591    17297976.655   -38845182.890 9  39344768.199 9
  15363146.735    15363148.516    -4731922.061 9  -8344432.855 8
  15403634.171    15403636.110   -14925389.471 8 -16160655.911 7
  15832934.205    15832934.055   -20143941.492 9 -11171883.483 7
 89 11 12 12 12 29.0800000  0  4G13G 6G11G 9
  17279869.122    17279871.421   -38940324.228 9  39270632.104 8
  15366563.777    15366566.136    -4713960.128 9  -8330436.544 8
  15402104.218    15402106.807   -14933430.280 7 -16166921.471 8
  15821578.540    15821579.381   -20203617.608 9 -11218384.351 9
 89 11 12 12 12 59.0800000  0  4G13G 6G11G 9
  17261830.093    17261831.909   -39035116.427 9  39196768.053 9
  15370077.963    15370078.997    -4695491.802 8  -8316045.659 9
  15400677.115    15400679.542   -14940930.687 8 -16172765.936 7
  15810290.121    15810290.938   -20262937.166 9 -11264607.390 8
 89 11 12 12 13 29.0800000  0  4G13G 6G11G 9
  17243859.236    17243861.569   -39129557.684 9  39123177.469 8
  15373689.357    15373689.950    -4676516.171 9  -8301259.456 8
  15399353.838    15399354.764   -14947891.463 7 -16178189.890 8
  15799070.154    15799070.246   -20321897.393 9 -11310550.418 8
 89 11 12 12 13 59.0800000  0  4G13G 6G11G 9
  17225953.828    17225957.003   -39223646.410 9  39049861.596 9
  15377397.565    15377397.101    -4657032.429 9  -8286077.326 8
  15398131.097    15398132.375   -14954313.658 8 -16183194.197 7
  15787919.058    15787919.862   -20380495.948 9 -11356211.623 8
 89 11 12 12 14 29.0800000  0  4G13G 6G11G 9
  17208117.025    17208119.722   -39317380.699 9  38976821.899 9
  15381202.270    15381202.246    -4637039.464 9  -8270498.399 7
  15397011.559    15397013.586   -14960197.653 8 -16187779.126 8
  15776837.597    15776837.628   -20438729.923 9 -11401588.745 7
 89 11 12 12 14 59.0800000  0  4G13G 6G11G 9
  17190347.862    17190350.759   -39410758.912 9  38904059.668 8
  15385103.039    15385104.237    -4616536.682 8  -8254522.204 8
  15395993.495    15395994.662   -14965544.497 8 -16191945.487 7
  15765826.116    15765827.139   -20496596.912 9 -11446679.899 7
 89 11 12 12 15 29.0800000  0  4G13G 6G11G 9
  17172647.276    17172649.465   -39503778.453 9  38831576.909 9
  15389102.395    15389102.147    -4595522.999 9  -8238147.917 8
  15395077.828    15395079.793   -14970354.984 8 -16195693.917 7
  15754884.993    15754884.775   -20554094.190 9 -11491482.969 8
 89 11 12 12 15 59.0800000  0  4G13G 6G11G 9
  17155014.731    17155017.135   -39596438.013 9  38759374.661 8
  15393198.700    15393198.872    -4573997.988 9  -8221375.201 8
  15394264.244    15394266.484   -14974630.413 8 -16199025.410 7
  15744013.881    15744013.916   -20611219.536 9 -11535996.228 8
 89 11 12 12 16 29.0800000  0  4G13G 6G11G 9
  17137450.706    17137453.231   -39688734.792 9  38687455.100 9
  15397391.940    15397392.573    -4551960.469 9  -8204203.116 8
  15393553.604    15393554.526   -14978371.264 8 -16201940.334 7
  15733214.563    15733215.843   -20667969.829 9 -11580217.236 8
 89 11 12 12 16 59.0800000  0  4G13G 6G11G 9
  17119957.590    17119960.071   -39780666.931 9  38615819.662 9
  15401683.839    15401684.934    -4529409.674 9  -8186631.064 8
  15392942.725    15392943.765   -14981578.526 9 -16204439.482 8
  15722487.070    15722487.504   -20724342.747 9 -11624144.167 7
 89 11 12 12 17 29.0800000  0  4G13G 6G11G 9
  17102531.284    17102535.376   -39872233.373 9  38544469.209 9
  15406071.513    15406074.078    -4506344.901 9  -8168658.536 8
  15392434.522    15392435.854   -14984252.960 8 -16206523.456 7
  15711831.736    15711833.422   -20780335.531 9 -11667774.911 8
 89 11 12 12 17 59.0800000  0  4G13G 6G11G 9
  17085177.667    17085180.055   -39963431.742 9  38473405.561 8
  15410559.622    15410560.018    -4482765.322 9  -8150284.847 8
  15392025.283    15392027.008   -14986395.385 9 -16208192.878 7
  15701250.057    15701249.792   -20835945.500 9 -11711107.347 8
 89 11 12 12 18 29.0800000  0  4G13G 6G11G 9
  17067893.753    17067896.374   -40054260.089 9  38402630.242 8
  15415145.169    15415144.814    -4458670.188 9  -8131509.424 8
  15391719.325    15391721.235   -14988006.633 8 -16209448.397 8
  15690741.892    15690741.883   -20891169.864 9 -11754139.295 8
 89 11 12 12 18 59.0800000  0  4G13G 6G11G 9
  17050680.674    17050682.825   -40144716.887 9  38332144.425 8
  15419827.740    15419828.748    -4434058.600 9  -8112331.566 9
  15391513.405    15391515.756   -14989087.730 8 -16210290.796 7
  15680306.891    15680307.314   -20946006.339 9 -11796869.036 8
 89 11 12 12 19 29.0800000  0  4G13G 6G11G 9
  17033538.285    17033540.629   -40234800.322 9  38261949.534 8
  15424609.634    15424610.611    -4408930.174 9  -8092750.992 8
  15391408.486    15391409.464   -14989640.203 9 -16210721.293 7
  15669945.393    15669946.224   -21000452.139 9 -11839294.318 8
 89 11 12 12 19 59.0800000  0  4G13G 6G11G 9
  17016467.745    17016470.032   -40324507.968 9  38192047.489 8
  15429489.581    15429490.623    -4383283.627 9  -8072766.671 9
  15391404.856    15391404.381   -14989664.297 8 -16210740.045 8
  15659659.093    15659659.915   -21054504.437 9 -11881412.995 8
 89 11 12 12 20 29.0800000  0  4G13G 6G11G 9
  16999468.340    16999470.886   -40413839.335 9  38122438.648 8
  15434469.124    15434469.355    -4357119.464 9  -8052379.021 8
  15391499.331    15391501.087   -14989162.237 8 -16210348.820 7
  15649448.678    15649450.338   -21108161.555 9 -11923223.738 8
 89 11 12 12 20 59.0800000  0  4G13G 6G11G 9
  16982540.372    16982542.421   -40502791.922 9  38053124.961 8
  15439547.341    15439548.065    -4330436.421 9  -8031587.046 9
  15391694.507    15391696.019   -14988134.654 9 -16209548.094 7
  15639314.431    15639314.746   -21161420.254 8 -11964724.003 8
 89 11 12 12 21 29.0800000  0  4G13G 6G11G 9
  16965687.501    16965689.409   -40591364.015 9  37984107.760 8
  15444724.138    15444724.534    -4303233.848 9  -8010390.249 8
  15391989.887    15391991.777   -14986582.176 8 -16208338.372 7
  15629256.172    15629257.288   -21214278.043 9 -12005911.880 8
 89 11 12 12 21 59.0800000  0  4G13G 6G11G 9
  16948905.272    16948905.703   -40679553.622 9  37915388.596 8
  15449998.039    15449999.682    -4275511.155 7  -7988788.161 8
  15392385.242    15392387.028   -14984506.167 9 -16206720.703 9
  15619274.427    15619275.016   -21266732.259 9 -12046785.305 9
 89 11 12 12 22 29.0800000  0  4G13G 6G11G 9
  16932196.337    16932198.191   -40767358.889 9  37846968.901 7
  15455372.482    15455374.260    -4247268.078 9  -7966780.585 8
  15392879.146    15392882.932   -14981908.024 9 -16204696.156 7
  15609369.816    15609370.399   -21318780.610 9 -12087342.462 8
 89 11 12 12 22 59.0800000  0  4G13G 6G11G 9
  16915559.896    16915561.921   -40854779.075 9  37778849.271 8
  15460845.597    15460848.302    -4218503.973 9  -7944367.004 8
  15393473.174    15393473.602   -14978788.786 7 -16202265.573 8
  15599543.355    15599543.352   -21370420.539 9 -12127581.336 8
 89 11 12 12 23 29.0800000  0  4G13G 6G11G 9
  16898998.499    16899000.653   -40941812.009 9  37711031.417 8
  15466418.798    15466419.938    -4189218.115 9  -7921546.865 8
  15394165.709    15394167.572   -14975149.380 8 -16199429.674 8
  15589795.056    15589795.978   -21421649.201 9 -12167499.764 8
 89 11 12 12 23 59.0800000  0  4G13G 6G11G 9
  16882511.605    16882512.853   -41028455.034 9  37643517.383 8
  15472091.553    15472093.162    -4159409.950 9  -7898319.731 8
  15394956.637    15394959.512   -14970990.906 9 -16196189.303 7
  15580123.485    15580124.507   -21472464.050 9 -12207095.748 8
 89 11 12 12 24 29.0800000  0  4G13G 6G11G 9
  16866098.194    16866099.562   -41114707.401 9  37576307.754 7
  15477863.646    15477864.717    -4129079.016 9  -7874685.247 9
  15395846.584    15395848.827   -14966314.613 9 -16192545.436 7
  15570534.368    15570534.888   -21522862.573 9 -12246367.321 8
 89 11 12 12 24 59.0800000  0  4G13G 6G11G 9
  16849759.300    16849762.357   -41200567.439 9  37509403.842 8
  15483734.848    15483737.034    -4098225.142 9  -7850643.279 9
  15396834.651    15396836.832   -14961122.115 8 -16188499.319 8
  15561022.578    15561023.467   -21572842.408 9 -12285312.653 8
 89 11 12 12 25 29.0800000  0  4G13G 6G11G 9
  16833495.439    16833498.270   -41286032.955 9  37442807.343 7
  15489706.093    15489707.278    -4066847.369 9  -7826193.078 8
  15397921.414    15397922.903   -14955414.092 7 -16184051.501 9
  15551591.345    15551593.646   -21622400.612 8 -12323929.429 8
 89 11 12 12 25 59.0800000  0  4G13G 6G11G 9
  16817306.997    16817309.161   -41371102.761 9  37376519.190 8
  15495777.765    15495777.499    -4034945.504 9  -7801334.490 8
  15399105.088    15399106.741   -14949192.071 9 -16179203.168 8
  15542242.222    15542242.270   -21671534.683 9 -12362215.704 8
 89 11 12 12 26 29.0800000  0  4G13G 6G11G 9
  16801194.412    16801197.220   -41455774.989 9  37310540.844 8
  15501948.511    15501949.218    -4002519.106 9  -7776067.169 8
  15400385.989    15400388.256   -14942457.327 8 -16173955.308 8
  15532974.213    15532974.824   -21720242.260 9 -12400169.661 8
 89 11 12 12 26 59.0800000  0  4G13G 6G11G 9
  16785158.385    16785160.984   -41540048.312 9  37244873.316 8
  15508219.023    15508218.611    -3969568.088 8  -7750391.065 9
  15401766.359    15401767.596   -14935211.284 9 -16168309.035 8
  15523787.680    15523788.091   -21768520.941 9 -12437789.412 8
 89 11 12 12 27 29.0800000  0  4G13G 6G11G 9
  16769197.073    16769200.262   -41623921.277 9  37179517.773 9
  15514588.460    15514589.219    -3936091.898 8  -7724305.729 8
  15403240.291    15403244.359   -14927455.254 9 -16162265.378 7
  15514682.230    15514681.693   -21816368.221 8 -12475072.995 8
 89 11 12 12 27 59.0800000  0  4G13G 6G11G 9
  16753314.151    16753315.599   -41707391.912 9  37114475.716 8
  15521057.119    15521059.007    -3902090.125 9  -7697810.862 9
  15404814.070    15404815.751   -14919190.282 8 -16155825.128 8
  15505658.860    15505660.483   -21863781.231 8 -12512018.181 8
 89 11 12 12 28 29.0800000  0  4G13G 6G11G 9
  16737507.202    16737508.742   -41790458.984 9  37049748.136 8
  15527627.566    15527629.583    -3867562.527 8  -7670906.244 9
  15406482.623    15406484.951   -14910417.783 7 -16148989.409 8
  15496720.520    15496720.788   -21910757.708 8 -12548623.233 8
 89 11 12 12 28 59.0800000  0  4G13G 6G11G 9
  16721776.228    16721778.090   -41873121.433 9  36985335.861 9
  15534297.921    15534299.254    -3832508.941 8  -7643591.771 9
  15408249.006    15408250.732   -14901139.602 9 -16141759.655 8
  15487862.877    15487864.834   -21957295.261 9 -12584886.245 8
 89 11 12 12 29 29.0800000  0  4G13G 6G11G 9
  16706122.723    16706124.520   -41955377.197 9  36921240.469 8
  15541069.763    15541071.015    -3796929.036 9  -7615867.177 8
  15410110.741    15410112.344   -14891356.951 8 -16134136.796 8
  15479092.428    15479092.806   -22003391.511 9 -12620805.389 9
 89 11 12 12 29 59.0800000  0  4G13G 6G11G 9
  16690548.430    16690550.377   -42037224.878 9  36857463.083 9
  15547939.657    15547940.883    -3760822.506 9  -7587732.238 9
  15412067.909    15412069.657   -14881071.016 8 -16126121.793 7
  15470405.630    15470405.932   -22049043.710 9 -12656378.527 9
 89 11 12 12 30 29.0800000  0  4G13G 6G11G 9
  16675051.651    16675052.767   -42118662.674 9  36794005.072 8
  15554911.471    15554912.088    -3724188.936 9  -7559186.606 8
  15414121.358    15414122.928   -14870283.127 8 -16117715.630 8
  15461803.407    15461804.347   -22094249.396 9 -12691603.731 8
 89 11 12 12 30 59.0800000  0  4G13G 6G11G 9
  16659632.335    16659633.711   -42199689.284 9  36730867.454 8
  15561982.643    15561982.564    -3687028.237 9  -7530230.226 9
  15416268.045    15416270.945   -14858994.797 8 -16108919.533 8
  15453285.918    15453286.867   -22139005.819 8 -12726478.860 8
 89 11 12 12 31 29.0800000  0  4G13G 6G11G 9
  16644292.105    16644294.360   -42280303.190 9  36668051.429 8
  15569155.965    15569154.649    -3649340.135 9  -7500862.888 8
  15418510.660    15418513.964   -14847207.424 8 -16099734.559 7
  15444854.351    15444856.137   -22183310.847 9 -12761002.272 8
 89 11 12 12 31 59.0800000  0  4G13G 6G11G 9
  16629030.816    16629032.871   -42360502.429 9  36605558.523 8
  15576427.366    15576428.269    -3611124.466 9  -7471084.461 8
  15420849.678    15420852.036   -14834922.501 9 -16090161.879 7
  15436510.520    15436510.922   -22227161.845 8 -12795171.874 8
 89 11 12 12 32 29.0800000  0  4G13G 6G11G 9
  16613848.188    16613851.033   -42440286.144 9  36543389.405 7
  15583799.770    15583799.718    -3572381.066 9  -7440894.804 8
  15423281.146    15423283.892   -14822141.499 9 -16080202.651 7
  15428252.908    15428253.162   -22270556.429 9 -12828985.821 9
 89 11 12 12 32 59.0800000  0  4G13G 6G11G 9
  16598746.163    16598747.205   -42519653.154 9  36481544.988 7
  15591272.205    15591274.435    -3533109.782 9  -7410293.817 9
  15425808.783    15425811.002   -14808866.092 9 -16069858.176 8
  15420082.308    15420082.852   -22313492.064 8 -12862442.155 8
 89 11 12 12 33 29.0800000  0  4G13G 6G11G 9
  16583721.824    16583723.580   -42598601.741 9  36420026.630 7
  15598847.286    15598847.467    -3493310.636 9  -7379281.503 8
  15428428.545    15428430.182   -14795097.731 8 -16059129.585 8
  15412000.279    15411999.989   -22355966.636 8 -12895539.219 7
 89 11 12 12 33 59.0800000  0  4G13G 6G11G 9
  16568778.298    16568780.141   -42677130.522 9  36358835.374 8
  15606520.383    15606521.014    -3452983.444 9  -7347857.719 8
  15431141.485    15431142.637   -14780837.695 9 -16048017.857 7
  15404005.314    15404004.953   -22397977.241 8 -12928274.758 8
 89 11 12 12 34 29.0800000  0  4G13G 6G11G 9
  16553914.957    16553917.127   -42755238.023 9  36297972.387 8
  15614294.712    15614296.596    -3412128.206 9  -7316022.486 8
  15433948.420    15433949.583   -14766087.651 9 -16036524.320 7
  15396098.795    15396099.849   -22439521.841 9 -12960647.161 8
 89 11 12 12 34 59.0800000  0  4G13G 6G11G 9
  16539132.050    16539132.904   -42832922.780 9  36237438.809 7
  15622170.253    15622171.527    -3370744.990 9  -7283775.839 8
  15436848.706    15436850.733   -14750849.272 8 -16024650.254 8
  15388282.738    15388284.198   -22480597.771 9 -12992654.380 7
 89 11 12 12 35 29.0800000  0  4G13G 6G11G 9
  16524429.846    16524431.814   -42910184.322 9  36177235.020 7
  15630145.769    15630146.517    -3328833.572 9  -7251117.609 8
  15439841.184    15439843.847   -14735124.042 8 -16012396.827 8
  15380556.055    15380557.253   -22521202.826 9 -13024294.682 8
 89 11 12 12 35 59.0800000  0  4G13G 6G11G 9
  16509807.757    16509809.076   -42987020.602 9  36117362.600 8
  15638220.671    15638223.378    -3286394.015 9  -7218047.828 8
  15442926.146    15442927.160   -14718913.773 8 -15999765.444 8
  15372918.816    15372919.369   -22561334.629 9 -13055566.201 7
 89 11 12 12 36 29.0800000  0  4G13G 6G11G 9
  16495267.953    16495269.724   -43063430.600 9  36057822.364 7
  15646397.076    15646398.251    -3243426.499 9  -7184566.657 9
  15446101.103    15446103.867   -14702220.280 7 -15986757.513 8
  15365373.448    15365373.692   -22600990.870 9 -13086467.175 8
 89 11 12 12 36 59.0800000  0  4G13G 6G11G 9
  16480808.781    16480811.236   -43139412.666 9  35998615.555 8
  15654673.935    15654676.699    -3199930.828 9  -7150673.944 9
  15449369.955    15449372.885   -14685044.687 8 -15973373.937 7
  15357917.064    15357918.317   -22640168.890 9 -13116995.504 7
 89 11 12 12 37 29.0800000  0  4G13G 6G11G 9
  16466432.019    16466434.232   -43214965.430 9  35939743.273 8
  15663051.904    15663052.816    -3155907.046 9  -7116369.707 8
  15452730.430    15452731.471   -14667388.719 8 -15959616.034 7
  15350553.162    15350555.013   -22678866.398 8 -13147149.407 7
 89 11 12 12 37 59.0800000  0  4G13G 6G11G 9
  16452136.112    16452137.629   -43290088.100 9  35881206.132 6
  15671528.761    15671531.193    -3111355.357 9  -7081654.119 9
  15456181.346    15456184.083   -14649254.135 9 -15945485.189 7
  15343282.114    15343281.606   -22717081.202 8 -13176927.164 8
 89 11 12 12 38 29.0800000  0  4G13G 6G11G 9
  16437923.265    16437924.764   -43364779.237 9  35823005.260 7
  15680107.783    15680109.323    -3066275.855 9  -7046527.246 8
  15459722.670    15459724.824   -14630642.304 8 -15930982.462 8
  15336102.138    15336102.508   -22754810.674 9 -13206326.748 8
 89 11 12 12 38 59.0800000  0  4G13G 6G11G 9
  16423792.590    16423793.703   -43439037.853 9  35765141.409 8
  15688786.966    15688787.850    -3020668.625 9  -7010989.154 8
  15463355.416    15463357.533   -14611555.108 9 -15916109.317 9
  15329013.825    15329016.597   -22792052.976 8 -13235346.729 8
 89 11 12 12 39 29.0800000  0  4G13G 6G11G 9
  16409743.316    16409745.170   -43512862.704 9  35707615.564 7
  15697565.929    15697566.951    -2974533.939 9  -6975040.056 9
  15467077.399    15467079.399   -14591994.492 9 -15900867.271 8
  15322020.998    15322020.368   -22828805.493 7 -13263985.048 7
 89 11 12 12 39 59.0800000  0  4G13G 6G11G 9
  16395778.157    16395779.769   -43586252.532 9  35650428.686 7
  15706447.041    15706448.004    -2927871.930 9  -6938680.064 7
  15470889.207    15470891.045   -14571961.949 8 -15885257.507 8
  15315119.925    15315121.400   -22865066.056 9 -13292240.029 7
 89 11 12 12 40 29.0800000  0  4G13G 6G11G 9
  16381895.281    16381896.904   -43659205.968 9  35593581.865 8
  15715426.765    15715427.110    -2880682.759 9  -6901909.292 8
  15474790.432    15474791.391   -14551459.208 8 -15869281.341 8
  15308314.351    15308315.072   -22900832.301 8 -13320109.827 8
 89 11 12 12 40 59.0800000  0  4G13G 6G11G 9
  16368095.506    16368097.830   -43731721.328 9  35537076.404 8
  15724505.893    15724506.754    -2832966.565 9  -6864727.867 8
  15478781.392    15478783.661   -14530488.188 9 -15852940.290 8
  15301602.976    15301605.334   -22936101.899 8 -13347592.641 8
 89 11 12 12 41 29.0800000  0  4G13G 6G11G 9
  16354380.570    16354381.795   -43803798.463 9  35480912.411 7
  15733686.733    15733685.968    -2784723.874 9  -6827136.173 8
  15482860.767    15482863.409   -14509050.680 9 -15836235.729 9
  15294986.983    15294988.490   -22970872.756 7 -13374686.807 8
 89 11 12 12 41 59.0800000  0  4G13G 6G11G 9
  16340748.507    16340749.898   -43875435.981 9  35425090.976 7
  15742966.676    15742966.649    -2735954.770 9  -6789134.275 8
  15487028.392    15487030.873   -14487148.258 8 -15819168.895 8
  15288466.745    15288466.665   -23005142.367 8 -13401390.395 9
 89 11 12 12 42 29.0800000  0  4G13G 6G11G 9
  16327199.962    16327201.023   -43946632.689 9  35369613.031 7
  15752347.330    15752348.514    -2686659.338 9  -6750722.256 9
  15491284.284    15491286.652   -14464782.472 9 -15801741.007 7
  15282040.215    15282040.954   -23038908.669 8 -13427701.805 7
 89 11 12 12 42 59.0800000  0  4G13G 6G11G 9
  16313735.896    16313737.705   -44017387.855 9  35314479.139 7
  15761828.778    15761828.634    -2636838.201 9  -6711900.607 8
  15495628.960    15495631.814   -14441955.654 9 -15783953.877 8
  15275710.858    15275711.678   -23072169.522 8 -13453619.354 8
 89 11 12 12 43 29.0800000  0  4G13G 6G11G 9
  16300355.377    16300357.780   -44087700.241 9  35259690.285 8
  15771409.012    15771410.623    -2586491.552 9  -6672669.455 9
  15500059.671    15500062.803   -14418669.357 8 -15765808.711 7
  15269477.347    15269478.107   -23104922.418 8 -13479141.086 7
 89 11 12 12 43 59.0800000  0  4G13G 6G11G 9
  16287060.083    16287063.100   -44157568.342 9  35205247.617 8
  15781089.382    15781090.273    -2535619.824 9  -6633029.160 8
  15504578.842    15504580.805   -14394925.353 8 -15747306.881 7
  15263342.720    15263342.154   -23137165.449 9 -13504265.522 8
 89 11 12 12 44 29.0800000  0  4G13G 6G11G 9
  16273849.800    16273851.609   -44226991.584 9  35151151.601 7
  15790869.699    15790871.383    -2484223.303 9  -6592979.938 8
  15509183.237    15509185.279   -14370725.563 9 -15728449.907 8
  15257303.193    15257303.886   -23168896.313 8 -13528990.861 7
 89 11 12 12 44 59.0800000  0  4G13G 6G11G 9
  16260723.154    16260723.682   -44295968.905 9  35097403.055 8
  15800749.315    15800751.255    -2432302.272 9  -6552522.002 9
  15513874.654    15513876.946   -14346071.677 9 -15709239.081 8
  15251363.028    15251363.239   -23200112.738 8 -13553315.344 7
 89 11 12 12 45 29.0800000  0  4G13G 6G11G 9
  16247682.961    16247685.109   -44364499.262 9  35044002.784 7
  15810729.683    15810730.251    -2379857.271 9  -6511655.778 8
  15518651.570    15518654.137   -14320965.637 9 -15689675.927 8
  15245522.813    15245521.869   -23230812.777 8 -13577237.454 7
 89 11 12 12 45 59.0800000  0  4G13G 6G11G 9
  16234727.867    16234730.005   -44432581.588 9  34990951.617 9
  15820808.945    15820810.230    -2326888.865 9  -6470381.697 9
  15523516.518    15523516.847   -14295409.066 9 -15669761.718 8
  15239778.903    15239777.920   -23260994.244 8 -13600755.475 7
 89 11 12 12 46 29.0800000  0  4G13G 6G11G 9
  16221856.604    16221858.906   -44500215.316 9  34938250.020 8
  15830987.901    15830989.210    -2273397.652 9  -6428700.249 9
  15528464.559    15528466.482   -14269404.320 8 -15649498.283 9
  15234133.357    15234135.600   -23290655.135 9 -13623867.871 7
 89 11 12 12 46 59.0800000  0  4G13G 6G11G 9
  16209072.628    16209073.769   -44567399.321 9  34885898.862 8
  15841266.472    15841267.253    -2219383.881 9  -6386611.614 8
  15533498.686    15533499.054   -14242953.239 8 -15628887.043 8
  15228590.423    15228589.517   -23319793.111 8 -13646572.790 8
 89 11 12 12 47 29.0800000  0  4G13G 6G11G 9
  16196372.958    16196375.146   -44634132.952 9  34833898.651 8
  15851644.414    15851645.678    -2164847.875 9  -6344116.038 8
  15538616.115    15538617.911   -14216057.160 8 -15607929.059 8
  15223144.286    15223146.104   -23348405.976 8 -13668868.529 7
 89 11 12 12 47 59.0800000  0  4G13G 6G11G 9
  16183759.735    16183763.194   -44700414.417 9  34782250.765 8
  15862121.691    15862122.869    -2109790.071 9  -6301213.862 8
  15543818.087    15543820.463   -14188718.208 8 -15586625.983 7
  15217800.025    15217801.503   -23376491.628 8 -13690753.453 7
 89 11 12 12 48 29.0800000  0  4G13G 6G11G 9
  16171233.758    16171233.941   -44766243.189 9  34730955.644 7
  15872698.083    15872698.308    -2054211.452 9  -6257905.859 7
  15549104.539    15549106.105   -14160938.618 8 -15564979.534 7
  15212556.109    15212556.181   -23404048.276 9 -13712226.168 8
 89 11 12 12 48 59.0800000  0  4G13G 6G11G 9
  16158793.630    16158794.379   -44831618.570 9  34680013.793 8
  15883373.660    15883373.255    -1998112.385 9  -6214192.304 9
  15554474.406    15554476.610   -14132719.999 9 -15542991.010 7
  15207413.928    15207414.582   -23431073.722 8 -13733284.950 8
 89 11 12 12 49 29.0800000  0  4G13G 6G11G 9
  16146438.668    16146440.033   -44896539.813 9  34629425.815 7
  15894147.804    15894148.503    -1941493.559 9  -6170073.758 9
  15559925.784    15559929.799   -14104064.728 9 -15520662.204 8
  15202372.460    15202372.249   -23457566.056 8 -13753928.343 8
 89 11 12 12 49 59.0800000  0  4G13G 6G11G 9
  16134170.668    16134173.566   -44961006.265 8  34579192.214 8
  15905020.548    15905021.144    -1884355.549 9  -6125550.641 8
  15565463.738    15565464.675   -14074974.492 9 -15497994.503 9
  15197432.248    15197433.008   -23483523.259 8 -13774154.733 9
 89 11 12 12 50 29.0800000  0  4G13G 6G11G 9
  16121989.777    16121992.194   -45025016.963 9  34529313.763 8
  15915993.320    15915993.028    -1826698.871 9  -6080623.365 9
  15571081.723    15571082.312   -14045451.280 9 -15474989.409 7
  15192594.791    15192596.281   -23508943.371 9 -13793962.608 8
 89 11 12 12 50 59.0800000  0  4G13G 6G11G 9
  16109896.331    16109897.842   -45088571.149 9  34479791.041 8
  15927062.983    15927064.282    -1768524.267 9  -6035292.516 9
  15576781.257    15576782.894   -14015497.290 9 -15451648.633 7
  15187861.037    15187861.543   -23533824.164 8 -13813350.235 8
 89 11 12 12 51 29.0800000  0  4G13G 6G11G 9
  16097889.580    16097891.028   -45151667.744 9  34430624.865 8
  15938231.280    15938232.743    -1709832.437 9  -5989558.641 8
  15582562.425    15582564.729   -13985114.330 8 -15427973.615 7
  15183228.325    15183229.745   -23558163.730 9 -13832316.137 8
 89 11 12 12 51 59.0800000  0  4G13G 6G11G 9
  16085969.904    16085971.232   -45214306.778 9  34381815.242 7
  15949498.841    15949499.689    -1650624.186 9  -5943422.351 9
  15588426.179    15588428.785   -13954304.152 9 -15403965.678 9
  15178700.469    15178701.685   -23581960.340 7 -13850858.945 7
 89 11 12 12 52 29.0800000  0  4G13G 6G11G 9
  16074137.197    16074137.883   -45276486.787 9  34333363.298 7
  15960863.035    15960864.768    -1590899.998 9  -5896884.053 8
  15594368.762    15594370.260   -13923068.771 9 -15379626.403 7
  15174275.567    15174276.726   -23605211.810 8 -13868976.977 8
 89 11 12 12 52 59.0800000  0  4G13G 6G11G 9
  16062391.862    16062393.652   -45338206.837 9  34285269.758 8
  15972326.015    15972327.456    -1530660.516 9  -5849944.205 9
  15600393.446    15600395.995   -13891410.469 9 -15354957.601 8
  15169955.949    15169957.234   -23627916.097 8 -13886668.637 7
 89 11 12 12 53 29.0800000  0  4G13G 6G11G 9
  16050734.472    16050736.872   -45399467.018 9  34237534.569 8
  15983887.923    15983888.244    -1469906.955 9  -5802603.794 8
  15606498.842    15606500.500   -13859331.429 9 -15329960.959 7
  15165739.243    15165741.670   -23650071.860 7 -13903932.858 7
 89 11 12 12 53 59.0800000  0  4G13G 6G11G 9
  16039164.948    16039166.671   -45460266.138 9  34190158.632 7
  15995547.582    15995548.312    -1408639.943 9  -5754863.275 9
  15612682.746    15612684.923   -13826833.623 9 -15304637.991 8
  15161628.439    15161629.003   -23671676.834 8 -13920767.908 8
 89 11 12 12 54 29.0800000  0  4G13G 6G11G 9
  16027683.302    16027684.906   -45520603.836 9  34143142.253 7
  16007303.133    16007303.719    -1346860.319 9  -5706723.330 9
  15618946.253    15618948.496   -13793919.062 8 -15278990.273 8
  15157621.812    15157621.614   -23692729.370 7 -13937172.477 7
 89 11 12 12 54 59.0800000  0  4G13G 6G11G 9
  16016289.669    16016289.294   -45580479.222 9  34096486.111 8
  16019156.294    16019157.706    -1284568.779 9  -5658184.487 9
  15625288.622    15625290.159   -13760589.628 8 -15253019.282 7
  15153722.687    15153723.258   -23713227.310 8 -13953144.914 8
 89 11 12 12 55 29.0800000  0  4G13G 6G11G 9
  16004983.205    16004984.335   -45639891.728 9  34050190.673 8
  16031106.698    16031108.041    -1221766.098 8  -5609247.353 9
  15631708.726    15631710.401   -13726847.404 8 -15226726.639 8
  15149925.564    15149928.491   -23733169.012 8 -13968683.891 7
 89 11 12 12 55 59.0800000  0  4G13G 6G11G 9
  15993766.499    15993767.417   -45698840.606 9  34004256.489 7
  16043154.144    16043156.841    -1158453.194 9  -5559912.631 9
  15638208.323    15638209.779   -13692694.661 9 -15200114.116 8
  15146238.299    15146237.186   -23752552.715 8 -13983788.086 8
 89 11 12 12 56 29.0800000  0  4G13G 6G11G 9
  15982635.968    15982638.860   -45757325.732 9  33958683.678 8
  16055300.181    16055301.737    -1094631.302 9  -5510181.296 9
  15644785.126    15644786.215   -13658133.667 8 -15173183.470 9
  15142655.946    15142656.270   -23771376.693 9 -13998456.124 7
 89 11 12 12 56 59.0800000  0  4G13G 6G11G 9
  15971595.361    15971596.462   -45815346.395 9  33913472.788 8
  16067541.377    16067543.330    -1030301.278 9  -5460054.020 9
  15651439.917    15651440.939   -13623166.208 8 -15145936.105 8
  15139180.613    15139180.971   -23789639.119 8 -14012686.590 7
 89 11 12 12 57 29.0800000  0  4G13G 6G11G 9
  15960643.140    15960646.139   -45872901.864 9  33868624.364 8
  16079880.126    16079880.590     -965464.049 9  -5409531.517 9
  15658169.828    15658172.634   -13587794.539 9 -15118373.763 8
  15135812.775    15135812.666   -23807338.550 7 -14026478.344 8
 89 11 12 12 57 59.0800000  0  4G13G 6G11G 9
  15949778.677    15949780.282   -45929991.594 9  33824138.869 8
  16092313.651    16092315.274     -900120.292 9  -5358614.315 8
  15664977.295    15664979.136   -13552020.661 7 -15090498.012 8
  15132551.760    15132552.782   -23824472.537 8 -14039829.507 8
 89 11 12 12 58 29.0800000  0  4G13G 6G11G 9
  15939003.703    15939005.844   -45986614.854 9  33780016.866 8
  16104844.876    16104846.648     -834270.913 9  -5307303.128 9
  15671861.432    15671863.937   -13515846.457 8 -15062310.323 7
  15129399.405    15129400.318   -23841039.751 8 -14052739.041 7
 89 11 12 12 58 59.0800000  0  4G13G 6G11G 9
  15928317.808    15928319.529   -46042772.024 9  33736258.044 7
  16117472.112    16117472.020     -767916.914 9  -5255598.730 9
  15678820.562    15678823.659   -13479274.088 8 -15033812.385 8
  15126354.768    15126356.779   -23857038.358 8 -14065205.480 7
 89 11 12 12 59 29.0800000  0  4G13G 6G11G 9
  15917719.664    15917721.438   -46098461.645 9  33692863.555 8
  16130194.164    16130195.121     -701059.480 9  -5203502.035 8
  15685855.425    15685857.916   -13442305.637 8 -15005005.788 8
  15123419.280    15123420.299   -23872466.803 8 -14077227.643 7
 89 11 12 12 59 59.0800000  0  4G13G 6G11G 9
  15907212.115    15907214.195   -46153683.675 9  33649833.419 8
  16143012.619    16143013.508     -633699.467 9  -5151013.728 8
  15692964.464    15692967.389   -13404943.292 9 -14975892.278 8
  15120593.093    15120591.841   -23887323.160 9 -14088804.022 7
 89 11 12 13  0 29.0800000  0  4G13G 6G11G 9
  15896792.880    15896795.288   -46208438.028 9  33607167.695 7
  16155926.188    16155927.147     -565838.191 9  -5098134.827 9
  15700150.009    15700151.768   -13367189.553 8 -14946473.778 8
  15117874.320    15117875.081   -23901606.119 7 -14099933.607 8
 89 11 12 13  0 59.0800000  0  4G13G 6G11G 9
  15886462.243    15886464.227   -46262723.756 9  33564867.139 8
  16168936.205    16168936.708     -497476.449 9  -5044865.956 8
  15707407.844    15707409.500   -13329046.047 8 -14916751.560 8
  15115266.472    15115265.649   -23915314.016 6 -14110615.080 7
 89 11 12 13  1 29.0800000  0  4G13G 6G11G 9
  15876221.131    15876222.972   -46316540.698 9  33522931.869 8
  16182039.561    16182039.677     -428615.707 9  -4991208.251 8
  15714741.628    15714741.647   -13290515.264 9 -14886727.576 7
  15112766.325    15112767.836   -23928445.306 8 -14120847.260 7
 89 11 12 13  1 59.0800000  0  4G13G 6G11G 9
  15866069.850    15866068.794   -46369888.651 9  33481362.035 7
  16195237.808    16195238.131     -359256.962 9  -4937162.488 8
  15722145.998    15722148.533   -13251599.203 8 -14856403.381 9
  15110377.660    15110379.459   -23940998.445 7 -14130628.923 8
 89 11 12 13  2 29.0800000  0  4G13G 6G11G 9
  15856007.059    15856008.421   -46422766.510 9  33440158.541 7
  16208530.767    16208531.590     -289401.284 9  -4882729.505 8
  15729624.731    15729626.892   -13212300.052 8 -14825780.686 7
  15108098.710    15108099.891   -23952971.737 8 -14139958.773 8
 89 11 12 13  2 59.0800000  0  4G13G 6G11G 9
  15846034.496    15846034.077   -46475174.624 9  33399321.061 8
  16221917.552    16221919.084     -219049.920 9  -4827910.273 9
  15737174.296    15737177.340   -13172620.318 8 -14794861.394 7
  15105932.810    15105932.067   -23964363.855 7 -14148835.750 7
 89 11 12 13  3 29.0800000  0  4G13G 6G11G 9
  15836151.100    15836152.073   -46527112.634 9  33358849.905 7
  16235400.355    16235400.417     -148204.123 9  -4772705.768 8
  15744798.018    15744800.410   -13132562.128 9 -14763647.228 6
  15103875.311    15103876.673   -23975173.247 7 -14157258.654 9
 89 11 12 13  3 59.0800000  0  4G13G 6G11G 9
  15826356.121    15826357.654   -46578580.027 9  33318745.430 7
  16248976.214    16248975.768      -76864.837 9  -4717116.729 9
  15752492.900    15752495.643   -13092127.390 8 -14732139.647 8
  15101929.000    15101930.107   -23985398.232 8 -14165226.180 7
 89 11 12 13  4 29.0800000  0  4G13G 6G11G 9
  15816651.928    15816654.137   -46629576.241 9  33279008.133 8
  16262644.401    16262645.519       -5032.978 9  -4661143.873 8
  15760257.940    15760260.626   -13051317.817 8 -14700339.987 8
  15100094.471    15100095.314   -23995037.118 7 -14172736.982 8
 89 11 12 13  4 59.0800000  0  4G13G 6G11G 9
  15807038.131    15807039.682   -46680102.132 9  33239637.312 8
  16276406.450    16276407.574       67289.474 9  -4604788.732 8
  15768094.688    15768097.474   -13010136.246 8 -14668250.455 9
  15098371.992    15098372.099   -24004089.066 8 -14179790.467 8
 89 11 12 13  5 29.0800000  0  4G13G 6G11G 9
  15797512.866    15797514.993   -46730156.242 9  33200634.126 7
  16290262.382    16290263.867      140101.708 9  -4548051.952 8
  15776002.197    15776003.471   -12968584.757 9 -14635872.666 8
  15096760.937    15096762.385   -24012552.094 8 -14186385.032 6
 89 11 12 13  5 59.0800000  0  4G13G 6G11G 9
  15788077.059    15788079.904   -46779739.013 9  33161998.212 7
  16304211.213    16304212.164      213402.244 9  -4490934.669 9
  15783978.855    15783981.046   -12926665.440 9 -14603208.274 8
  15095262.886    15095264.094   -24020425.228 8 -14192519.937 7
 89 11 12 13  6 29.0800000  0  4G13G 6G11G 9
  15778731.940    15778733.619   -46828849.992 9  33123729.928 7
  16318251.149    16318253.269      287189.913 9  -4433437.803 8
  15792024.869    15792027.946   -12884380.679 9 -14570259.109 7
  15093877.604    15093878.781   -24027706.925 8 -14198194.003 7
 89 11 12 13  6 59.0800000  0  4G13G 6G11G 9
  15769475.559    15769476.624   -46877488.785 9  33085829.570 8
  16332385.777    16332387.817      361463.346 8  -4375562.416 9
  15800141.909    15800142.606   -12841732.644 8 -14537026.877 8
  15092603.856    15092605.189   -24034395.785 8 -14203406.110 7
 89 11 12 13  7 29.0800000  0  4G13G 6G11G 9
  15760309.980    15760312.329   -46925655.223 9  33048297.295 7
  16346612.142    16346613.453      436221.176 9  -4317309.582 9
  15808326.064    15808327.930   -12798723.607 8 -14503513.351 8
  15091445.428    15091446.278   -24040490.667 8 -14208155.371 8
 89 11 12 13  7 59.0800000  0  4G13G 6G11G 9
  15751234.289    15751235.421   -46973349.851 9  33011132.679 7
  16360928.559    16360932.442      511462.022 9  -4258680.373 9
  15816578.582    15816580.781   -12755355.702 9 -14469720.165 8
  15090399.214    15090398.799   -24045990.175 7 -14212440.705 8
 89 11 12 13  8 29.0800000  0  4G13G 6G11G 9
  15742248.548    15742250.122   -47020572.312 9  32974335.956 6
  16375338.901    16375340.497      587184.347 9  -4199675.978 8
  15824898.519    15824900.380   -12711631.339 9 -14435649.227 8
  15089466.688    15089465.264   -24050893.269 8 -14216261.282 7
 89 11 12 13  8 59.0800000  0  4G13G 6G11G 9
  15733352.428    15733352.954   -47067322.311 9  32937907.403 7
  16389839.984    16389840.980      663386.968 9  -4140297.325 8
  15833287.605    15833288.316   -12667552.625 9 -14401302.188 7
  15088645.537    15088646.575   -24055198.366 8 -14219615.915 7
 89 11 12 13  9 29.0800000  0  4G13G 6G11G 9
  15724545.560    15724548.528   -47113599.733 9  32901847.073 7
  16404432.119    16404433.206      740068.456 9  -4080545.540 8
  15841740.745    15841744.618   -12623121.909 9 -14366680.850 8
  15087940.652    15087942.906   -24058904.355 8 -14222503.707 8
 89 11 12 13  9 59.0800000  0  4G13G 6G11G 9
  15715829.040    15715832.103   -47159404.164 9  32866155.337 7
  16419116.093    16419115.393      817227.536 9  -4020421.598 8
  15850262.494    15850264.856   -12578340.737 9 -14331786.433 8
  15087350.287    15087351.107   -24062009.887 8 -14224923.611 7
 89 11 12 13 10 29.0800000  0  4G13G 6G11G 9
  15707203.179    15707205.686   -47204735.686 9  32830832.073 8
  16433887.976    16433890.560      894862.596 9  -3959926.760 9
  15858850.657    15858851.860   -12533212.064 9 -14296621.239 8
  15086872.309    15086874.617   -24064513.818 7 -14226874.716 7
 89 11 12 13 10 59.0800000  0  4G13G 6G11G 9
  15698667.225    15698668.897   -47249594.462 9  32795877.198 8
  16448752.195    16448753.212      972971.947 8  -3899062.354 8
  15867504.651    15867505.564   -12487737.844 9 -14261186.787 8
  15086512.308    15086511.810   -24066415.136 7 -14228356.278 8
 89 11 12 13 11 29.0800000  0  4G13G 6G11G 9
  15690220.234    15690221.337   -47293980.866 9  32761290.403 8
  16463705.454    16463707.664     1051554.143 9  -3837829.501 9
  15876223.058    15876225.366   -12441920.338 8 -14225484.835 8
  15086264.382    15086267.644   -24067712.754 7 -14229367.411 7
 89 11 12 13 11 59.0800000  0  4G13G 6G11G 9
  15681863.903    15681866.225   -47337894.545 9  32727071.955 7
  16478750.920    16478751.099     1130607.927 9  -3776229.174 8
  15885006.041    15885007.916   -12395761.877 9 -14189517.198 8
  15086133.345    15086133.929   -24068405.391 8 -14229907.150 8
 89 11 12 13 12 29.0800000  0  4G13G 6G11G 9
  15673597.342    15673597.304   -47381335.921 9  32693221.542 7
  16493882.791    16493883.385     1210131.299 9  -3714262.925 9
  15893855.107    15893857.569   -12349265.011 9 -14153285.889 8
  15086117.009    15086117.973   -24068492.325 9 -14229974.875 7
 89 11 12 13 12 59.0800000  0  4G13G 6G11G 9
  15665420.839    15665421.359   -47424304.153 9  32659739.814 7
  16509104.700    16509106.447     1290123.496 9  -3651931.355 8
  15902767.390    15902768.431   -12302431.385 9 -14116792.149 8
  15086215.802    15086216.669   -24067971.702 8 -14229569.195 7
 89 11 12 13 13 29.0800000  0  4G13G 6G11G 9
  15657334.618    15657335.517   -47466800.172 9  32626626.044 7
  16524415.861    16524416.866     1370582.522 9  -3589236.026 9
  15911742.151    15911744.925   -12255263.487 9 -14080037.948 9
  15086430.731    15086432.257   -24066842.838 7 -14228689.579 7
 89 11 12 13 13 59.0800000  0  4G13G 6G11G 9
  15649337.535    15649338.892   -47508823.021 9  32593880.993 7
  16539814.276    16539816.210     1451507.050 9  -3526177.971 8
  15920781.619    15920783.724   -12207763.484 9 -14043024.970 9
  15086762.473    15086760.896   -24065104.730 8 -14227335.226 8
 89 11 12 13 14 29.0800000  0  4G13G 6G11G 9
  15641430.781    15641433.239   -47550373.521 9  32561503.976 7
  16555302.457    16555303.481     1532894.915 9  -3462758.877 9
  15929883.387    15929884.847   -12159934.268 8 -14005755.452 9
  15087208.955    15087208.977   -24062756.688 7 -14225505.563 7
 89 11 12 13 14 59.0800000  0  4G13G 6G11G 9
  15633613.114    15633616.008   -47591451.546 9  32529495.129 8
  16570877.359    16570879.150     1614744.850 9  -3398979.723 9
  15939046.731    15939048.449   -12111777.595 9 -13968230.776 8
  15087770.918    15087770.656   -24059797.536 7 -14223199.746 7
 89 11 12 13 15 29.0800000  0  4G13G 6G11G 9
  15625885.985    15625889.108   -47632057.276 9  32497854.300 7
  16586541.713    16586542.244     1697055.276 9  -3334841.752 8
  15948271.815    15948274.802   -12063295.736 8 -13930452.698 9
  15088449.442    15088451.807   -24056226.071 7 -14220416.786 6
 89 11 12 13 15 59.0800000  0  4G13G 6G11G 9
  15618248.214    15618250.824   -47672191.041 9  32466581.256 7
  16602291.736    16602293.322     1779824.270 9  -3270346.457 8
  15957560.961    15957561.219   -12014491.112 9 -13892423.127 8
  15089246.978    15089247.578   -24052041.917 8 -14217156.391 8
 89 11 12 13 16 29.0800000  0  4G13G 6G11G 9
  15610701.814    15610702.447   -47711853.301 9  32435675.603 8
  16618128.322    16618129.702     1863050.155 9  -3205495.122 9
  15966908.346    15966910.336   -11965366.023 9 -13854143.850 8
  15090160.252    15090159.665   -24047244.037 8 -14213417.794 7
 89 11 12 13 16 59.0800000  0  4G13G 6G11G 9
  15603244.798    15603245.573   -47751043.410 9  32405137.882 6
  16634052.371    16634053.140     1946731.315 9  -3140289.051 9
  15976317.713    15976319.256   -11915922.365 9 -13815616.333 8
  15091189.128    15091190.212   -24041831.525 8 -14209200.261 6
 89 11 12 13 17 29.0800000  0  4G13G 6G11G 9
  15595876.318    15595877.557   -47789762.209 9  32374967.400 7
  16650062.307    16650063.402     2030866.105 9  -3074729.490 8
  15985785.707    15985788.321   -11866162.540 9 -13776842.437 8
  15092336.868    15092337.451   -24035803.477 8 -14204503.084 7
 89 11 12 13 17 59.0800000  0  4G13G 6G11G 9
  15588598.358    15588599.568   -47828009.880 9  32345164.021 7
  16666159.429    16666160.809     2115452.776 9  -3008817.804 9
  15995314.918    15995317.942   -11816088.950 9 -13737824.075 8
  15093601.817    15093602.559   -24029159.005 8 -14199325.576 7
 89 11 12 13 18 29.0800000  0  4G13G 6G11G 9
  15581409.035    15581411.524   -47865786.430 9  32315727.761 7
  16682342.416    16682342.577     2200489.520 9  -2942555.435 9
  16004903.404    16004903.372   -11765703.898 9 -13698563.001 8
  15094983.821    15094982.410   -24021897.711 8 -14193667.439 7
 89 11 12 13 18 59.0800000  0  4G13G 6G11G 9
  15574309.729    15574313.536   -47903091.967 9  32286658.513 7
  16698608.984    16698609.320     2285974.577 9  -2875943.725 8
  16014549.252    16014551.963   -11715009.818 9 -13659061.124 9
  15096483.513    15096482.416   -24014018.389 8 -14187527.709 7
 89 11 12 13 19 29.0800000  0  4G13G 6G11G 9
  15567301.121    15567301.072   -47939927.158 9  32257955.783 7
  16714960.436    16714961.829     2371906.420 9  -2808983.867 8
  16024254.733    16024256.657   -11664008.642 9 -13619319.942 8
  15098099.896    15098100.771   -24005520.249 8 -14180905.793 7
 89 11 12 13 19 59.0800000  0  4G13G 6G11G 9
  15560381.334    15560382.371   -47976292.597 9  32229619.084 7
  16731398.252    16731398.073     2458283.110 9  -2741677.381 8
  16034017.178    16034019.907   -11612702.749 8 -13579341.346 8
  15099836.193    15099834.859   -23996402.870 7 -14173801.343 8
 89 11 12 13 20 29.0800000  0  4G13G 6G11G 9
  15553550.078    15553551.528   -48012188.713 9  32201648.107 8
  16747918.160    16747919.676     2545102.755 9  -2674025.732 8
  16043838.057    16043841.012   -11561094.325 9 -13539126.994 8
  15101687.900    15101688.604   -23986665.453 7 -14166213.752 7
 89 11 12 13 20 59.0800000  0  4G13G 6G11G 9
  15546809.001    15546809.507   -48047614.324 9  32174043.736 8
  16764524.626    16764524.865     2632363.680 9  -2606030.222 9
  16053717.596    16053718.313   -11509185.600 9 -13498678.642 9
  15103658.888    15103659.876   -23976307.333 8 -14158142.503 7
 89 11 12 13 21 29.0800000  0  4G13G 6G11G 9
  15540156.502    15540157.339   -48082570.950 9  32146804.821 8
  16781213.368    16781213.941     2720063.758 9  -2537692.524 8
  16063650.488    16063652.678   -11456979.169 9 -13457998.314 9
  15105747.451    15105749.787   -23965328.012 8 -14149587.179 7
 89 11 12 13 21 59.0800000  0  4G13G 6G11G 9
  15533593.352    15533595.976   -48117058.826 9  32119931.164 8
  16797984.590    16797986.521     2808201.185 9  -2469014.026 8
  16073641.119    16073644.129   -11404477.222 8 -13417087.713 8
  15107955.825    15107957.270   -23953726.938 8 -14140547.385 8
 89 11 12 13 22 29.0800000  0  4G13G 6G11G 9
  15527120.030    15527122.249   -48151078.626 9  32093422.252 7
  16814839.812    16814842.462     2896774.178 9  -2399996.132 8
  16083689.220    16083690.756   -11351682.107 9 -13375948.654 8
  15110282.094    15110283.320   -23941503.468 7 -14131022.620 6
 89 11 12 13 22 59.0800000  0  4G13G 6G11G 9
  15520736.107    15520736.966   -48184630.487 9  32067277.948 8
  16831777.463    16831778.751     2985780.889 9  -2330640.284 7
  16093790.608    16093791.343   -11298595.995 9 -13334582.853 8
  15112726.457    15112726.003   -23928656.916 7 -14121012.322 7
 89 11 12 13 23 29.0800000  0  4G13G 6G11G 9
  15514439.137    15514440.614   -48217714.865 9  32041497.916 7
  16848797.529    16848798.610     3075219.437 9  -2260947.919 8
  16103946.996    16103948.886   -11245221.042 9 -13292992.007 8
  15115289.199    15115292.252   -23915186.627 7 -14110516.002 7
 89 11 12 13 23 59.0800000  0  4G13G 6G11G 9
  15508232.004    15508232.888   -48250332.441 9  32016081.629 8
  16865897.749    16865899.234     3165087.915 9  -2190920.568 9
  16114158.655    16114160.420   -11191559.386 9 -13251177.721 8
  15117972.941    15117972.495   -23901092.228 8 -14099533.363 7
 89 11 12 13 24 29.0800000  0  4G13G 6G11G 9
  15502114.894    15502115.135   -48282483.032 8  31991029.239 8
  16883081.321    16883083.144     3255384.260 9  -2120559.814 8
  16124424.530    16124427.131   -11137613.553 9 -13209142.025 8
  15120772.430    15120773.341   -23886373.401 8 -14088064.147 6
 89 11 12 13 24 59.0800000  0  4G13G 6G11G 9
  15496085.467    15496086.791   -48314167.337 9  31966340.180 8
  16900345.209    16900344.944     3346106.490 9  -2049867.172 8
  16134743.452    16134745.427   -11083385.796 9 -13166886.635 8
  15123692.020    15123692.455   -23871029.771 7 -14076108.078 6
 89 11 12 13 25 29.0800000  0  4G13G 6G11G 9
  15490144.634    15490146.706   -48345385.284 9  31942014.520 8
  16917690.778    16917691.304     3437253.037 9  -1978843.922 8
  16145115.485    16145118.002   -11028877.993 9 -13124413.006 8
  15126732.008    15126733.180   -23855060.439 8 -14063664.437 7
 89 11 12 13 25 59.0800000  0  4G13G 6G11G 9
  15484292.751    15484294.212   -48376137.277 9  31918051.939 8
  16935114.729    16935115.068     3528821.903 9  -1907491.578 9
  16155541.632    16155542.013   -10974092.700 9 -13081723.189 8
  15129888.811    15129890.850   -23838465.051 7 -14050732.983 7
 89 11 12 13 26 29.0800000  0  4G13G 6G11G 9
  15478529.008    15478531.620   -48406424.703 9  31894451.350 8
  16952619.720    16952620.147     3620810.618 9  -1835812.088 8
  16166019.442    16166020.734   -10919032.284 9 -13038818.979 8
  15133166.126    15133166.819   -23821243.655 8 -14037313.726 7
 89 11 12 13 26 59.0800000  0  4G13G 6G11G 9
  15472853.494    15472853.764   -48436247.883 9  31871212.530 8
  16970204.357    16970205.653     3713217.560 9  -1763806.701 9
  16176549.263    16176551.686   -10863698.678 9 -12995701.897 8
  15136563.493    15136563.886   -23803395.676 8 -14023406.229 7
 89 11 12 13 27 29.0800000  0  4G13G 6G11G 9
  15467266.958    15467269.029   -48465607.646 9  31848334.799 9
  16987868.146    16987868.703     3806040.492 9  -1691477.170 8
  16187130.687    16187132.572   -10808094.475 9 -12952373.960 7
  15140078.915    15140079.687   -23784920.821 8 -14009010.254 7
 89 11 12 13 27 59.0800000  0  4G13G 6G11G 9
  15461768.101    15461769.828   -48494504.142 9  31825818.065 7
  17005609.966    17005611.754     3899277.595 9  -1618824.917 8
  16197762.825    16197763.982   -10752221.455 9 -12908836.549 7
  15143713.346    15143714.399   -23765818.696 8 -13994125.489 7
 89 11 12 13 28 29.0800000  0  4G13G 6G11G 9
  15456356.877    15456358.130   -48522938.490 9  31803661.434 8
  17023431.227    17023432.964     3992926.544 9  -1545851.740 8
  16208444.126    16208446.847   -10696082.447 9 -12865091.866 7
  15147467.548    15147467.770   -23746089.502 8 -13978752.093 8
 89 11 12 13 28 59.0800000  0  4G13G 6G11G 9
  15451034.021    15451038.074   -48550911.444 9  31781864.341 8
  17041330.591    17041331.124     4086985.211 9  -1472559.295 8
  16219177.519    16219180.559   -10639679.558 9 -12821141.575 8
  15151341.234    15151341.310   -23725732.718 8 -13962889.678 7
 89 11 12 13 29 29.0800000  0  4G13G 6G11G 9
  15445798.264    15445800.953   -48578422.954 9  31760426.812 8
  17059305.380    17059307.421     4181451.949 9  -1398948.897 8
  16229961.089    16229962.587   -10583014.844 9 -12776987.260 8
  15155335.024    15155334.484   -23704747.902 8 -13946537.879 7
 89 11 12 13 29 59.0800000  0  4G13G 6G11G 9
  15440651.208    15440653.131   -48605473.827 9  31739348.233 8
  17077361.212    17077361.229     4276324.263 9  -1325022.462 7
  16240794.122    16240794.009   -10526090.524 9 -12732630.665 9
  15159448.036    15159449.217   -23683135.117 8 -13929696.769 7
 89 11 12 13 30 29.0800000  0  4G13G 6G11G 9
  15435590.663    15435592.218   -48632065.061 9  31718627.785 8
  17095490.701    17095491.305     4371599.730 9  -1250781.855 8
  16251675.909    16251676.014   -10468909.325 9 -12688073.897 9
  15163681.154    15163678.687   -23660894.514 9 -13912366.418 7
 89 11 12 13 30 59.0800000  0  4G13G 6G11G 9
  15430618.340    15430619.520   -48658196.694 9  31698265.496 7
  17113697.183    17113698.338     4467276.897 9  -1176228.254 8
  16262604.342    16262606.087   -10411472.961 9 -12643318.290 8
  15168031.597    15168031.566   -23638025.716 9 -13894546.586 6
 89 11 12 13 31 29.0800000  0  4G13G 6G11G 9
  15425733.183    15425734.907   -48683870.080 8  31678260.279 7
  17131979.169    17131981.656     4563353.271 9  -1101363.586 8
  16273582.250    16273585.099   -10353783.981 9 -12598365.858 7
  15172502.682    15172503.722   -23614528.589 8 -13876237.152 7
 89 11 12 13 31 59.0800000  0  4G13G 6G11G 9
  15420933.147    15420937.543   -48709085.580 9  31658611.850 8
  17150338.293    17150339.735     4659826.599 9  -1026189.585 8
  16284608.293    16284609.115   -10295844.755 9 -12553218.430 8
  15177093.577    15177096.046   -23590403.221 8 -13857438.169 7
 89 11 12 13 32 29.0800000  0  4G13G 6G11G 9
  15416223.377    15416225.845   -48733844.091 9  31639319.509 7
  17168770.278    17168773.026     4756694.703 9   -950707.980 9
  16295680.868    16295683.625   -10237657.450 9 -12507877.677 8
  15181805.143    15181805.476   -23565649.631 8 -13838149.673 7
 89 11 12 13 32 59.0800000  0  4G13G 6G11G 9
  15411598.980    15411600.562   -48758146.401 9  31620382.664 8
  17187280.805    17187281.315     4853955.365 9   -874920.484 8
  16306800.053    16306802.009   -10179224.363 8 -12462345.412 9
  15186635.683    15186636.676   -23540267.849 8 -13818371.683 7
 89 11 12 13 33 29.0800000  0  4G13G 6G11G 9
  15407060.719    15407062.279   -48781992.645 9  31601801.176 8
  17205863.018    17205864.146     4951606.776 9   -798828.507 9
  16317965.381    16317966.851   -10120547.448 8 -12416623.148 8
  15191584.605    15191583.809   -23514257.660 8 -13798104.006 8
 89 11 12 13 33 59.0800000  0  4G13G 6G11G 9
  15402609.178    15402611.118   -48805383.632 9  31583574.448 6
  17224518.344    17224520.649     5049646.704 9   -722433.797 9
  16329178.375    16329179.735   -10061628.545 9 -12370712.339 8
  15196654.235    15196653.498   -23487619.141 8 -13777346.721 7
 89 11 12 13 34 29.0800000  0  4G13G 6G11G 9
  15398243.407    15398246.155   -48828320.543 8  31565701.526 8
  17243249.656    17243250.921     5148072.662 9   -645738.273 8
  16340435.641    16340436.973   -10002470.393 9 -12324615.089 8
  15201842.053    15201843.351   -23460352.532 8 -13756100.047 6
 89 11 12 13 34 59.0800000  0  4G13G 6G11G 9
  15393965.917    15393967.555   -48850804.528 8  31548181.549 7
  17262049.898    17262052.849     5246882.406 9   -568743.731 9
  16351737.251    16351739.083    -9943075.186 9 -12278333.128 8
  15207149.738    15207151.250   -23432457.832 8 -13734363.919 7
 89 11 12 13 35 29.0800000  0  4G13G 6G11G 9
  15389773.732    15389775.413   -48872836.290 9  31531013.949 7
  17280925.815    17280928.338     5346073.486 9   -491452.014 9
  16363085.130    16363086.575    -9883445.501 9 -12231868.459 8
  15212577.917    15212578.325   -23403935.441 8 -13712138.693 7
 89 11 12 13 35 59.0800000  0  4G13G 6G11G 9
  15385667.035    15385668.507   -48894416.810 9  31514197.963 8
  17299874.764    17299876.186     5445643.749 9   -413864.836 8
  16374477.154    16374478.166    -9823583.202 9 -12185222.524 8
  15218125.080    15218125.950   -23374785.361 8 -13689424.372 7
 89 11 12 13 36 29.0800000  0  4G13G 6G 3G 9
  15381644.823    15381646.547   -48915546.556 8  31497733.237 7
  17318894.702    17318896.051     5545591.119 9   -335983.813 9
                                 -73066524.131 8 -12102176.347 8
  15223791.859    15223792.936   -23345007.748 7 -13666221.026 7
 89 11 12 13 36 59.0800000  0  4G13G 6G 3G 9
  15377710.735    15377711.306   -48936226.397 8  31481619.089 7
  17337985.797    17337986.236     5645913.190 9   -257810.816 9
  18740019.540    18740022.389   -73152900.699 8  92595325.522 9
  15229578.217    15229579.419   -23314602.877 8 -13642528.944 7
 89 11 12 13 37 29.0800000  0  4G13G 6G 3G 9
  15373861.097    15373862.637   -48956457.170 9  31465854.850 7
  17357147.443    17357148.021     5746607.754 9   -179347.549 9
  18723631.244    18723632.643   -73239022.599 9  92528217.564 8
  15235482.192    15235482.930   -23283570.839 8 -13618348.152 8
 89 11 12 13 37 59.0800000  0  4G13G 6G 3G 9
  15370095.887    15370098.445   -48976239.774 9  31450439.851 8
  17376377.113    17376379.006     5847672.622 9   -100595.769 8
  18707287.834    18707290.039   -73324903.632 8  92461297.272 8
  15241505.810    15241507.433   -23251911.810 8 -13593678.774 7
 89 11 12 13 38 29.0800000  0  4G13G 6G 3G 9
  15366417.725    15366420.144   -48995575.548 8  31435372.996 7
  17395680.197    17395680.868     5949105.384 9    -21557.295 9
  18690991.888    18690994.079   -73410542.831 8  92394565.429 9
  15247649.794    15247650.950   -23219626.148 8 -13568521.138 7
 89 11 12 13 38 59.0800000  0  4G13G 6G 3G 9
  15362822.985    15362823.138   -49014464.801 9  31420654.115 7
  17415052.434    17415053.278     6050903.526 9     57765.887 9
  18674741.709    18674743.277   -73495939.420 9  92328022.632 9
  15253914.160    15253912.680   -23186714.400 8 -13542875.625 7
 89 11 12 13 39 29.0800000  0  4G13G 6G 3G 9
  15359312.133    15359314.939   -49032908.940 8  31406282.079 8
  17434492.807    17434494.092     6153064.647 9    137371.908 9
  18658538.185    18658539.555   -73581092.874 8  92261669.298 8
  15260296.044    15260296.248   -23153176.876 9 -13516742.527 7
 89 11 12 13 39 59.0800000  0  4G13G 6G 3G 9
  15355887.177    15355890.502   -49050908.608 8  31392256.359 9
  17454001.533    17454003.399     6255586.614 9    217259.109 9
  18642379.290    18642381.480   -73666002.074 9  92195506.283 9
  15266797.526    15266797.389   -23119014.092 8 -13490122.167 7
 89 11 12 13 40 29.0800000  0  4G13G 6G 3G 9
  15352547.302    15352548.762   -49068464.542 8  31378576.415 7
  17473579.304    17473581.932     6358466.970 9    297425.552 9
  18626268.567    18626270.596   -73750666.283 9  92129534.196 9
  15273416.199    15273416.955   -23084226.215 8 -13463014.754 7
 89 11 12 13 40 59.0800000  0  4G13G 6G 3G 9
  15349289.879    15349292.238   -49085578.053 9  31365241.220 7
  17493224.231    17493227.078     6461703.372 9    377869.448 9
  18610204.111    18610205.845   -73835084.604 8  92063753.712 8
  15280155.759    15280154.961   -23048813.810 8 -13435420.698 7
 89 11 12 13 41 29.0800000  0  4G13G 6G 3G 9
  15346117.403    15346117.098   -49102250.470 9  31352249.722 7
  17512937.311    17512939.245     6565293.533 9    458589.013 9
  18594186.814    18594188.538   -73919256.223 7  91998165.452 8
  15287014.443    15287013.426   -23012777.214 8 -13407340.241 6
 89 11 12 13 41 59.0800000  0  4G13G 6G 3G 9
  15343027.546    15343029.468   -49118482.802 8  31339601.156 7
  17532716.594    17532718.495     6669234.746 9    539582.087 8
  18578216.205    18578217.405   -74003180.673 8  91932769.783 8
  15293988.892    15293991.038   -22976117.277 8 -13378774.075 7
 89 11 12 13 42 29.0800000  0  4G13G 6G 3G 9
  15340022.929    15340023.305   -49134275.956 8  31327294.824 7
  17552563.094    17552563.274     6773524.522 9    620846.793 9
  18562293.567    18562295.349   -74086857.164 9  91867567.336 7
  15301083.173    15301084.841   -22938834.526 8 -13349722.595 8
 89 11 12 13 42 59.0800000  0  4G13G 6G 3G 9
  15337100.580    15337104.255   -49149630.927 9  31315329.904 8
  17572475.385    17572475.707     6878160.296 9    702381.120 9
  18546417.259    18546419.889   -74170284.833 9  91802558.760 8
  15308296.813    15308297.149   -22900929.523 8 -13320186.246 7
 89 11 12 13 43 29.0800000  0  4G13G 6G 3G 9
  15334262.781    15334264.699   -49164548.721 9  31303705.659 7
  17592450.443    17592452.524     6983140.076 9    784183.473 9
  18530590.040    18530589.966   -74253462.984 9  91737744.602 8
  15315627.295    15315630.405   -22862402.511 8 -13290165.231 7
 89 11 12 13 43 59.0800000  0  4G13G 6G 3G 9
  15331505.853    15331508.340   -49179030.224 9  31292421.366 8
  17612492.775    17612494.740     7088461.445 9    866251.995 9
  18514808.832    18514811.045   -74336390.763 9  91673125.555 8
  15323078.232    15323080.027   -22823254.083 8 -13259659.980 8
 89 11 12 13 44 29.0800000  0  4G13G 6G 3G 9
  15328833.491    15328834.944   -49193076.506 9  31281476.205 8
  17632599.345    17632602.533     7194122.000 9    948584.847 9
  18499076.272    18499077.033   -74419067.093 9  91608702.420 8
  15330646.023    15330646.966   -22783484.949 8 -13228671.067 8
 89 11 12 13 44 59.0800000  0  4G13G 6G 3G 9
  15326243.372    15326244.594   -49206688.902 9  31270869.156 7
  17652769.164    17652772.895     7300118.990 9   1031179.837 9
  18483391.283    18483392.025   -74501491.894 9  91544475.288 8
  15338331.264    15338332.302   -22743096.064 8 -13197199.227 8
 89 11 12 13 45 29.0800000  0  4G13G 6G 3G 9
  15323735.141    15323737.352   -49219868.394 9  31260599.429 8
  17673005.517    17673006.787     7406450.064 9   1114035.153 9
  18467754.806    18467755.376   -74583663.831 9  91480445.207 8
  15346134.684    15346136.352   -22702087.702 7 -13165244.668 7
 89 11 12 13 45 59.0800000  0  4G13G 6G 3G 9
  15321309.021    15321312.243   -49232616.331 8  31250665.980 7
  17693302.408    17693302.567     7513112.849 9   1197148.936 9
  18452166.141    18452167.002   -74665582.652 8  91416612.364 8
  15354057.117    15354057.559   -22660460.660 8 -13132808.040 8
 89 11 12 13 46 29.0800000  0  4G13G 6G 3G 9
  15318965.566    15318968.070   -49244933.518 9  31241068.179 7
  17713660.970    17713662.477     7620104.837 9   1280519.250 9
  18436625.286    18436627.587   -74747247.491 9  91352977.430 8
  15362095.391    15362096.881   -22618215.669 8 -13099889.888 8
 89 11 12 13 46 59.0800000  0  4G13G 6G 3G 9
  15316704.005    15316704.350   -49256821.153 9  31231805.083 6
  17734084.973    17734085.333     7727423.607 9   1364144.188 9
  18421133.343    18421135.697   -74828657.485 8  91289541.079 8
  15370252.425    15370253.387   -22575353.370 9 -13066490.715 7
 89 11 12 13 47 29.0800000  0  4G13G 6G 3G 9
  15314522.769    15314525.544   -49268280.527 8  31222875.715 8
  17754568.363    17754569.932     7835066.477 9   1448021.644 9
  18405690.056    18405691.351   -74909812.293 9  91226303.587 8
  15378526.291    15378526.078   -22531874.912 8 -13032611.416 8
 89 11 12 13 47 59.0800000  0  4G13G 6G 3G 9
  15312423.183    15312424.965   -49279312.427 8  31214279.435 8
  17775112.781    17775114.274     7943030.995 9   1532149.773 8
  18390296.124    18390297.540   -74990710.943 9  91163265.676 8
  15386916.722    15386916.983   -22487780.785 7 -12998252.390 8
 89 11 12 13 48 29.0800000  0  4G13G 6G 3G 9
  15310405.146    15310407.061   -49289918.122 8  31206015.256 7
  17795718.827    17795720.338     8051314.707 9   1616526.615 9
  18374950.732    18374951.926   -75071352.913 9  91100427.768 8
  15395423.506    15395425.027   -22443072.068 8 -12963414.439 7
 89 11 12 13 48 59.0800000  0  4G13G 6G 3G 9
  15308467.378    15308470.553   -49300099.196 9  31198081.961 7
  17816383.530    17816387.495     8159915.083 9   1701150.192 8
  18359654.226    18359655.250   -75151737.336 9  91037790.549 8
  15404049.424    15404050.739   -22397749.363 9 -12928098.075 7
 89 11 12 13 49 29.0800000  0  4G13G 6G 3G 9
  15306611.806    15306613.888   -49309856.970 8  31190478.512 8
  17837109.952    17837113.535     8268829.114 9   1786018.183 9
  18344405.946    18344407.648   -75231864.384 9  90975353.875 7
  15412790.995    15412791.190   -22351814.210 8 -12892304.464 9
 89 11 12 13 49 59.0800000  0  4G13G 6G 3G 9
  15304834.892    15304836.749   -49319192.041 9  31183204.422 7
  17857896.352    17857896.721     8378054.461 9   1871128.807 9
  18329207.684    18329208.482   -75311733.018 8  90913118.559 8
  15421647.329    15421649.035   -22305267.271 8 -12856034.158 7
 89 11 12 13 50 29.0800000  0  4G13G 6G 3G 9
  15303138.298    15303140.242   -49328105.741 8  31176258.673 7
  17878738.990    17878739.775     8487588.833 9   1956480.170 8
  18314058.014    18314059.331   -75391342.134 9  90851085.469 8
  15430620.728    15430623.244   -22258109.198 9 -12819287.636 8
 89 11 12 13 50 59.0800000  0  4G13G 6G 3G 9
  15301521.373    15301524.704   -49336600.335 9  31169639.505 7
  17899640.613    17899643.953     8597429.490 9   2042070.172 8
  18298958.582    18298959.092   -75470691.788 7  90789254.573 8
  15439710.696    15439713.389   -22210341.156 8 -12782065.803 7
 89 11 12 13 51 29.0800000  0  4G13G 6G 3G 9
  15299985.040    15299986.528   -49344676.196 8  31163346.637 8
  17920600.712    17920603.191     8707574.011 9   2127896.985 9
  18283908.665    18283909.999   -75549781.119 8  90727626.538 8
  15448917.759    15448918.405   -22161964.041 9 -12744369.369 8
 89 11 12 13 51 59.0800000  0  4G13G 6G 3G 9
  15298527.381    15298531.001   -49352334.294 9  31157379.294 7
  17941617.857    17941619.243     8818019.600 9   2213958.396 9
  18268908.439    18268909.661   -75628609.551 8  90666201.779 9
  15458239.293    15458240.719   -22112979.061 8 -12706199.286 9
 89 11 12 13 52 29.0800000  0  4G13G 6G 3G 9
  15297149.935    15297151.377   -49359576.280 9  31151736.190 7
  17962691.408    17962692.727     8928763.719 9   2300252.418 8
  18253956.489    18253958.701   -75707176.392 8  90604980.876 9
  15467676.809    15467678.205   -22063387.147 8 -12667556.252 8
 89 11 12 13 52 59.0800000  0  4G13G 6G 3G 9
  15295850.826    15295852.054   -49366403.815 8  31146416.017 7
  17983821.730    17983825.663     9039803.868 9   2386777.092 8
  18239056.489    18239057.675   -75785481.458 9  90543963.955 9
  15477228.662    15477230.319   -22013189.391 8 -12628441.150 7
 89 11 12 13 53 29.0800000  0  4G13G 6G 3G 9
  15294630.303    15294631.145   -49372817.753 9  31141418.135 7
  18005007.272    18005011.485     9151137.199 9   2473530.242 9
  18224205.098    18224206.922   -75863523.971 9  90483151.614 9
  15486895.125    15486897.264   -21962387.131 9 -12588855.003 8
 89 11 12 13 53 59.0800000  0  4G13G 6G 3G 9
  15293487.137    15293489.590   -49378819.803 8  31136741.225 7
  18026250.445    18026250.265     9262760.952 9   2560509.699 8
  18209403.838    18209405.849   -75941303.577 8  90422544.140 9
  15496678.969    15496679.788   -21910981.508 8 -12548798.709 8
 89 11 12 13 54 29.0800000  0  4G13G 6G 3G 9
  15292423.549    15292425.934   -49384410.806 8  31132384.609 8
  18047545.607    18047548.006     9374672.904 9   2647713.699 8
  18194652.978    18194655.242   -76018819.539 9  90362142.087 9
  15506575.877    15506574.889   -21858973.611 9 -12508273.089 8
 89 11 12 13 54 59.0800000  0  4G13G 6G 3G 9
  15291438.645    15291440.318   -49389592.139 9  31128347.195 8
  18068896.950    18068900.335     9486870.427 9   2735140.219 9
  18179952.714    18179954.628   -76096071.373 8  90301945.853 9
  15516586.653    15516586.694   -21806364.471 9 -12467278.976 8
 89 11 12 13 55 29.0800000  0  4G13G 6G 3G 9
  15290530.433    15290530.163   -49394365.269 9  31124627.871 7
  18090303.052    18090303.267     9599350.823 9   2822787.179 9
  18165302.792    18165304.447   -76173058.326 9  90241956.014 8
  15526711.448    15526713.402   -21753155.393 8 -12425817.397 8
 89 11 12 13 55 59.0800000  0  4G13G 6G 3G 9
  15289699.439    15289699.946   -49398732.484 8  31121224.840 7
  18111759.806    18111759.131     9712110.944 9   2910652.077 9
  18150703.559    18150704.546   -76249780.665 9  90182172.373 9
  15536950.879    15536950.902   -21699347.973 9 -12383889.572 9
 89 11 12 13 56 29.0800000  0  4G13G 6G 3G 9
  15288944.107    15288947.083   -49402694.020 9  31118137.918 6
  18133269.280    18133272.358     9825148.681 9   2998733.292 9
  18136154.263    18136155.612   -76326237.333 8  90122595.746 8
  15547304.511    15547305.044   -21644942.991 8 -12341496.110 7
 89 11 12 13 56 59.0800000  0  4G13G 6G 3G 9
  15288266.912    15288268.829   -49406251.773 8  31115365.652 8
  18154832.645    18154834.223     9938460.914 9   3087028.432 9
  18121655.201    18121656.247   -76402428.183 9  90063226.255 9
  15557769.836    15557771.222   -21589942.095 9 -12298638.289 8
 89 11 12 13 57 29.0800000  0  4G13G 6G 3G 9
  15287667.938    15287669.361   -49409406.786 8  31112907.172 8
  18176445.052    18176445.738    10052045.121 9   3175535.496 9
  18107207.410    18107209.089   -76478352.549 9  90004064.412 8
  15568348.966    15568349.746   -21534346.474 8 -12255317.064 7
 89 11 12 13 57 59.0800000  0  4G13G 6G 3G 9
  15287142.885    15287144.489   -49412160.590 9  31110761.338 7
  18198111.065    18198114.497    10165898.830 9   3264252.503 8
  18092809.817    18092811.919   -76554010.099 9  89945110.463 9
  15579041.179    15579043.624   -21478157.552 9 -12211533.537 8
 89 11 12 13 58 29.0800000  0  4G13G 6G 3G 9
  15286696.141    15286699.159   -49414514.544 9  31108927.080 6
  18219828.707    18219831.918    10280019.253 9   3353177.412 9
  18078464.000    18078465.177   -76629400.277 9  89886364.864 9
  15589847.536    15589847.612   -21421376.582 8 -12167288.644 8
 89 11 12 13 58 59.0800000  0  4G13G 6G 3G 9
  15286323.279    15286324.595   -49416470.063 8  31107403.283 8
  18241596.165    18241596.521    10394403.827 9   3442308.125 8
  18064169.000    18064171.005   -76704522.545 9  89827828.025 8
  15600764.912    15600767.127   -21364004.957 8 -12122583.517 9
 89 11 12 13 59 29.0800000  0  4G13G 6G 3G 9
  15286026.776    15286029.223   -49418028.204 9  31106189.151 7
  18263412.459    18263414.585    10509049.839 9   3531642.508 9
  18049924.173    18049925.999   -76779376.672 9  89769500.126 8
  15611794.522    15611795.516   -21306044.138 8 -12077419.291 7
 89 11 12 13 59 59.0800000  0  4G13G 6G 3G 9
  15285805.122    15285807.119   -49419191.110 9  31105282.977 7
  18285279.198    18285280.484    10623954.419 9   3621178.418 9
  18035731.016    18035733.077   -76853962.071 9  89711381.629 8
  15622934.564    15622936.511   -21247495.676 9 -12031797.142 7
 89 11 12 14  0 29.0800000  0  4G13G 6G 3G 9
  15285659.818    15285661.094   -49419959.579 8  31104684.151 8
  18307192.419    18307192.740    10739115.104 9   3710913.859 9
  18021589.752    18021590.626   -76928278.564 9  89653472.672 8
  15634189.556    15634190.036   -21188360.606 9 -11985717.894 8
 89 11 12 14  0 59.0800000  0  4G13G 6G 3G 9
  15285588.143    15285590.104   -49420335.535 9  31104391.174 7
  18329154.325    18329157.333    10854529.091 9   3800846.648 9
  18007498.628    18007500.965   -77002325.190 9  89595773.995 8
  15645553.568    15645554.307   -21128640.678 9 -11939182.942 8
 89 11 12 14  1 29.0800000  0  4G13G 6G 3G 9
  15285590.496    15285592.741   -49420319.918 9  31104403.339 7
  18351162.825    18351168.102    10970193.545 9   3890974.698 9
  17993459.041    17993460.168   -77076102.229 8  89538285.378 9
  15657029.494    15657029.145   -21068337.474 9 -11892193.470 7
 89 11 12 14  1 59.0800000  0  4G13G 6G 3G 9
  15285666.866    15285669.682   -49419914.970 8  31104718.867 7
  18373221.559    18373222.995    11086105.589 8   3981295.623 9
  17979470.627    17979473.199   -77149609.189 9  89481007.238 8
  15668614.077    15668615.803   -21007452.948 9 -11844751.024 7
 89 11 12 14  2 29.0800000  0  4G13G 6G 3G 9
  15285818.425    15285821.514   -49419122.053 8  31105336.718 7
  18395326.870    18395330.171    11202262.344 9   4071807.182 8
  17965534.633    17965536.761   -77222846.061 9  89423939.535 7
  15680311.139    15680311.623   -20945988.359 9 -11796856.574 8
 89 11 12 14  2 59.0800000  0  4G13G 6G 3G 9
  15286042.756    15286045.599   -49417942.756 9  31106255.652 7
  18417478.326    18417479.244    11318661.577 9   4162507.762 8
  17951651.029    17951650.894   -77295811.812 9  89367083.100 8
  15692118.198    15692118.616   -20883945.135 9 -11748511.244 8
 89 11 12 14  3 29.0800000  0  4G13G 6G 3G 9
  15286341.172    15286342.998   -49416377.971 9  31107474.944 6
  18439673.321    18439673.571    11435300.534 9   4253395.078 9
  17937816.386    17937818.287   -77368506.330 9  89310437.998 8
  15704032.911    15704034.031   -20821325.054 8 -11699716.413 8
 89 11 12 14  3 59.0800000  0  4G13G 6G 3G 9
  15286712.947    15286712.671   -49414429.433 9  31108993.274 6
  18461913.541    18461916.953    11552176.134 9   4344466.772 9
  17924034.662    17924036.160   -77440929.518 9  89254004.334 8
  15716058.200    15716060.352   -20758129.683 8 -11650473.326 7
 89 11 12 14  4 29.0800000  0  4G13G 6G 3G 9
  15287155.355    15287157.916   -49412098.406 9  31110809.632 7
  18484197.009    18484201.086    11669285.859 9   4435720.963 8
  17910305.441    17910304.988   -77513080.905 9  89197782.467 9
  15728194.234    15728195.821   -20694360.755 9 -11600783.305 7
 89 11 12 14  4 59.0800000  0  4G13G 6G 3G 9
  15287669.651    15287672.515   -49409387.084 8  31112922.342 7
  18506526.590    18506529.003    11786626.760 9   4527155.278 8
  17896626.709    17896627.245   -77584960.115 9  89141772.676 8
  15740438.010    15740437.840   -20630019.820 9 -11550647.536 7
 89 11 12 14  5 29.0800000  0  4G13G 6G 3G 9
  15288259.332    15288262.521   -49406296.653 8  31115330.476 7
  18528901.173    18528904.604    11904196.224 9   4618767.679 8
  17883000.171    17883001.999   -77656566.859 8  89085975.220 8
  15752789.891    15752790.438   -20565108.724 9 -11500067.518 7
 89 11 12 14  5 59.0800000  0  4G13G 6G 3G 9
  15288920.089    15288919.908   -49402828.485 9  31118032.936 7
  18551317.899    18551319.553    12021991.472 9   4710556.027 8
  17869426.337    17869428.140   -77727901.059 9  89030390.135 8
  15765250.262    15765251.934   -20499629.070 8 -11449044.456 7
 89 11 12 14  6 29.0800000  0  4G13G 6G 3G 9
  15289651.317    15289653.126   -49398984.489 8  31121028.239 8
  18573775.988    18573776.793    12140009.526 9   4802517.951 9
  17855903.311    17855904.772   -77798962.412 9  88975017.646 8
  15777818.100    15777819.726   -20433583.021 9 -11397580.048 9
 89 11 12 14  6 59.0800000  0  4G13G 6G 3G 9
  15290453.742    15290454.632   -49394766.004 9  31124315.343 7
  18596274.254    18596278.064    12258247.852 8   4894651.500 8
  17842432.994    17842435.416   -77869750.452 9  88919858.121 8
  15790493.913    15790494.769   -20366972.089 9 -11345675.478 7
 89 11 12 14  7 29.0800000  0  4G13G 6G 3G 9
  15291326.665    15291328.848   -49390174.065 8  31127893.448 7
  18618813.598    18618819.190    12376704.146 8   4986954.936 8
  17829015.099    17829015.316   -77940264.579 9  88864912.033 7
  15803277.409    15803278.448   -20299797.329 9 -11293331.551 7
 89 11 12 14  7 59.0800000  0  4G13G 6G 3G 9
  15292272.229    15292274.469   -49385210.465 9  31131761.172 8
  18641398.638    18641401.961    12495375.184 7   5079425.664 9
  17815648.917    17815650.017   -78010504.727 9  88810179.444 8
  15816166.589    15816167.956   -20232061.156 8 -11240550.168 8
 89 11 12 14  8 29.0800000  0  4G13G 6G 3G 9
  15293286.834    15293289.808   -49379877.404 9  31135916.798 7
  18664021.860    18664026.100    12614258.183 8   5172061.520 9
  17802334.547    17802336.207   -78080470.866 9  88755660.363 8
  15829163.531    15829165.308   -20163765.501 9 -11187332.835 8
 89 11 12 14  8 59.0800000  0  4G13G 6G 3G 9
  15294372.338    15294373.624   -49374175.949 9  31140359.457 8
  18686683.543    18686686.889    12733350.161 8   5264860.257 8
  17789072.508    17789074.586   -78150162.721 9  88701354.991 8
  15842265.864    15842266.832   -20094912.145 9 -11133680.927 8
 89 11 12 14  9 29.0800000  0  4G13G 6G 3G 9
  15295527.612    15295528.755   -49368107.404 8  31145088.172 7
  18709386.245    18709389.605    12852648.566 8   5357819.841 8
  17775862.954    17775864.965   -78219580.292 9  88647263.363 8
  15855473.982    15855475.503   -20025503.141 9 -11079596.037 9
 89 11 12 14  9 59.0800000  0  4G13G 6G 3G 9
  15296750.582    15296752.763   -49361674.470 8  31150100.830 8
  18732126.568    18732129.727    12972150.270 9   5450937.800 9
  17762705.128    17762706.470   -78288723.179 9  88593385.765 8
  15868787.533    15868790.478   -19955540.447 9 -11025079.707 7
 89 11 12 14 10 29.0800000  0  4G13G 6G 3G 9
  15298043.206    15298045.728   -49354878.164 9  31155396.622 7
  18754905.833    18754909.036    13091852.664 9   5544212.155 8
  17749600.124    17749601.192   -78357591.425 9  88539722.187 8
  15882205.630    15882205.920   -19885025.801 9 -10970133.287 7
 89 11 12 14 10 59.0800000  0  4G13G 6G 3G 9
  15299406.070    15299408.571   -49347719.544 8  31160974.732 7
  18777722.170    18777724.434    13211753.098 9   5637640.851 9
  17736547.538    17736548.898   -78426184.503 9  88486273.018 9
  15895729.051    15895729.852   -19813961.190 9 -10914758.310 7
 89 11 12 14 11 29.0800000  0  4G13G 6G 3G 9
  15300837.498    15300838.398   -49340200.769 9  31166833.501 7
  18800575.214    18800579.081    13331848.461 9   5731221.410 8
  17723545.992    17723548.133   -78494502.664 9  88433038.079 8
  15909355.765    15909357.223   -19742348.676 9 -10858956.404 8
 89 11 12 14 11 59.0800000  0  4G13G 6G 3G 9
  15302336.405    15302339.240   -49332323.686 9  31172971.461 7
  18823466.518    18823469.776    13452136.200 9   5824951.880 9
  17710598.847    17710600.030   -78562545.241 9  88380017.873 8
  15923087.075    15923088.095   -19670190.253 9 -10802729.132 8
 89 11 12 14 12 29.0800000  0  4G13G 6G 3G 9
  15303903.268    15303905.623   -49324089.616 9  31179387.601 8
  18846392.841    18846395.615    13572613.435 9   5918830.021 9
  17697703.459    17697704.367   -78630312.540 9  88327212.170 8
  15936923.074    15936923.421   -19597487.933 9 -10746078.026 8
 89 11 12 14 12 59.0800000  0  4G13G 6G 3G 9
  15305537.162    15305539.906   -49315500.299 8  31186080.568 7
  18869352.931    18869358.097    13693277.309 9   6012853.573 8
  17684860.591    17684860.871   -78697804.040 9  88274621.376 8
  15950860.359    15950860.429   -19524243.663 9 -10689004.624 8
 89 11 12 14 13 29.0800000  0  4G13G 6G 3G 9
  15307239.649    15307241.074   -49306556.844 8  31193049.455 7
  18892350.555    18892354.623    13814124.804 9   6107020.206 9
  17672068.195    17672070.087   -78765019.907 9  88222245.345 8
  15964901.023    15964902.609   -19450459.874 8 -10631510.814 8
 89 11 12 14 13 59.0800000  0  4G13G 6G 3G 9
  15309008.596    15309009.949   -49297261.669 8  31200292.432 7
  18915381.400    18915386.436    13935153.028 9   6201327.670 9
  17659330.182    17659332.790   -78831960.346 9  88170083.941 9
  15979044.323    15979045.586   -19376138.519 9 -10573598.168 7
 89 11 12 14 14 29.0800000  0  4G13G 6G 3G 9
  15310845.341    15310846.068   -49287616.132 9  31207808.387 6
  18938447.197    18938450.672    14056359.704 9   6295774.169 9
  17646644.334    17646646.771   -78898624.374 9  88118137.911 8
  15993289.436    15993290.483   -19301281.383 9 -10515267.986 9
 89 11 12 14 14 59.0800000  0  4G13G 6G 3G 9
  15312745.860    15312748.940   -49277621.833 9  31215596.114 7
  18961545.310    18961549.457    14177741.524 8   6390357.123 9
  17634011.698    17634014.395   -78965012.712 9  88066406.717 8
  16007635.697    16007637.019   -19225890.993 9 -10456522.281 8
 89 11 12 14 15 29.0800000  0  4G13G 6G 3G 9
  15314713.454    15314716.801   -49267280.634 8  31223654.171 7
  18984676.187    18984679.922    14299295.679 9   6485074.374 9
  17621431.420    17621433.217   -79031124.955 9  88014890.669 9
  16022083.073    16022084.466   -19149969.297 9 -10397362.586 9
 89 11 12 14 15 59.0800000  0  4G13G 6G 3G 9
  15316746.491    15316749.097   -49256593.673 8  31231981.637 8
  19007839.733    19007843.277    14421019.794 9   6579924.071 8
  17608902.619    17608904.942   -79096960.537 8  87963590.207 8
  16036630.709    16036633.746   -19073517.967 9 -10337790.195 8
 89 11 12 14 16 29.0800000  0  4G13G12G 3G 9
  15318845.038    15318847.639   -49245563.342 9  31240576.682 8
                                 -87460085.632 7   6701497.377 8
  17596427.452    17596429.740   -79162520.095 8  87912504.807 8
  16051280.302    16051282.156   -18996539.922 9 -10277807.368 8
 89 11 12 14 16 59.0800000  0  4G13G12G 3G 9
  15321011.483    15321011.981   -49234190.656 8  31249438.478 7
  15445283.443    15445284.808   -87487827.631 9 110865383.507 7
  17584004.545    17584006.103   -79227803.626 9  87861634.498 9
  16066028.702    16066029.339   -18919037.271 9 -10217415.752 8
 89 11 12 14 17 29.0800000  0  4G13G12G 3G 9
  15323240.202    15323241.658   -49222477.879 9  31258565.280 7
  15440117.885    15440119.454   -87514974.074 8 110844230.401 8
  17571634.674    17571635.729   -79292810.704 9  87810979.609 8
  16080875.645    16080876.526   -18841012.143 9 -10156617.035 8
 89 11 12 14 17 59.0800000  0  4G13G12G 3G 9
  15325532.340    15325534.220   -49210426.350 9  31267956.029 7
  15435062.594    15435064.787   -87541537.219 9 110823531.805 8
  17559316.036    17559317.930   -79357540.941 9  87760540.441 8
  16095821.723    16095824.391   -18762466.477 9 -10095412.691 8
 89 11 12 14 18 29.0800000  0  4G13G12G 3G 9
  15327889.428    15327892.255   -49198038.065 9  31277609.214 8
  15430118.183    15430120.286   -87567515.605 9 110803288.868 9
  17547050.208    17547052.061   -79421994.986 9  87710316.479 9
  16110867.439    16110869.313   -18683402.836 9 -10033804.743 8
 89 11 12 14 18 59.0800000  0  4G13G12G 3G 9
  15330310.888    15330313.251   -49185314.344 9  31287523.772 7
  15425287.152    15425289.946   -87592907.423 9 110783502.994 8
  17534838.610    17534840.170   -79486172.463 9  87660308.031 8
  16126011.634    16126013.110   -18603823.359 9  -9971794.833 8
 89 11 12 14 19 29.0800000  0  4G13G12G 3G 9
  15332796.499    15332798.605   -49172257.059 8  31297698.250 6
  15420566.810    15420568.815   -87617711.319 8 110764175.258 8
  17522678.389    17522680.096   -79550073.355 9  87610515.102 9
  16141252.340    16141254.078   -18523730.331 9  -9909384.773 8
 89 11 12 14 19 59.0800000  0  4G13G12G 3G 9
  15335343.446    15335345.891   -49158868.180 9  31308131.104 7
  15415958.659    15415961.416   -87641925.820 9 110745306.762 9
  17510571.598    17510573.670   -79613697.726 9  87560937.636 9
  16156591.077    16156591.496   -18443126.310 9  -9846576.517 8
 89 11 12 14 20 29.0800000  0  4G13G12G 3G 9
  15337954.264    15337957.999   -49145149.137 9  31318821.214 6
  15411462.773    15411465.751   -87665549.196 9 110726898.908 7
  17498516.324    17498517.958   -79677046.050 9  87511575.286 9
  16172026.903    16172028.161   -18362013.772 9  -9783372.014 9
 89 11 12 14 20 59.0800000  0  4G13G12G 3G 9
  15340627.998    15340627.817   -49131100.996 8  31329767.766 7
  15407081.500    15407083.710   -87688579.549 9 110708953.132 8
  17486514.489    17486516.750   -79740117.473 9  87462428.689 8
  16187557.829    16187560.026   -18280394.504 9  -9719772.662 8
 89 11 12 14 21 29.0800000  0  4G13G12G 3G 9
  15343362.561    15343364.876   -49116726.021 9  31340969.021 7
  15402812.762    15402814.033   -87711015.953 8 110691470.183 9
  17474564.375    17474567.400   -79802912.330 9  87413497.597 8
  16203185.482    16203187.518   -18198271.051 9  -9655780.465 9
 89 11 12 14 21 59.0800000  0  4G13G12G 3G 9
  15346161.854    15346162.661   -49102026.097 8  31352423.458 7
  15398656.011    15398657.990   -87732856.712 9 110674451.370 9
  17462667.687    17462670.345   -79865430.870 9  87364781.817 8
  16218909.147    16218909.780   -18115645.841 9  -9591397.252 8
 89 11 12 14 22 29.0800000  0  4G13G12G 3G 9
  15349019.961    15349022.119   -49087002.824 9  31364129.862 7
  15394613.480    15394616.358   -87754100.804 9 110657897.488 9
  17450823.032    17450825.578   -79927673.221 9  87316281.251 8
  16234726.821    16234727.907   -18032521.792 9  -9526625.338 8
 89 11 12 14 22 59.0800000  0  4G13G12G 3G 9
  15351939.325    15351942.175   -49071657.649 9  31376087.094 7
  15390684.796    15390686.188   -87774746.351 8 110641809.997 8
  17439032.085    17439032.803   -79989639.207 9  87267996.042 8
  16250638.102    16250641.765   -17948900.433 9  -9461465.924 8
 89 11 12 14 23 29.0800000  0  4G13G12G 3G 9
  15354920.308    15354922.243   -49055992.585 8  31388293.583 7
  15386870.050    15386872.419   -87794792.111 9 110626189.883 8
  17427292.957    17427294.719   -80051328.868 9  87219926.137 8
  16266646.463    16266647.325   -17864784.677 9  -9395921.280 8
 89 11 12 14 23 59.0800000  0  4G13G12G 3G 9
  15357962.038    15357964.599   -49040009.148 9  31400748.177 7
  15383169.581    15383172.851   -87814236.798 8 110611038.141 8
  17415607.739    17415607.855   -80112742.267 9  87172071.515 8
  16282748.146    16282749.133   -17780177.076 8  -9329993.367 7
 89 11 12 14 24 29.0800000  0  4G13G12G 3G 9
  15361064.479    15361065.845   -49023709.608 9  31413449.069 7
  15379584.157    15379587.559   -87833079.004 9 110596355.850 9
  17403971.604    17403973.859   -80173879.718 9  87124431.910 9
  16298939.474    16298941.494   -17695079.916 9  -9263683.970 8
 89 11 12 14 24 59.0800000  0  4G13G12G 3G 9
  15364226.243    15364226.963   -49007094.989 8  31426395.486 7
  15376114.326    15376116.915   -87851317.341 8 110582144.107 7
  17392390.433    17392393.629   -80234740.658 9  87077007.768 8
  16315226.095    16315228.927   -17609495.510 9  -9196994.917 8
 89 11 12 14 25 29.0800000  0  4G13G12G 3G 9
  15367447.668    15367450.386   -48990167.446 9  31439585.727 7
  15372758.449    15372761.152   -87868950.708 9 110568403.787 8
  17380860.950    17380863.797   -80295325.994 9  87029798.371 9
  16331605.487    16331606.316   -17523426.811 9  -9129928.480 8
 89 11 12 14 25 59.0800000  0  4G13G12G 3G 9
  15370727.441    15370729.471   -48972928.251 9  31453018.826 6
  15369518.395    15369521.240   -87885977.468 8 110555136.133 7
  17369384.929    17369388.453   -80355635.502 9  86982803.930 8
  16348074.774    16348076.995   -17436876.178 9  -9062486.511 7
 89 11 12 14 26 29.0800000  0  4G13G12G 3G 9
  15374066.775    15374068.474   -48955379.606 9  31466693.042 7
  15366394.803    15366396.137   -87902396.570 9 110542341.982 8
  17357960.801    17357963.919   -80415669.145 9  86936024.426 8
  16364635.712    16364637.905   -17349846.001 9  -8994670.888 8
 89 11 12 14 26 59.0800000  0  4G13G12G 3G 9
  15377465.182    15377468.260   -48937523.254 9  31480607.039 7
  15363385.891    15363387.950   -87918206.905 9 110530022.194 7
  17346590.025    17346592.139   -80475427.247 9  86889459.630 8
  16381287.547    16381288.723   -17262338.960 9  -8926483.680 7
 89 11 12 14 27 29.0800000  0  4G13G12G 3G 9
  15380920.922    15380923.457   -48919360.736 9  31494759.592 7
  15360492.994    15360496.244   -87933407.212 9 110518177.753 9
  17335270.978    17335272.920   -80534910.136 9  86843109.294 8
  16398030.699    16398032.319   -17174357.705 8  -8857926.937 8
 89 11 12 14 27 59.0800000  0  4G13G12G 3G 9
  15384436.023    15384437.806   -48900893.776 9  31509149.379 7
  15357717.708    15357719.635   -87947996.260 8 110506809.618 9
  17324003.896    17324006.277   -80594117.744 9  86796973.448 9
  16414862.727    16414865.521   -17085904.622 9  -8789002.562 8
 89 11 12 14 28 29.0800000  0  4G13G12G 3G 9
  15388006.704    15388009.143   -48882124.134 9  31523775.017 7
  15355057.302    15355060.649   -87961973.072 9 110495918.546 8
  17312789.380    17312791.132   -80653050.122 9  86751052.071 8
  16431784.198    16431786.129   -16996982.361 9  -8719712.601 9
 89 11 12 14 28 59.0800000  0  4G13G12G 3G 9
  15391635.715    15391637.740   -48863053.178 9  31538635.453 8
  15352514.416    15352516.037   -87975336.703 9 110485505.270 8
  17301626.887    17301629.571   -80711707.395 9  86705345.076 8
  16448794.830    16448796.598   -16907593.525 9  -8650059.058 7
 89 11 12 14 29 29.0800000  0  4G13G12G 3G 9
  15395322.470    15395324.391   -48843683.083 9  31553728.975 8
  15350087.809    15350091.066   -87988085.672 9 110475570.951 8
  17290516.609    17290520.953   -80770089.843 9  86659852.206 8
  16465894.107    16465894.038   -16817740.526 9  -8580043.822 8
 89 11 12 14 29 59.0800000  0  4G13G12G 3G 9
  15399065.788    15399067.792   -48824015.040 8  31569054.681 8
  15347779.129    15347781.007   -88000218.943 9 110466116.399 8
  17279460.208    17279462.846   -80828197.365 9  86614573.585 8
  16483079.313    16483081.687   -16727426.077 9  -8509669.035 7
 89 11 12 14 30 29.0800000  0  4G13G12G 3G 9
  15402864.743    15402868.190   -48804051.185 8  31584610.878 7
  15345587.144    15345590.385   -88011735.558 8 110457142.355 8
  17268455.414    17268457.824   -80886030.162 8  86569509.013 9
  16500352.170    16500353.715   -16636653.079 9  -8438936.942 7
 89 11 12 14 30 59.0800000  0  4G13G12G 3G 9
  15406719.457    15406722.045   -48783793.426 9  31600396.089 7
  15343512.703    15343516.649   -88022634.341 9 110448649.744 8
  17257502.532    17257503.673   -80943588.676 9  86524658.176 8
  16517714.190    16517715.329   -16545423.870 9  -8367849.338 7
 89 11 12 14 31 29.0800000  0  4G13G12G 3G 9
  15410630.718    15410633.010   -48763243.468 9  31616408.980 7
  15341557.378    15341560.285   -88032914.636 9 110440639.078 8
  17246602.152    17246603.408   -81000873.451 9  86480020.639 8
  16535159.825    16535161.764   -16453741.764 9  -8296408.833 8
 89 11 12 14 31 59.0800000  0  4G13G12G 3G 9
  15414595.623    15414598.520   -48742402.878 9  31632648.344 7
  15339719.044    15339721.450   -88042575.246 8 110433111.269 8
  17235752.076    17235755.112   -81057884.497 8  86435596.407 8
  16552691.395    16552693.933   -16361609.063 8  -8224617.223 8
 89 11 12 14 32 29.0800000  0  4G13G12G 3G 9
  15418616.516    15418618.343   -48721273.673 8  31649112.618 8
  15337998.054    15338001.869   -88051615.274 9 110426067.049 9
  17224955.710    17224957.091   -81114621.839 9  86391385.439 8
  16570309.931    16570312.906   -16269028.565 9  -8152476.690 8
 89 11 12 14 32 59.0800000  0  4G13G12G 3G 9
  15422691.650    15422694.835   -48699857.351 9  31665800.587 8
  15336398.133    15336397.931   -88060033.757 9 110419507.134 8
  17214210.932    17214212.643   -81171085.682 9  86347387.591 8
  16588012.251    16588013.470   -16176002.704 9  -8079989.108 9
 89 11 12 14 33 29.0800000  0  4G13G12G 3G 9
  15426820.847    15426824.319   -48678156.036 9  31682710.628 8
  15334914.283    15334915.806   -88067829.759 8 110413432.280 8
  17203518.024    17203520.010   -81227276.497 9  86303602.495 8
  16605798.684    16605800.195   -16082534.745 9  -8007157.026 8
 89 11 12 14 33 59.0800000  0  4G13G12G 3G 9
  15431005.872    15431007.148   -48656171.585 9  31699841.313 7
  15333550.087    15333550.606   -88075002.596 8 110407842.996 9
  17192877.601    17192880.467   -81283194.121 9  86260030.274 8
  16623668.586    16623671.313   -15988626.857 9  -7933982.169 7
 89 11 12 14 34 29.0800000  0  4G13G12G 3G 9
  15435242.871    15435244.826   -48633904.832 9  31717191.964 7
  15332302.786    15332305.120   -88081551.614 9 110402739.813 9
  17182288.139    17182290.596   -81338839.138 9  86216670.481 8
  16641622.545    16641624.666   -15894282.120 9  -7860466.894 7
 89 11 12 14 34 59.0800000  0  4G13G12G 3G 9
  15439533.441    15439536.303   -48611357.688 9  31734761.102 8
  15331175.661    15331176.902   -88087475.783 8 110398123.510 8
  17171751.797    17171753.205   -81394211.636 9  86173523.028 8
  16659658.115    16659660.327   -15799503.052 9  -7786613.182 8
 89 11 12 14 35 29.0800000  0  4G13G12G 3G 9
  15443876.631    15443878.682   -48588532.368 9  31752546.997 7
  15330167.715    15330169.592   -88092774.591 9 110393994.511 9
  17161265.926    17161268.576   -81449312.089 9  86130587.553 7
  16677775.887    16677778.324   -15704292.655 9  -7712423.389 8
 89 11 12 14 35 59.0800000  0  4G13G12G 3G 9
  15448271.877    15448274.803   -48565430.274 9  31770548.562 8
  15329278.567    15329281.062   -88097447.350 9 110390353.337 9
  17150833.567    17150835.439   -81504140.799 9  86087863.833 8
  16695975.447    16695978.341   -15608654.108 9  -7637899.950 7
 89 11 12 14 36 29.0800000  0  4G13G12G 3G 9
  15452720.985    15452723.244   -48542053.858 9  31788763.892 7
  15328507.651    15328511.588   -88101493.443 9 110387200.475 7
  17140451.195    17140453.839   -81558697.892 9  86045351.770 9
  16714256.599    16714258.486   -15512589.759 9  -7563044.724 9
 89 11 12 14 36 59.0800000  0  4G13G12G 3G 9
  15457222.286    15457223.845   -48518404.613 9  31807191.811 8
  15327857.723    15327859.867   -88104911.640 9 110384536.878 9
  17130121.398    17130123.333   -81612983.732 9  86003051.068 8
  16732617.014    16732619.522   -15416102.522 9  -7487859.982 8
 89 11 12 14 37 29.0800000  0  4G13G12G 3G 9
  15461774.266    15461775.962   -48494483.277 8  31825831.730 7
  15327326.347    15327330.176   -88107701.444 9 110382362.960 9
  17119842.001    17119844.133   -81666998.520 9  85960961.577 8
  16751057.638    16751059.545   -15319195.204 9  -7412347.924 8
 89 11 12 14 37 59.0800000  0  4G13G12G 3G 9
  15466377.794    15466378.759   -48470292.119 9  31844681.908 8
  15326915.380    15326919.285   -88109861.957 8 110380679.377 8
  17109614.927    17109617.819   -81720742.594 9  85919083.018 8
  16769578.616    16769580.551   -15221870.702 9  -7336510.766 8
 89 11 12 14 38 29.0800000  0  4G13G12G 3G 9
  15471030.543    15471034.209   -48445833.080 9  31863740.835 8
  15326624.294    15326626.299   -88111392.861 9 110379486.394 8
  17099439.463    17099441.842   -81774216.300 9  85877415.135 8
  16788177.670    16788178.227   -15124131.883 9  -7260350.760 8
 89 11 12 14 38 59.0800000  0  4G13G12G 3G 9
  15475736.355    15475739.724   -48421107.952 9  31883007.106 8
  15326452.985    15326455.586   -88112293.566 8 110378784.494 8
  17089315.611    17089318.175   -81827419.861 8  85835957.765 8
  16806854.680    16806857.111   -15025981.673 9  -7183870.198 8
 89 11 12 14 39 29.0800000  0  4G13G12G 3G 9
  15480493.021    15480494.696   -48396118.030 9  31902479.703 8
  15326402.075    15326403.711   -88112563.327 9 110378574.221 8
  17079242.416    17079244.009   -81880353.653 9  85794710.601 8
  16825610.276    16825613.322   -14927422.804 9  -7107071.220 8
 89 11 12 14 39 59.0800000  0  4G13G12G 3G 9
  15485298.005    15485299.260   -48370865.894 9  31922156.613 8
  15326471.121    15326472.219   -88112201.949 9 110378855.760 8
  17069220.510    17069223.112   -81933018.212 9  85753673.235 7
  16844442.810    16844445.600   -14828458.375 9  -7029956.197 8
 89 11 12 14 40 29.0800000  0  4G13G12G 3G 9
  15490152.899    15490155.017   -48345352.593 8  31942037.023 8
  15326659.206    15326662.090   -88111208.720 9 110379629.645 8
  17059249.385    17059252.392   -81985413.688 9  85712845.538 8
  16863351.320    16863354.210   -14729091.119 8  -6952527.279 7
 89 11 12 14 40 59.0800000  0  4G13G12G 3G 9
  15495056.962    15495060.546   -48319579.218 8  31962120.113 8
  15326969.364    15326972.187   -88109582.941 8 110380896.418 8
  17049330.421    17049332.258   -82037540.334 9  85672227.318 9
  16882337.162    16882340.318   -14629323.875 9  -6874786.703 7
 89 11 12 14 41 29.0800000  0  4G13G12G 3G 9
  15500010.828    15500014.652   -48293548.178 9  31982403.957 7
  15327399.411    15327403.320   -88107324.185 8 110382656.411 8
  17039462.385    17039464.797   -82089398.639 9  85631818.203 8
  16901397.983    16901401.083   -14529159.539 9  -6796736.705 7
 89 11 12 14 41 59.0800000  0  4G13G12G 3G 9
  15505012.941    15505015.103   -48267261.645 9  32002886.909 7
  15327948.978    15327952.291   -88104432.442 9 110384909.662 8
  17029645.834    17029647.943   -82140988.942 9  85591617.902 7
  16920533.543    16920535.707   -14428601.165 8  -6718379.651 8
 89 11 12 14 42 29.0800000  0  4G13G12G 3G 9
  15510063.943    15510065.877   -48240720.426 8  32023568.294 8
  15328620.396    15328622.666   -88100907.283 9 110387656.483 8
  17019878.880    17019881.008   -82192311.475 9  85551626.263 8
  16939743.493    16939746.450   -14327651.455 9  -6639717.677 7
 89 11 12 14 42 59.0800000  0  4G13G12G 3G 9
  15515162.800    15515165.691   -48213926.615 9  32044446.540 7
  15329411.466    15329414.874   -88096748.439 9 110390897.082 8
  17010163.766    17010165.514   -82243366.847 9  85511842.794 8
  16959026.558    16959029.290   -14226313.542 9  -6560753.187 8
 89 11 12 14 43 29.0800000  0  4G13G12G 3G 9
  15520308.980    15520312.965   -48186881.990 8  32065520.170 7
  15330323.740    15330325.577   -88091955.480 8 110394631.772 8
  17000499.544    17000501.103   -82294155.276 9  85472267.333 8
  16978385.456    16978387.326   -14124590.440 9  -6481488.566 8
 89 11 12 14 43 59.0800000  0  4G13G12G 3G 9
  15525503.005    15525505.333   -48159588.538 9  32086787.727 8
  15331357.814    15331359.478   -88086528.174 8 110398860.778 8
  16990884.595    16990886.022   -82344677.223 9  85432899.516 8
  16997814.879    16997817.939   -14022485.093 9  -6401926.090 7
 89 11 12 14 44 29.0800000  0  4G13G12G 3G 9
  15530743.410    15530747.110   -48132047.746 9  32108248.012 8
  15332510.101    15332513.483   -88080466.115 9 110403584.397 9
  16981321.486    16981324.079   -82394933.042 9  85393739.072 7
  17017316.849    17017320.481   -13920000.606 9  -6322068.193 8
 89 11 12 14 44 59.0800000  0  4G13G12G 3G 9
  15536031.090    15536033.882   -48104261.390 9  32129899.631 8
  15333785.182    15333787.322   -88073769.089 9 110408802.781 8
  16971808.609    16971810.938   -82444923.116 9  85354785.703 8
  17036891.766    17036894.150   -13817139.751 9  -6241917.019 8
 89 11 12 14 45 29.0800000  0  4G13G12G 3G 9
  15541365.604    15541368.233   -48076230.832 9  32151741.542 7
  15335181.009    15335182.618   -88066436.650 9 110414516.297 8
  16962345.767    16962348.389   -82494647.871 9  85316039.092 8
  17056536.422    17056537.809   -13713905.503 9  -6161474.868 8
 89 11 12 14 45 59.0800000  0  4G13G12G 3G 9
  15546744.884    15546747.750   -48047957.457 9  32173772.681 7
  15336697.085    15336699.738   -88058468.583 9 110420725.132 9
  16952934.052    16952937.603   -82544108.030 9  85277498.647 7
  17076251.486    17076255.367   -13610300.999 8  -6080744.223 8
 89 11 12 14 46 29.0800000  0  4G13G12G 3G 9
  15552171.777    15552175.033   -48019443.114 9  32195991.555 7
  15338332.175    15338336.768   -88049865.147 9 110427429.033 9
  16943572.590    16943574.590   -82593303.707 9  85239164.284 8
  17096036.054    17096040.089   -13506329.266 9  -5999727.458 8
 89 11 12 14 46 59.0800000  0  4G13G12G 3G 9
  15557644.644    15557647.397   -47990690.226 9  32218396.345 7
  15340091.628    15340095.917   -88040625.978 7 110434628.318 6
  16934261.914    16934263.127   -82642235.339 9  85201035.681 8
  17115891.364    17115894.055   -13401993.280 8  -5918426.821 8
 89 11 12 14 47 29.0800000  0  4G13G12G 3G 9
  15563159.263    15563162.796   -47961700.150 9  32240985.921 8
  15341970.839    15341973.734   -88030751.480 6 110442322.656 6
  16925001.496    16925001.502   -82690903.487 9  85163112.397 9
  17135815.434    17135817.516   -13297296.562 9  -5836845.083 7
 89 11 12 14 47 59.0800000  0  4G13G12G 3G 9
  15568722.020    15568724.432   -47932474.311 8  32263759.224 7
  15343971.516    15343974.009   -88020241.243 6 110450512.374 5
  16915789.189    16915791.581   -82739308.664 9  85125394.028 8
  17155805.926    17155808.872   -13192241.447 8  -5754984.107 8
 89 11 12 14 48 29.0800000  0  4G13G12G 3G 9
  15574327.620    15574329.189   -47903014.637 9  32286714.731 7
  15346091.904    15346096.275   -88009095.087 6 110459197.620 5
  16906628.297    16906630.420   -82787451.273 9  85087880.225 7
  17175864.950    17175868.296   -13086831.305 9  -5672846.491 8
 89 11 12 14 48 59.0800000  0  4G13G12G 3G 9
  15579977.410    15579981.158   -47873322.589 9  32309851.299 7
  15348334.606    15348335.748   -87997313.189 6 110468378.246 7
  16897517.234    16897519.072   -82835331.570 9  85050570.843 7
  17195990.427    17195994.418   -12981068.929 9  -5590434.385 8
 89 11 12 14 49 29.0800000  0  4G13G12G 3G 9
  15585671.442    15585675.233   -47843400.057 9  32333167.477 6
  15350696.418    15350698.522   -87984895.372 7 110478054.406 6
  16888455.757    16888457.958   -82882950.347 9  85013465.263 8
  17216183.131    17216186.153   -12874957.509 9  -5507750.296 8
 89 11 12 14 49 59.0800000  0  4G13G12G 3G 9
  15591409.324    15591413.484   -47813248.958 9  32356661.765 7
  15353181.190    15353184.997   -87971841.837 6 110488225.909 6
  16879444.338    16879445.846   -82930307.848 9  84976563.262 9
  17236441.823    17236443.441   -12768500.234 9  -5424796.725 7
 89 11 12 14 50 29.0800000  0  4G13G12G 3G 9
  15597189.969    15597193.977   -47782870.542 9  32380333.167 7
  15355787.267    15355788.979   -87958152.844 6 110498892.584 5
  16870481.081    16870483.347   -82977404.483 9  84939864.541 7
  17256765.770    17256767.587   -12661700.039 9  -5341575.933 9
 89 11 12 14 50 59.0800000  0  4G13G12G 3G 9
  15603014.295    15603016.596   -47752266.527 9  32404180.371 8
  15358512.173    15358515.902   -87943828.892 7 110510054.040 6
  16861568.557    16861570.246   -83024241.186 9  84903368.344 7
  17277153.333    17277155.635   -12554560.269 9  -5258090.540 7
 89 11 12 14 51 29.0800000  0  4G13G12G 3G 9
  15608880.443    15608884.257   -47721438.214 8  32428202.338 7
  15361358.009    15361361.429   -87928869.494 6 110521710.629 5
  16852705.786    16852707.637   -83070817.941 9  84867074.713 8
  17297605.574    17297608.694   -12447083.767 9  -5174342.778 6
 89 11 12 14 51 59.0800000  0  4G13G12G 3G 9
  15614788.710    15614793.477   -47690387.155 8  32452397.871 7
  15364326.699    15364327.404   -87913274.775 6 110533862.287 5
  16843891.973    16843894.320   -83117135.174 9  84830983.297 8
  17318122.264    17318124.026   -12339273.196 7  -5090334.687 7
 89 11 12 14 52 29.0800000  0  4G13G12G 3G 9
  15620740.847    15620743.459   -47659115.627 9  32476765.205 8
  15367415.058    15367418.220   -87897045.333 7 110546508.532 6
  16835126.963    16835129.048   -83163193.844 9  84795093.366 8
  17338699.928    17338702.989   -12231132.649 8  -5006069.475 6
 89 11 12 14 52 59.0800000  0  4G13G12G 3G 9
  15626732.705    15626737.512   -47627625.469 9  32501302.912 8
  15370623.228    15370625.362   -87880181.301 6 110559649.261 6
  16826411.047    16826414.206   -83208994.557 9  84759404.427 7
  17359341.721    17359343.128   -12122664.878 6  -4921549.283 6
 89 11 12 14 53 29.0800000  0  4G13G12G 3G 9
  15632766.538    15632769.501   -47595917.967 8  32526009.966 7
  15373955.370    15373955.780   -87862682.630 7 110573284.517 5
  16817745.428    16817747.204   -83254537.496 9  84723916.346 8
  17380043.113    17380046.359   -12013872.928 6  -4836776.489 6
 89 11 12 14 53 59.0800000  0  4G13G12G 3G 9
  15638841.638    15638844.755   -47563994.594 9  32550885.229 8
  15377404.227    15377407.427   -87844549.413 6 110587414.206 7
  16809127.035    16809129.690   -83299823.165 9  84688628.758 8
  17400806.927    17400808.589   -11904759.616 6  -4751753.304 6
 89 11 12 14 54 29.0800000  0  4G13G12G 3G 9
  15644957.650    15644960.793   -47531857.210 9  32575927.260 7
  15380976.129    15380978.863   -87825781.886 6 110602038.176 6
  16800559.085    16800562.059   -83344851.676 9  84653541.546 8
  17421630.663    17421632.824   -11795328.128 5  -4666482.152 5
 89 11 12 14 54 59.0800000  0  4G13G12G 3G 9
  15651114.591    15651116.258   -47499506.573 9  32601135.449 7
  15384667.881    15384670.716   -87806380.708 8 110617155.902 9
  16792038.230    16792041.539   -83389623.971 9  84618653.969 8
  17442515.320    17442518.005   -11685581.491 9  -4580965.444 9
 89 11 12 14 55 29.0800000  0  4G13G12G 3G 9
  15657309.253    15657312.886   -47466944.618 9  32626508.301 7
  15388480.451    15388483.568   -87786346.214 9 110632767.125 8
  16783568.214    16783569.633   -83434140.541 9  84583965.667 8
  17463458.871    17463462.601   -11575523.090 9  -4495205.839 8
 89 11 12 14 55 59.0800000  0  4G13G12G 3G 9
  15663545.721    15663548.501   -47434173.597 9  32652044.071 7
  15392413.182    15392417.058   -87765679.100 9 110648871.275 9
  16775145.295    16775147.867   -83478402.300 9  84549475.929 8
  17484461.137    17484465.012   -11465156.217 9  -4409205.860 8
 89 11 12 14 56 29.0800000  0  4G13G12G 3G 9
  15669821.463    15669825.030   -47401194.912 8  32677741.660 7
  15396466.516    15396470.900   -87744379.601 9 110665468.223 8
  16766770.426    16766773.746   -83522409.339 9  84515184.661 9
  17505521.604    17505524.376   -11354483.807 9  -4322967.781 8
 89 11 12 14 56 59.0800000  0  4G13G12G 3G 9
  15676136.720    15676139.955   -47368010.067 9  32703599.888 7
  15400640.531    15400643.471   -87722448.298 9 110682557.477 8
  16758444.845    16758448.128   -83566162.299 9  84481091.399 9
  17526639.226    17526642.369   -11243508.966 8  -4236494.033 7
 89 11 12 14 57 29.0800000  0  4G13G12G 3G 9
  15682489.663    15682494.484   -47334620.602 8  32729617.562 7
  15404932.970    15404938.070   -87699885.765 9 110700138.588 8
  16750167.503    16750170.915   -83609661.724 9  84447195.688 8
  17547813.946    17547818.376   -11132235.002 8  -4149787.232 7
 89 11 12 14 57 59.0800000  0  4G13G12G 3G 9
  15688883.182    15688886.613   -47301028.161 9  32755793.391 7
  15409346.500    15409349.982   -87676692.314 9 110718211.324 8
  16741937.582    16741941.443   -83652908.191 9  84413497.084 8
  17569045.119    17569049.090   -11020664.892 9  -4062849.668 8
 89 11 12 14 58 29.0800000  0  4G13G12G 3G 9
  15695313.824    15695318.030   -47267234.339 9  32782126.159 8
  15413879.863    15413884.471   -87652868.499 9 110736775.263 9
  16733756.253    16733758.258   -83695902.254 9  84379995.154 8
  17590333.608    17590336.180   -10908801.862 9  -3975683.853 8
 89 11 12 14 58 59.0800000  0  4G13G12G 3G 9
  15701783.177    15701786.383   -47233240.303 9  32808614.928 8
  15418534.239    15418536.959   -87628414.716 9 110755830.064 8
  16725623.145    16725626.238   -83738644.694 9  84346689.290 7
  17611674.911    17611679.521   -10796649.224 9  -3888292.359 8
 89 11 12 14 59 29.0800000  0  4G13G12G 3G 9
  15708289.055    15708292.664   -47199047.885 9  32835258.282 7
  15423306.842    15423310.580   -87603331.532 9 110775375.320 8
  16717537.203    16717540.644   -83781135.548 9  84313579.472 9
  17633070.367    17633075.127   -10684209.949 9  -3800677.534 9
 89 11 12 14 59 59.0800000  0  4G13G12G 3G 9
  15714833.884    15714836.501   -47164658.875 9  32862054.815 8
  15428200.212    15428203.468   -87577620.124 9 110795410.097 8
  16709498.375    16709501.320   -83823376.095 9  84280664.704 8
  17654522.306    17654524.647   -10571487.573 9  -3712842.082 7
 89 11 12 15  0 29.0800000  0  4G13G12G 3G 9
  15721415.247    15721418.340   -47130075.231 9  32889003.014 8
  15433212.709    15433215.242   -87551281.229 9 110815933.836 8
  16701508.356    16701510.689   -83865366.906 9  84247944.538 8
  17676025.996    17676029.785   -10458485.449 9  -3624788.666 9
 89 11 12 15  0 59.0800000  0  4G13G12G 3G 9
  15728031.695    15728035.737   -47095298.731 9  32916101.504 8
  15438343.716    15438347.774   -87524316.452 9 110836945.278 9
  16693564.985    16693566.782   -83907109.496 9  84215417.784 8
  17697581.803    17697585.602   -10345207.554 8  -3536520.379 8
 89 11 12 15  1 29.0800000  0  4G13G12G 3G 9
  15734686.968    15734689.870   -47060331.080 9  32943348.928 7
  15443594.071    15443598.324   -87496726.306 9 110858444.014 9
  16685669.693    16685670.393   -83948604.386 9  84183084.048 8
  17719189.576    17719193.676   -10231656.672 9  -3448039.377 8
 89 11 12 15  1 59.0800000  0  4G13G12G 3G 9
  15741378.249    15741381.424   -47025173.121 9  32970744.644 8
  15448962.922    15448967.413   -87468510.440 9 110880430.321 9
  16677820.839    16677823.949   -83989850.867 9  84150943.867 8
  17740850.887    17740854.018   -10117835.465 8  -3359347.713 8
 89 11 12 15  2 29.0800000  0  4G13G12G 3G 9
  15748103.047    15748106.449   -46989826.259 9  32998287.561 7
  15454451.560    15454456.410   -87439669.897 9 110902903.386 8
  16670018.814    16670021.579   -84030849.917 9  84118996.490 9
  17762560.413    17762564.449   -10003746.917 9  -3270447.733 8
 89 11 12 15  2 59.0800000  0  4G13G12G 3G 9
  15754865.600    15754868.438   -46954291.890 9  33025976.586 8
  15460059.081    15460061.127   -87410205.200 5 110925862.820 3
  16662263.674    16662266.277   -84071601.768 8  84087241.735 9
  17784320.845    17784325.030    -9889393.961 9  -3181341.736 8
 89 11 12 15  3 29.0800000  0  4G13G12G 3G 9
  15761662.784    15761665.917   -46918571.727 9  33053810.389 8
  15465783.912    15465788.161   -87380117.516 4 110949307.664 6
  16654555.212    16654556.633   -84112107.243 9  84055678.972 8
  17806130.612    17806135.777    -9774780.151 9  -3092032.492 7
 89 11 12 15  3 59.0800000  0  4G13G12G 3G 9
  15768495.529    15768499.376   -46882666.845 9  33081788.111 7
  15471628.173    15471631.973   -87349407.626 8 110973237.363 9
  16646893.586    16646897.814   -84152366.979 8  84024307.679 8
  17827990.525    17827994.438    -9659908.592 9  -3002522.386 8
 89 11 12 15  4 29.0800000  0  4G13G12G 3G 9
  15775362.735    15775365.422   -46846579.512 9  33109908.018 8
  15477590.648    15477593.032   -87318076.388 9 110997651.257 8
  16639279.812    16639283.557   -84192381.251 9  83993127.672 7
  17849900.498    17849902.467    -9544782.442 1  -2912813.877 1
 89 11 12 15  4 59.0800000  0  4G13G12G 3G 9
  15782264.690    15782268.468   -46810310.822 9  33138169.227 7
  15483670.037    15483673.989   -87286124.222 8 111022548.964 9
  16631712.227    16631715.605   -84232151.041 9  83962138.147 8
  17871854.203    17871857.548    -9429404.812 1  -2822909.442 1
 89 11 12 15  5 29.0800000  0  4G13G12G 3G 9
  15789199.876    15789204.241   -46773861.653 9  33166571.080 8
  15489867.580    15489871.479   -87253552.278 4 111047929.611 4
  16624191.417    16624193.724   -84271676.818 9  83931338.779 8
  17893857.413    17893860.709    -9313779.153 1  -2732811.757 1
 89 11 12 15  5 59.0800000  0  4G13G12G 3G 9
  15796171.064    15796173.666   -46737233.720 9  33195112.224 7
  15496185.939    15496190.109   -87220361.938 4 111073792.132 3
  16616715.364    16616717.464   -84310959.197 9  83900729.063 8
  17915909.069    17915912.550    -9197908.328 1  -2642523.012 1
 89 11 12 15  6 29.0800000  0  4G13G12G 3G 9
  15803175.899    15803179.147   -46700428.752 9  33223791.322 8
  15502619.377    15502624.440   -87186554.195 4 111100135.735 5
  16609286.792    16609289.617   -84349998.960 9  83870308.388 7
  17938003.442    17938005.016    -9081795.993 1  -2552046.066 1
 89 11 12 15  6 59.0800000  0  4G13G12G 3G 9
  15810210.986    15810216.008   -46663448.184 9  33252607.255 8
  15509170.665    15509174.460   -87152129.836 5 111126959.837 5
  16601902.768    16601906.308   -84388796.453 9  83840076.502 8
  17960142.463    17960147.069    -8965444.938 9  -2461383.142 8
 89 11 12 15  7 29.0800000  0  4G13G12G 3G 9
  15817282.098    15817284.947   -46626293.272 9  33281559.022 7
  15515837.022    15515842.587   -87117089.992 6 111154263.519 6
  16594566.910    16594570.566   -84427352.282 9  83810032.934 9
  17982329.501    17982334.863    -8848858.349 9  -2370536.679 8
 89 11 12 15  7 59.0800000  0  4G13G12G 3G 9
  15824385.551    15824389.595   -46588965.520 9  33310645.482 8
  15522621.725    15522626.179   -87081436.065 9 111182045.709 8
  16587275.859    16587279.533   -84465667.197 8  83780177.093 9
  18004559.828    18004563.718    -8732039.501 9  -2279509.209 7
 89 11 12 15  8 29.0800000  0  4G13G12G 3G 9
  15831521.189    15831525.097   -46551466.607 8  33339865.308 8
  15529523.815    15529527.197   -87045168.785 6 111210305.847 5
  16580030.831    16580033.991   -84503741.939 9  83750508.390 7
  18026833.379    18026838.940    -8614991.853 9  -2188303.463 8
 89 11 12 15  8 59.0800000  0  4G13G12G 3G 9
  15838689.199    15838693.396   -46513798.179 9  33369217.226 7
  15536542.509    15536544.791   -87008289.167 1 111239043.110 1
  16572831.693    16572834.112   -84541577.478 9  83721026.080 8
  18049149.162    18049155.345    -8497718.555 9  -2096921.891 8
 89 11 12 15  9 29.0800000  0  4G13G12G 3G 9
  15845890.676    15845894.256   -46475961.338 9  33398700.374 7
  15543676.645    15543679.144   -86970798.422 9 111268256.622 8
  16565675.832    16565679.591   -84579173.989 9  83691730.028 7
  18071508.829    18071512.798    -8380222.852 9  -2005367.031 8
 89 11 12 15  9 59.0800000  0  4G13G12G 3G 9
  15853122.761    15853125.660   -46437957.175 9  33428313.901 8
  15550926.493    15550929.447   -86932697.966 9 111297945.201 8
  16558566.636    16558569.556   -84616532.206 9  83662619.654 7
  18093909.319    18093913.404    -8262507.952 9  -1913641.318 9
 89 11 12 15 10 29.0800000  0  4G13G12G 3G 9
  15860385.117    15860389.626   -46399787.989 9  33458056.020 8
  15558291.788    15558295.720   -86893989.240 9 111328107.753 9
  16551503.522    16551506.124   -84653652.616 9  83633694.586 8
  18116351.144    18116355.377    -8144576.909 8  -1821747.224 8
 89 11 12 15 10 59.0800000  0  4G13G12G 3G 9
  15867679.919    15867685.232   -46361454.788 8  33487925.948 8
  15565774.150    15565778.838   -86854673.227 9 111358743.514 8
  16544484.823    16544487.519   -84690536.225 9  83604954.074 8
  18138832.982    18138838.166    -8026433.179 9  -1729687.417 9
 89 11 12 15 11 29.0800000  0  4G13G12G 3G 9
  15875005.412    15875008.810   -46322958.934 9  33517922.618 8
  15573371.279    15573375.422   -86814751.314 9 111389851.415 9
  16537511.248    16537513.630   -84727183.452 8  83576397.715 7
  18161355.666    18161359.044    -7908079.826 9  -1637464.263 9
 89 11 12 15 11 59.0800000  0  4G13G12G 3G 9
  15882362.255    15882366.495   -46284301.569 9  33548045.150 9
  15581083.878    15581088.167   -86774224.529 9 111421430.648 8
  16530582.703    16530586.372   -84763595.230 9  83548024.836 8
  18183916.966    18183921.669    -7789520.195 9  -1545080.354 9
 89 11 12 15 12 29.0800000  0  4G13G12G 3G 9
  15889750.428    15889752.136   -46245484.301 9  33578292.264 9
  15588910.844    15588914.070   -86733094.422 9 111453480.000 9
  16523697.666    16523701.755   -84799772.248 8  83519834.907 8
  18206517.322    18206520.739    -7670757.565 9  -1452538.259 8
 89 11 12 15 12 59.0800000  0  4G13G12G 3G 9
  15897165.742    15897170.252   -46206508.867 9  33608662.641 8
  15596851.731    15596855.280   -86691362.298 9 111485998.453 9
  16516858.570    16516860.736   -84835715.078 9  83491827.458 8
  18229154.322    18229158.740    -7551795.152 9  -1359840.516 8
 89 11 12 15 13 29.0800000  0  4G13G12G 3G 9
  15904611.805    15904615.162   -46167376.305 9  33639155.448 7
  15604907.300    15604910.602   -86649029.798 9 111518984.723 9
  16510063.368    16510065.439   -84871424.139 9  83464002.179 8
  18251828.980    18251835.070    -7432635.889 9  -1266989.384 8
 89 11 12 15 13 59.0800000  0  4G13G12G 3G 9
  15912088.127    15912092.760   -46128087.627 9  33669769.893 8
  15613076.542    15613080.568   -86606098.517 9 111552437.575 8
  16503313.798    16503315.317   -84906900.221 9  83436358.415 8
  18274541.342    18274547.411    -7313283.295 9  -1173987.618 9
 89 11 12 15 14 29.0800000  0  4G13G12G 3G 9
  15919595.182    15919600.623   -46088644.325 9  33700504.847 7
  15621360.194    15621363.973   -86562569.774 9 111586355.989 8
  16496606.191    16496609.169   -84942144.158 9  83408895.555 8
  18297290.894    18297295.057    -7193740.746 9  -1080837.810 8
 89 11 12 15 14 59.0800000  0  4G13G12G 3G 9
  15927130.020    15927135.431   -46049047.610 9  33731359.330 8
  15629757.692    15629759.092   -86518444.778 9 111620739.007 9
  16489943.364    16489946.273   -84977156.620 9  83381613.068 8
  18320073.933    18320079.996    -7074011.098 9   -987542.221 8
 89 11 12 15 15 29.0800000  0  4G13G12G 3G 9
  15934694.684    15934698.280   -46009299.694 9  33762331.621 7
  15638266.483    15638270.391   -86473725.020 9 111655585.485 8
  16483325.197    16483328.041   -85011938.325 9  83354510.378 8
  18342892.429    18342898.351    -6954097.758 8   -894103.505 8
 89 11 12 15 15 59.0800000  0  4G13G12G 3G 9
  15942286.445    15942290.612   -45969401.574 9  33793420.972 8
  15646890.002    15646892.919   -86428412.314 9 111690893.988 8
  16476749.988    16476752.788   -85046489.919 9  83327587.006 8
  18365746.051    18365752.703    -6834004.205 9   -800524.359 9
 89 11 12 15 16 29.0800000  0  4G13G12G 3G 9
  15949906.729    15949911.366   -45929354.192 9  33824626.620 8
  15655625.196    15655629.238   -86382508.152 9 111726663.365 8
  16470218.453    16470221.308   -85080812.022 9  83300842.458 8
  18388633.828    18388639.046    -6713733.289 8   -706806.999 9
 89 11 12 15 16 59.0800000  0  4G13G12G 3G 9
  15957555.714    15957560.785   -45889159.108 9  33855947.356 8
  15664473.236    15664476.328   -86336013.964 9 111762892.509 8
  16463730.567    16463733.487   -85114905.375 9  83274276.150 8
  18411553.273    18411560.894    -6593288.466 9   -612954.140 7
 89 11 12 15 17 29.0800000  0  4G13G12G 3G 9
  15965232.698    15965237.190   -45848817.137 9  33887382.552 7
  15673433.044    15673437.007   -86288931.381 9 111799580.129 8
  16457287.363    16457289.664   -85148770.534 9  83247887.653 8
  18434507.035    18434511.999    -6472672.707 8   -518968.083 7
 89 11 12 15 17 59.0800000  0  4G13G12G 3G 9
  15972937.117    15972942.612   -45808329.778 9  33918931.015 9
  15682504.265    15682507.620   -86241261.411 9 111836725.468 9
  16450885.595    16450889.354   -85182407.836 9  83221676.697 8
  18457490.515    18457497.716    -6351889.125 9   -424851.260 7
 89 11 12 15 18 29.0800000  0  4G13G12G 3G 9
  15980668.973    15980673.364   -45767698.460 9  33950591.675 7
  15691686.395    15691691.122   -86193005.932 9 111874327.047 8
  16444527.580    16444531.365   -85215818.396 9  83195642.417 7
  18480506.893    18480513.288    -6230941.218 9   -330606.392 8
 89 11 12 15 18 59.0800000  0  4G13G12G 3G 9
  15988429.233    15988431.933   -45726924.412 9  33982363.534 8
  15700979.754    15700984.173   -86144166.991 9 111912383.264 8
  16438213.324    16438216.426   -85249003.085 9  83169784.138 8
  18503553.579    18503559.508    -6109832.173 9   -236235.961 8
 89 11 12 15 19 29.0800000  0  4G13G12G 3G 9
  15996214.972    15996218.655   -45686008.963 9  34014245.581 8
  15710384.579    15710387.954   -86094746.261 9 111950892.824 9
  16431941.429    16431944.532   -85281962.369 9  83144101.517 8
  18526630.070    18526634.823    -5988565.442 9   -141742.691 9
 89 11 12 15 19 59.0800000  0  4G13G12G 3G 9
  16004027.919    16004031.732   -45644953.841 9  34046236.469 7
  15719899.820    15719904.685   -86044745.235 9 111989854.575 8
  16425712.373    16425716.524   -85314696.610 9  83118594.233 8
  18549734.837    18549742.179    -5867143.681 9    -47128.596 8
 89 11 12 15 20 29.0800000  0  4G13G12G 3G 9
  16011867.139    16011871.868   -45603759.649 9  34078335.697 8
  15729525.181    15729527.945   -85994166.023 9 112029266.845 8
  16419525.290    16419530.771   -85347207.104 9  83093261.315 8
  18572870.640    18572876.752    -5745570.597 9     47603.417 8
 89 11 12 15 20 59.0800000  0  4G13G12G 3G 9
  16019732.570    16019738.204   -45562428.126 9  34110541.960 7
  15739259.684    15739262.547   -85943010.396 9 112069128.274 8
  16413382.066    16413383.771   -85379494.472 9  83068102.236 8
  18596033.680    18596039.347    -5623849.288 9    142450.936 9
 89 11 12 15 21 29.0800000  0  4G13G12G 3G 9
  16027623.162    16027627.759   -45520959.569 9  34142854.992 7
  15749103.520    15749107.433   -85891279.968 9 112109437.602 7
  16407279.438    16407282.515   -85411558.849 9  83043116.918 8
  18619223.746    18619229.976    -5501982.710 9    237411.649 8
 89 11 12 15 21 59.0800000  0  4G13G12G 3G 9
  16035540.308    16035544.732   -45479355.964 9  34175273.270 8
  15759056.803    15759060.648   -85838976.701 9 112150193.288 8
  16401220.433    16401223.989   -85443401.306 9  83018304.517 8
  18642441.914    18642447.403    -5379974.104 8    332483.005 9
 89 11 12 15 22 29.0800000  0  4G13G12G 3G 9
  16043482.523    16043485.957   -45437618.785 9  34207795.613 8
  15769118.676    15769121.697   -85786102.813 9 112191393.619 8
  16395203.053    16395207.451   -85475022.630 9  82993664.458 7
  18665685.897    18665692.078    -5257827.128 8    427662.178 9
 89 11 12 15 22 59.0800000  0  4G13G12G 3G 9
  16051450.628    16051452.895   -45395748.682 9  34240421.540 8
  15779288.259    15779291.573   -85732659.652 9 112233037.570 7
  16389228.458    16389232.444   -85506423.379 9  82969196.256 8
  18688955.822    18688962.103    -5135544.670 9    522946.944 9
 89 11 12 15 23 29.0800000  0  4G13G12G 3G 9
  16059444.619    16059446.307   -45353747.062 9  34273149.967 8
  15789566.207    15789569.105   -85678649.248 9 112275123.505 8
  16383294.220    16383299.209   -85537604.283 9  82944899.359 8
  18712250.769    18712255.635    -5013130.067 9    618334.687 9
 89 11 12 15 23 59.0800000  0  4G13G12G 3G 9
  16067460.407    16067464.061   -45311614.972 9  34305980.043 7
  15799951.745    15799954.755   -85624073.548 9 112317649.918 7
  16377402.598    16377407.276   -85568566.073 9  82920773.210 8
  18735570.001    18735576.383    -4890586.208 8    713823.120 7
 89 11 12 15 24 29.0800000  0  4G13G12G 3G 9
  16075503.042    16075506.870   -45269353.971 9  34338910.566 8
  15810443.380    15810448.998   -85568934.377 9 112360615.403 8
  16371552.929    16371555.691   -85599309.618 9  82896817.135 8
  18758912.925    18758919.719    -4767916.683 8    809409.480 9
 89 11 12 15 24 59.0800000  0  4G13G12G 3G 9
  16083568.882    16083574.550   -45226965.643 9  34371940.312 7
  15821042.866    15821047.739   -85513234.156 9 112404018.054 8
  16365742.972    16365747.102   -85629835.580 9  82873030.617 8
  18782280.130    18782286.899    -4645124.996 8    905091.026 8
 89 11 12 15 25 29.0800000  0  4G13G12G 3G 9
  16091657.790    16091663.964   -45184450.212 9  34405069.118 8
  15831749.594    15831753.304   -85456974.626 9 112447856.569 8
  16359976.261    16359979.372   -85660144.803 9  82849412.979 8
  18805669.685    18805676.347    -4522213.990 9   1000865.529 8
 89 11 12 15 25 59.0800000  0  4G13G12G 3G 9
  16099773.317    16099778.341   -45141808.729 9  34438296.118 7
  15842561.899    15842565.941   -85400157.115 9 112492129.846 7
  16354250.059    16354253.843   -85690237.323 9  82825964.211 8
  18829080.869    18829087.961    -4399186.533 9   1096730.791 9
 89 11 12 15 26 29.0800000  0  4G13G12G 3G 9
  16107911.475    16107917.233   -45099042.507 9  34471620.340 7
  15853479.494    15853481.992   -85342784.469 9 112536835.701 8
  16348564.519    16348568.707   -85720114.278 9  82802683.401 8
  18852514.150    18852520.936    -4276046.076 9   1192684.097 7
 89 11 12 15 26 59.0800000  0  4G13G12G 3G 9
  16116072.414    16116079.428   -45056152.976 9  34505040.645 8
  15864502.073    15864507.380   -85284858.594 9 112581972.640 8
  16342920.069    16342924.136   -85749776.426 9  82779569.984 8
  18875968.683    18875976.291    -4152795.727 8   1288723.029 8
 89 11 12 15 27 29.0800000  0  4G13G12G 3G 9
  16124257.902    16124264.355   -45013141.112 9  34538556.274 7
  15875630.594    15875634.055   -85226381.365 9 112627539.204 9
  16337316.088    16337320.096   -85779224.180 9  82756623.617 8
  18899442.926    18899449.172    -4029438.896 8   1384844.931 8
 89 11 12 15 27 59.0800000  0  4G13G12G 3G 9
  16132466.748    16132470.458   -44970007.394 7  34572166.870 6
  15886862.684    15886867.284   -85167354.736 9 112673533.866 8
  16331753.446    16331756.664   -85808458.085 9  82733843.924 7
  18922937.252    18922944.082    -3905978.251 9   1481047.711 8
 89 11 12 15 28 29.0800000  0  4G13G12G 3G 9
  16140696.771    16140703.083   -44926753.395 9  34605871.166 7
  15898199.675    15898203.843   -85107780.870 9 112719954.955 8
  16326230.979    16326233.163   -85837478.835 9  82711230.313 8
  18946450.307    18946457.902    -3782416.884 8   1577328.971 9
 89 11 12 15 28 59.0800000  0  4G13G12G 3G 9
  16148951.231    16148956.953   -44883380.872 9  34639667.824 8
  15909639.627    15909643.775   -85047662.681 9 112766800.189 7
  16320748.482    16320752.785   -85866288.050 9  82688781.500 7
  18969980.826    18969988.679    -3658758.815 9   1673685.568 9
 89 11 12 15 29 29.0800000  0  4G13G12G 3G 9
  16157229.249    16157231.770   -44839891.353 7  34673555.663 7
  15921182.985    15921187.028   -84987002.025 9 112814068.128 9
  16315307.244    16315309.130   -85894886.065 9  82666497.269 8
  18993530.261    18993537.968    -3535007.100 8   1770115.129 9
 89 11 12 15 29 59.0800000  0  4G13G12G 3G 9
  16165526.248    16165531.247   -44796285.202 8  34707534.354 6
  15932829.920    15932834.338   -84925800.497 9 112861757.514 8
  16309904.258    16309909.006   -85923273.242 9  82644377.314 8
  19017097.192    19017105.350    -3411164.450 8   1866615.534 8
 89 11 12 15 30 29.0800000  0  4G13G12G 3G 9
  16173847.002    16173851.535   -44752563.161 9  34741603.353 8
  15944577.757    15944581.802   -84864061.076 9 112909866.040 8
  16304542.408    16304547.396   -85951450.649 9  82622420.851 8
  19040680.206    19040688.336    -3287234.376 9   1963184.103 8
 89 11 12 15 30 59.0800000  0  4G13G12G 3G 9
  16182187.733    16182192.846   -44708726.500 9  34775761.674 8
  15956428.476    15956432.121   -84801785.629 9 112958392.252 8
  16299221.241    16299225.152   -85979418.880 8  82600627.363 7
  19064280.356    19064287.870    -3163220.016 9   2059818.326 8
 89 11 12 15 31 29.0800000  0  4G13G12G 3G 9
  16190550.619    16190555.868   -44664776.366 9  34810008.411 8
  15968381.049    15968386.539   -84738976.841 9 113007334.036 8
  16293938.307    16293942.349   -86007178.405 9  82578996.512 8
  19087894.876    19087902.415    -3039124.511 8   2156515.766 8
 89 11 12 15 31 59.0800000  0  4G13G12G 3G 9
  16198934.893    16198939.907   -44620713.717 9  34844342.826 8
  15980433.988    15980438.229   -84675636.826 9 113056689.773 8
  16288695.618    16288699.242   -86034730.161 9  82557527.550 8
  19111524.924    19111532.645    -2914950.726 8   2253274.186 8
 89 11 12 15 32 29.0800000  0  4G13G12G 3G 9
  16207341.079    16207346.895   -44576539.218 9  34878764.368 8
  15992588.453    15992592.206   -84611767.044 9 113106458.326 7
  16283492.583    16283495.924   -86062074.125 9  82536220.475 7
  19135169.214    19135176.835    -2790701.729 9   2350091.218 8
 89 11 12 15 32 59.0800000  0  4G13G12G 3G 9
  16215770.269    16215776.627   -44532254.515 9  34913271.791 8
  16004843.568    16004846.576   -84547370.557 9 113156637.290 9
  16278328.041    16278331.782   -86089211.587 9  82515074.324 8
  19158827.096    19158834.977    -2666381.108 9   2446964.074 9
 89 11 12 15 33 29.0800000  0  4G13G12G 3G 9
  16224217.995    16224221.544   -44487860.364 9  34947864.514 8
  16017196.787    16017202.101   -84482449.420 9 113207225.068 8
  16273203.483    16273206.350   -86116143.535 9  82494088.316 8
  19182497.209    19182506.735    -2541991.877 9   2543890.390 7
 89 11 12 15 33 59.0800000  0  4G13G12G 3G 9
  16232685.629    16232690.682   -44443357.471 9  34982541.959 8
  16029650.529    16029655.371   -84417005.840 8 113258219.944 8
  16268117.443    16268122.013   -86142869.924 9  82473262.499 7
  19206181.386    19206188.279    -2417536.809 8   2640868.012 7
 89 11 12 15 34 29.0800000  0  4G13G12G 3G 9
  16241172.581    16241182.260   -44398747.043 8  35017303.193 7
  16042202.562    16042208.018   -84351042.572 9 113309619.758 8
  16263071.295    16263074.490   -86169391.849 9  82452596.001 7
  19229874.564    19229884.209    -2293019.408 8   2737894.183 8
 89 11 12 15 34 59.0800000  0  4G13G12G 3G 9
  16249684.135    16249689.240   -44354030.101 9  35052147.420 8
  16054853.215    16054858.485   -84284562.406 9 113361422.366 8
  16258063.155    16258065.189   -86195710.096 9  82432088.204 7
  19253582.104    19253590.889    -2168442.822 8   2834966.462 8
 89 11 12 15 35 29.0800000  0  4G13G12G 3G 9
  16258214.639    16258219.813   -44309207.557 9  35087073.949 7
  16067602.889    16067606.380   -84217567.184 9 113413626.310 8
  16253092.618    16253097.029   -86221825.238 9  82411738.678 8
  19277298.505    19277307.072    -2043809.977 9   2932082.572 8
 89 11 12 15 35 59.0800000  0  4G13G12G 3G 9
  16266762.710    16266768.775   -44264280.793 9  35122081.664 8
  16080448.790    16080455.004   -84150059.321 9 113466229.736 8
  16248161.284    16248166.140   -86247737.802 9  82391546.999 8
  19301026.974    19301033.873    -1919124.018 9   3029240.082 8
 89 11 12 15 36 29.0800000  0  4G13G12G 3G 9
  16275331.300    16275338.826   -44219250.483 9  35157170.077 8
  16093393.028    16093397.619   -84082041.692 9 113519230.349 8
  16243269.507    16243273.031   -86273449.099 9  82371512.164 8
  19324762.001    19324771.819    -1794388.526 9   3126436.184 8
 89 11 12 15 36 59.0800000  0  4G13G12G 3G 9
  16283921.885    16283925.812   -44174117.242 9  35192338.705 8
  16106432.009    16106437.077   -84013516.432 9 113572626.539 8
  16238415.585    16238419.496   -86298959.276 9  82351634.036 8
  19348509.643    19348518.145    -1669606.404 9   3223668.613 8
 89 11 12 15 37 29.0800000  0  4G13G12G 3G 9
  16292528.708    16292537.333   -44128882.190 9  35227586.650 7
  16119568.992    16119573.276   -83944486.040 9 113626416.309 7
  16233599.010    16233602.764   -86324269.178 9  82331911.968 8
  19372263.446    19372271.416    -1544780.472 8   3320935.160 9
 89 11 12 15 37 59.0800000  0  4G13G12G 3G 9
  16301155.448    16301161.523   -44083546.613 9  35262912.955 8
  16132801.051    16132805.242   -83874953.148 9 113680597.674 8
  16228819.131    16228824.789   -86349379.280 9  82312345.594 8
  19396023.563    19396033.813    -1419913.966 9   3418233.330 8
 89 11 12 15 38 29.0800000  0  4G13G12G 3G 9
  16309804.456    16309808.820   -44038111.214 9  35298317.030 7
  16146127.365    16146131.814   -83804919.843 9 113735168.956 8
  16224079.258    16224082.995   -86374290.248 9  82292934.402 7
  19419792.801    19419801.743    -1295009.992 8   3515560.693 8
 89 11 12 15 38 59.0800000  0  4G13G12G 3G 9
  16318467.770    16318472.353   -43992576.790 9  35333798.252 7
  16159549.414    16159553.346   -83734389.280 9 113790127.713 8
  16219377.784    16219381.209   -86399003.023 9  82273677.634 9
  19443568.524    19443577.611    -1170071.560 8   3612914.904 8
 89 11 12 15 39 29.0800000  0  4G13G12G 3G 9
  16327152.321    16327157.852   -43946944.544 9  35369355.700 8
  16173064.970    16173069.725   -83663363.990 9 113845471.976 9
  16214712.428    16214716.813   -86423518.010 9  82254574.970 8
  19467349.171    19467359.080    -1045101.830 8   3710293.498 9
 89 11 12 15 39 59.0800000  0  4G13G12G 3G 9
  16335855.968    16335860.227   -43901213.736 9  35404989.959 8
  16186674.005    16186679.540   -83591845.699 9 113901200.388 9
  16210084.741    16210087.679   -86447835.474 9  82235626.227 7
  19491136.494    19491146.210     -920103.173 8   3807694.642 9
 89 11 12 15 40 29.0800000  0  4G13G12G 3G 9
  16344573.380    16344581.825   -43855386.570 9  35440699.297 8
  16200377.242    16200382.469   -83519837.625 9 113957310.445 8
  16205494.652    16205499.480   -86471956.529 9  82216830.536 7
  19514927.919    19514935.719     -795079.441 8   3905115.293 8
 89 11 12 15 40 59.0800000  0  4G13G12G 3G 9
  16353311.858    16353319.483   -43809464.069 9  35476482.934 8
  16214173.007    16214177.512   -83447342.399 9 114013800.107 9
  16200942.022    16200945.832   -86495882.044 9  82198187.221 8
  19538723.255    19538732.125     -670033.623 8   4002553.143 7
 89 11 12 15 41 29.0800000  0  4G13G12G 3G 9
  16362069.408    16362074.554   -43763447.773 9  35512339.653 7
  16228060.827    16228065.010   -83374363.236 9 114070666.868 8
  16196426.737    16196430.206   -86519612.991 9  82179695.505 8
  19562522.467    19562532.254     -544969.488 8   4100005.293 8
 89 11 12 15 41 59.0800000  0  4G13G12G 3G 9
  16370845.681    16370850.926   -43717338.659 9  35548268.705 8
  16242038.481    16242044.669   -83300902.741 9 114127908.672 8
  16191947.718    16191951.187   -86543150.116 9  82161354.811 8
  19586323.818    19586332.666     -419890.010 8   4197469.396 8
 89 11 12 15 42 29.0800000  0  4G13G12G 3G 9
  16379636.432    16379641.043   -43671136.405 9  35584270.318 7
  16256110.322    16256113.975   -83226962.698 9 114185524.164 9
  16187505.383    16187510.527   -86566493.532 9  82143165.053 8
  19610130.755    19610139.598     -294797.567 8   4294943.626 8
 89 11 12 15 42 59.0800000  0  4G13G12G 3G 9
  16388447.162    16388452.442   -43624841.876 8  35620343.849 8
  16270270.537    16270275.801   -83152546.154 9 114243510.951 8
  16183099.374    16183103.799   -86589643.887 9  82125125.747 8
  19633936.341    19633946.933     -169694.984 8   4392425.728 7
 89 11 12 15 43 29.0800000  0  4G13G12G 3G 9
  16397271.072    16397277.605   -43578456.648 9  35656488.046 7
  16284522.611    16284528.173   -83077656.813 9 114301866.153 8
  16178731.040    16178733.834   -86612602.496 9  82107235.835 7
  19657744.948    19657754.319      -44586.320 8   4489912.535 8
 89 11 12 15 43 59.0800000  0  4G13G12G 3G 9
  16406117.808    16406122.414   -43531980.476 9  35692703.099 8
  16298862.454    16298868.233   -83002296.193 9 114360588.570 9
  16174399.489    16174404.105   -86635368.976 9  82089495.647 7
  19681552.170    19681561.561       80526.407 8   4587402.514 8
 89 11 12 15 44 29.0800000  0  4G13G12G 3G 9
  16414979.469    16414984.832   -43485415.018 9  35728987.740 8
  16313292.512    16313298.764   -82926467.359 9 114419675.836 9
  16170102.880    16170106.334   -86657944.573 9  82071904.202 7
  19705361.228    19705371.210      205639.546 9   4684892.841 8
 89 11 12 15 44 59.0800000  0  4G13G12G 3G 9
  16423858.427    16423861.462   -43438760.841 9  35765341.515 7
  16327810.880    16327816.801   -82850172.837 9 114479125.983 8
  16165843.275    16165847.372   -86680329.996 9  82054460.922 8
  19729170.092    19729180.032      330750.121 8   4782381.180 7
 89 11 12 15 45 29.0800000  0  4G13G12G 3G 9
  16432749.739    16432757.754   -43392018.315 8  35801764.119 7
  16342417.411    16342422.717   -82773415.148 9 114538937.030 9
  16161619.958    16161623.955   -86702524.890 9  82037166.130 7
  19752976.782    19752987.296      455855.904 9   4879865.807 7
 89 11 12 15 45 59.0800000  0  4G13G12G 3G 9
  16441663.554    16441667.641   -43345188.834 9  35838254.499 8
  16357111.245    16357116.667   -82696197.917 9 114599106.166 8
  16157432.179    16157436.505   -86724531.251 9  82020018.230 8
  19776781.268    19776792.870      580952.831 9   4977343.516 8
 89 11 12 15 46 29.0800000  0  4G13G12G 3G 9
  16450589.381    16450597.718   -43298272.985 9  35874812.160 8
  16371892.897    16371898.240   -82618523.576 9 114659631.487 9
  16153280.518    16153284.932   -86746349.385 9  82003017.001 8
  19800584.156    19800595.671      706038.288 9   5074812.275 7
 89 11 12 15 46 59.0800000  0  4G13G12G 3G 9
  16459535.395    16459541.723   -43251271.214 9  35911436.783 8
  16386759.631    16386765.602   -82540394.839 9 114720510.875 9
  16149164.403    16149169.575   -86767979.346 9  81986162.401 8
  19824385.632    19824396.313      831109.307 8   5172269.754 9
 89 11 12 15 47 29.0800000  0  4G13G12G 3G 9
  16468494.812    16468502.812   -43204184.419 9  35948127.638 7
  16401713.088    16401719.459   -82461814.270 9 114781742.333 8
  16145083.896    16145088.397   -86789421.739 9  81969453.971 8
  19848183.263    19848193.901      956163.348 8   5269713.988 9
 89 11 12 15 47 59.0800000  0  4G13G12G 3G 9
  16477472.534    16477477.925   -43157013.508 9  35984884.078 8
  16416752.938    16416758.103   -82382785.100 9 114843323.373 7
  16141039.213    16141042.393   -86810677.645 9  81952890.854 8
  19871972.975    19871988.381     1081196.626 9   5367142.024 9
 89 11 12 15 48 29.0800000  0  4G13G12G 3G 9
  16486463.695    16486470.940   -43109759.579 9  36021705.178 8
  16431875.754    16431882.110   -82303310.801 9 114905251.251 8
  16137030.158    16137033.811   -86831747.911 9  81936472.376 7
  19895764.713    19895777.887     1206205.942 9   5464551.403 9
 89 11 12 15 48 59.0800000  0  4G13G12G 3G 9
  16495474.909    16495478.802   -43062423.288 9  36058590.467 8
  16447083.973    16447089.658   -82223394.407 9 114967523.621 7
  16133055.736    16133059.447   -86852633.998 9  81920197.418 7
  19919547.340    19919560.415     1331187.986 9   5561939.525 9
 89 11 12 15 49 29.0800000  0  4G13G12G 3G 9
  16504496.062    16504501.641   -43015005.049 9  36095539.597 8
  16462375.950    16462380.976   -82143038.019 9 115030138.824 8
  16129115.789    16129119.972   -86873335.505 9  81904066.277 8
  19943327.162    19943339.713     1456140.340 8   5659304.562 8
 89 11 12 15 49 59.0800000  0  4G13G12G 3G 9
  16513534.021    16513540.965   -42967505.755 9  36132551.902 8
  16477749.557    16477756.377   -82062244.624 9 115093094.557 8
  16125211.872    16125216.114   -86893853.043 9  81888078.526 8
  19967096.902    19967108.531     1581060.095 8   5756644.137 8
 89 11 12 15 50 29.0800000  0  4G13G12G 3G 9
  16522586.981    16522594.392   -42919925.743 9  36169627.096 7
  16493207.297    16493213.017   -81981017.360 9 115156388.375 9
  16121343.052    16121345.418   -86914187.137 9  81872233.688 7
  19990866.017    19990876.163     1705944.464 4   5853956.105 7
